GFSWCAN_sfc_thetae_000.txt.gz
Theta_e
307 307 307 307 307 307 307 307 307 307 308 308 308 308 308 308 308 304 302 305 302 297 298 299 299 294 295 295 293 297 299 302 306 300 297 295 294 298 301 304 303 303 301 299 299 296 293 314 313 308 309 312 314 315
307 307 307 307 307 306 306 306 306 307 307 307 308 308 308 308 308 307 299 304 305 297 297 302 302 303 302 301 295 292 293 298 303 299 301 301 300 301 299 299 308 303 307 305 305 303 311 314 312 313 314 312 314 314
308 307 307 307 307 306 306 307 307 307 307 307 307 307 307 308 307 307 301 300 299 295 295 294 297 302 303 303 303 294 296 299 300 301 298 303 300 303 300 302 305 311 315 308 307 311 314 316 315 316 316 315 316 318
307 307 307 307 307 306 306 306 306 306 306 307 306 307 307 308 307 307 299 301 299 297 289 293 303 299 303 302 302 301 298 299 300 300 295 297 299 304 301 305 306 310 310 310 309 313 313 314 314 314 317 318 317 317
306 306 306 306 306 306 306 305 306 306 306 306 306 307 307 308 308 305 302 302 303 299 292 292 299 302 302 303 304 304 300 297 297 294 293 293 301 301 300 304 303 308 309 306 305 311 310 311 314 315 311 312 313 312
306 306 306 306 306 306 306 305 305 305 306 306 306 307 307 308 309 301 299 302 304 300 292 289 299 298 300 302 301 299 301 299 298 293 294 296 300 301 297 296 302 311 313 313 311 314 313 314 313 311 310 310 311 309
306 306 306 306 306 306 306 306 305 305 306 306 306 307 307 308 300 297 297 303 305 301 295 293 294 299 302 300 301 299 299 299 297 293 293 293 295 299 299 295 299 306 306 308 314 308 303 305 303 309 312 313 312 311
307 306 306 306 306 306 306 306 305 305 305 306 307 307 308 308 304 296 302 305 303 297 295 291 293 295 299 295 296 301 297 298 297 294 294 294 296 294 294 298 300 303 306 306 306 307 305 306 307 307 309 309 307 307
306 306 305 305 305 305 306 305 304 305 305 306 307 308 302 298 294 298 312 309 302 298 291 294 290 290 297 296 298 298 300 294 298 293 292 294 293 295 293 299 302 303 303 302 305 305 306 304 304 305 306 306 304 304
305 305 305 305 305 305 306 305 304 305 306 306 301 298 292 298 312 308 298 295 295 296 294 291 295 291 294 295 294 297 297 295 292 295 297 299 297 302 303 302 303 304 305 305 303 302 303 303 304 305 305 306 305 305
305 305 305 306 306 306 306 306 305 306 305 296 294 296 303 310 297 294 290 291 293 291 293 293 292 291 299 294 294 297 293 294 290 295 294 296 297 302 306 306 308 308 308 307 306 304 304 303 304 304 305 306 306 305
305 305 306 306 307 305 307 306 306 300 300 301 300 302 300 296 291 288 286 292 292 289 293 292 293 297 298 299 296 297 293 294 289 297 295 296 303 305 307 308 309 308 309 309 309 308 308 309 308 307 306 306 309 309
305 305 306 306 306 307 307 306 306 306 306 302 298 294 292 289 279 285 282 287 289 293 293 293 292 294 296 296 296 295 292 290 296 294 296 300 305 308 308 308 308 309 310 311 311 311 311 311 312 310 309 311 311 312
305 306 306 306 306 306 306 306 306 305 301 295 291 284 286 283 288 288 290 293 297 296 295 296 295 294 296 294 295 291 294 295 291 291 294 299 301 305 305 307 307 307 309 310 310 311 312 312 312 312 313 312 313 311
306 306 306 306 307 307 306 306 306 302 297 292 292 284 289 293 294 297 298 297 298 297 295 295 295 296 293 293 294 293 292 291 294 295 299 302 302 304 305 307 306 305 307 308 310 310 311 311 310 309 310 309 310 310
306 305 304 306 307 306 306 305 301 302 296 293 292 290 294 293 294 295 293 295 298 296 296 295 292 292 292 292 291 291 292 292 295 299 301 303 304 304 304 305 307 307 306 307 307 309 309 309 308 307 309 310 310 310
305 298 306 307 306 306 305 301 299 296 294 293 291 295 296 295 294 294 295 294 298 295 292 293 289 289 294 289 290 295 293 297 298 299 302 302 303 304 305 306 307 307 306 306 307 308 307 309 309 308 305 308 310 310
297 302 307 306 304 302 298 298 297 295 290 292 291 293 295 295 295 297 296 298 296 295 295 293 295 290 288 290 291 297 299 301 301 301 302 303 304 305 307 306 307 306 307 307 306 306 307 305 304 305 305 308 308 311
301 303 306 307 304 299 295 296 296 288 291 294 295 296 296 296 297 300 297 298 297 298 296 294 292 290 291 294 294 296 296 298 299 301 303 304 304 305 306 306 309 306 305 306 305 304 305 305 304 304 305 307 306 307
306 305 306 306 305 297 295 291 298 292 291 293 295 294 293 293 295 295 296 298 295 293 292 293 293 295 296 297 298 298 299 301 300 299 300 302 305 306 305 304 304 308 306 305 304 302 301 303 304 307 307 306 305 304
303 304 304 303 300 299 298 295 293 294 294 292 295 295 293 294 293 294 295 298 292 290 290 295 295 298 300 301 302 301 301 302 300 301 300 302 307 305 307 307 305 304 303 302 302 302 301 301 302 301 301 304 305 306
303 307 301 303 297 296 294 297 293 296 291 291 292 293 292 292 292 293 295 293 292 293 295 296 296 298 298 299 301 304 307 308 305 305 305 306 305 305 305 306 305 306 306 307 304 301 299 300 301 302 301 302 301 301
305 302 298 297 292 290 289 297 294 293 290 292 293 290 290 293 294 295 292 294 294 297 298 298 299 300 300 303 307 309 310 308 306 306 307 308 310 308 307 307 307 306 305 305 302 301 299 300 300 300 300 301 301 301
304 296 293 292 291 287 294 291 293 293 294 291 288 286 289 292 295 292 290 293 296 300 302 303 305 305 305 306 306 306 307 308 308 307 307 306 305 305 304 301 298 297 299 300 301 300 301 301 301 301 302 302 301 300
290 290 290 287 291 289 289 291 291 290 288 290 287 287 290 294 291 291 294 297 301 302 304 306 305 303 303 303 305 306 309 308 306 307 307 307 303 299 301 297 294 295 297 297 296 296 296 297 298 299 299 300 299 301
286 291 289 291 290 290 290 289 290 291 292 292 292 296 294 293 294 291 295 299 301 302 302 303 303 303 305 306 305 307 304 306 306 299 300 299 296 294 293 292 292 293 296 295 294 295 297 297 297 297 296 297 296 297
293 295 295 298 299 297 298 300 299 297 295 293 294 296 296 292 293 298 301 302 305 306 309 307 308 308 305 306 302 303 302 300 299 298 297 297 296 296 295 293 292 293 296 296 295 295 296 295 295 295 295 296 298 300
300 304 298 300 302 303 296 296 296 294 295 297 297 294 294 295 296 301 302 307 308 308 306 308 306 303 302 299 299 299 298 298 299 298 297 297 296 295 295 295 294 295 295 295 295 295 295 294 294 294 295 297 297 298
302 302 302 296 298 300 298 295 295 296 298 297 295 295 297 301 303 305 306 304 304 303 301 300 300 300 299 299 299 298 297 296 295 294 293 291 291 292 293 293 293 293 293 293 294 295 295 294 294 293 293 296 296 296
300 303 301 301 299 297 300 300 298 300 301 302 303 302 302 302 304 305 304 303 302 301 300 299 298 299 296 295 295 296 297 296 296 293 291 290 291 292 292 293 292 292 292 293 293 294 294 293 292 292 291 291 291 291
305 304 303 302 300 303 305 305 303 302 302 303 304 301 301 301 304 306 306 304 304 303 300 298 297 297 296 295 294 294 292 295 296 294 293 292 291 292 292 292 292 293 294 294 293 293 292 291 291 291 291 291 291 290
304 302 301 301 302 306 308 307 302 302 303 302 301 305 305 304 300 301 305 303 301 299 299 298 296 296 297 296 297 296 295 294 293 293 292 292 292 292 291 291 291 293 293 293 293 292 291 290 291 291 291 291 290 290
305 305 305 305 303 302 304 303 302 302 302 302 303 305 306 305 301 303 306 305 301 299 298 298 297 297 297 297 296 295 295 294 293 293 293 293 292 292 291 291 292 293 291 290 289 289 289 288 289 289 288 289 289 290

GFSWCAN_sfc_thetae_003.txt.gz
Theta_e
307 307 307 307 307 307 307 307 307 307 307 307 307 307 308 308 308 302 297 301 299 296 295 298 298 294 294 292 289 294 295 300 300 298 298 298 294 300 302 304 300 299 301 301 300 296 294 312 311 305 307 308 310 312
307 308 307 308 307 307 307 306 307 306 306 306 307 307 308 308 308 306 297 302 304 297 295 299 301 302 300 299 294 294 292 298 299 297 298 299 299 298 298 299 309 301 306 303 302 299 307 311 310 313 311 311 310 313
307 307 307 307 307 307 307 306 306 306 306 306 307 307 307 307 307 306 299 297 299 294 294 291 295 300 301 302 301 292 295 298 300 299 298 301 300 300 296 300 304 310 312 304 305 305 309 310 311 312 312 311 313 314
308 307 307 306 307 307 307 306 306 306 306 306 307 307 307 307 307 306 300 297 300 296 290 291 301 299 303 300 300 299 297 299 300 300 297 299 299 302 299 301 301 308 311 307 305 310 310 308 310 311 311 311 312 313
307 307 307 306 306 306 306 306 305 305 306 306 306 306 307 307 308 304 299 298 302 297 289 290 298 301 300 299 299 299 298 297 298 295 295 296 300 299 298 303 301 304 309 305 301 310 307 307 309 311 308 309 310 310
307 306 307 306 306 306 306 306 305 305 305 306 306 306 307 307 307 299 298 301 304 303 294 287 296 298 298 298 297 296 297 297 297 294 295 297 302 302 296 296 303 304 311 312 309 312 310 310 311 312 309 310 309 308
307 307 307 306 306 306 306 306 305 305 305 306 306 306 307 308 300 295 295 301 303 301 294 292 291 297 299 297 297 295 295 297 295 293 294 293 296 299 296 294 299 304 308 309 311 309 305 308 306 307 308 308 308 307
307 307 306 306 305 306 306 306 305 305 305 305 306 307 307 307 304 295 300 305 303 296 295 289 289 292 296 292 292 296 294 295 295 294 294 294 295 298 294 297 300 302 305 305 305 307 306 306 305 305 306 305 304 304
306 306 305 305 305 306 305 305 304 305 304 305 306 306 300 297 293 296 309 307 300 296 291 291 289 288 296 292 294 296 298 292 296 291 293 299 296 292 295 296 299 302 300 301 304 305 305 304 304 305 305 305 303 303
305 305 305 305 305 305 305 305 304 305 305 306 299 297 291 298 310 306 297 293 293 295 293 289 292 289 292 294 293 296 295 293 290 293 300 300 299 299 300 301 302 303 304 303 301 301 302 301 302 303 303 304 304 304
305 305 305 305 305 306 306 305 304 305 302 295 294 295 300 306 296 295 292 292 292 290 292 293 291 289 295 293 293 296 292 292 289 293 297 299 298 300 304 304 305 305 306 305 305 304 304 304 304 304 303 304 306 307
305 305 306 306 306 306 306 306 305 300 301 300 298 300 298 295 290 287 285 290 290 289 292 292 292 292 296 297 295 296 293 292 288 295 297 295 301 305 305 306 306 306 308 308 308 307 308 309 308 306 306 306 307 308
305 306 306 306 306 306 306 305 306 306 305 301 295 291 290 286 278 284 284 286 287 292 293 293 292 293 295 295 294 294 292 291 297 296 296 298 303 306 306 306 306 307 309 308 309 309 310 310 310 309 309 310 310 309
306 306 306 306 306 306 306 305 305 304 300 294 289 282 285 283 289 289 291 293 295 296 295 295 294 294 295 293 293 292 293 295 293 291 294 300 302 304 306 307 304 304 306 307 308 309 309 308 308 309 309 308 307 307
306 306 306 306 307 306 306 305 305 302 295 289 290 285 289 293 294 297 299 296 297 296 295 294 295 294 292 292 294 292 291 291 294 294 299 301 301 302 302 304 303 304 304 304 305 306 307 307 306 305 307 307 307 307
305 304 304 306 306 305 305 302 299 298 293 291 293 291 293 292 292 294 295 294 298 295 294 294 291 290 291 290 291 292 292 291 294 297 299 300 300 301 302 304 304 305 304 303 303 304 305 304 305 306 306 306 308 308
303 298 306 306 305 305 304 298 297 295 292 292 292 296 295 293 292 294 295 296 298 295 292 292 289 288 291 288 291 295 294 296 299 299 299 298 299 301 303 304 304 304 304 304 304 304 304 305 303 303 303 304 307 307
298 301 307 306 304 301 297 297 295 294 291 294 293 294 294 295 294 294 296 296 296 293 293 292 294 291 290 290 292 296 298 296 298 299 299 300 301 302 303 302 303 304 303 303 303 304 303 302 302 301 301 304 306 311
300 301 306 306 304 298 293 295 295 291 293 292 293 293 294 294 294 296 295 296 294 295 293 292 291 289 293 296 294 294 294 296 297 298 300 302 302 303 304 304 304 303 303 302 302 303 302 302 301 301 302 302 303 304
305 305 307 307 305 294 293 290 296 291 289 291 293 292 293 291 292 292 294 295 292 292 291 291 292 293 294 295 296 297 298 299 298 297 297 299 302 304 303 303 303 303 302 302 302 300 300 300 301 302 303 303 303 304
304 303 306 303 298 297 294 292 291 291 291 289 291 291 291 293 292 292 292 294 291 288 289 293 295 297 297 298 299 299 298 299 298 299 298 299 305 304 304 303 303 302 300 303 301 301 298 298 298 299 299 301 303 304
301 307 300 301 295 294 291 296 290 292 289 289 290 291 290 290 290 290 292 291 290 291 292 294 294 295 296 297 298 301 305 307 305 304 301 304 304 305 305 305 303 302 301 299 298 297 296 297 298 299 298 298 299 299
304 301 297 296 291 288 287 294 293 291 287 289 292 289 288 293 292 292 289 290 291 293 295 297 300 300 299 301 304 305 307 307 304 304 304 305 307 303 299 297 295 294 293 294 294 295 295 296 298 298 299 299 299 299
304 295 291 291 291 287 292 290 291 291 291 290 287 287 290 292 295 293 291 293 296 299 301 302 305 305 306 306 305 305 306 305 303 303 304 305 301 293 292 291 292 292 292 292 292 294 295 296 295 296 296 297 296 296
291 292 291 287 291 289 290 291 291 291 289 291 288 288 291 295 291 292 294 297 299 301 303 305 304 304 303 303 304 303 304 302 302 299 295 299 296 293 291 291 292 292 292 292 291 292 293 294 294 294 295 294 294 294
286 290 289 291 289 289 290 289 289 290 292 290 290 294 292 294 293 292 294 299 300 300 302 302 302 301 301 301 301 299 298 300 295 293 292 292 293 292 290 289 289 290 292 291 291 292 293 293 293 294 294 295 295 298
289 292 294 294 293 293 293 296 295 292 292 291 291 295 294 291 293 296 300 301 303 305 304 303 303 302 300 298 298 297 295 294 294 294 293 292 293 293 293 290 289 291 292 293 292 292 293 292 292 293 293 296 296 296
296 298 295 296 295 297 295 295 295 293 295 296 296 293 292 293 294 299 300 302 302 301 301 302 301 299 296 294 294 295 295 294 295 294 293 293 292 291 292 292 292 292 291 291 292 293 292 292 292 291 291 294 294 295
297 301 300 296 297 296 294 293 293 294 296 296 294 294 296 299 301 301 301 300 299 299 296 296 296 295 295 295 294 293 293 293 293 290 289 289 289 290 291 291 291 290 290 290 293 293 293 292 291 291 291 291 293 294
297 300 298 298 296 294 297 296 296 297 300 300 300 299 299 300 302 302 300 299 297 295 294 294 294 294 293 292 292 293 293 292 292 290 288 288 288 289 290 289 289 289 290 292 291 291 292 291 290 290 291 290 290 289
301 302 301 298 296 299 301 303 301 299 299 300 300 300 298 299 301 301 300 298 297 296 295 294 293 293 292 292 291 290 289 291 290 290 290 289 289 289 289 289 288 289 290 291 290 289 289 289 289 289 289 290 290 290
304 302 300 297 298 303 306 303 301 301 302 302 302 305 306 305 301 300 302 301 298 295 295 293 292 293 293 292 292 291 291 290 291 290 290 290 289 289 289 289 289 290 289 289 289 288 288 288 288 288 287 287 288 288
302 303 304 303 300 300 301 301 300 302 304 303 303 305 305 301 296 303 308 305 301 295 292 293 294 292 292 291 291 290 291 290 290 290 290 290 290 289 288 288 289 289 287 286 286 285 284 284 285 284 284 284 284 285

GFSWCAN_sfc_thetae_006.txt.gz
Theta_e
308 307 307 308 308 308 308 308 307 307 307 307 307 307 308 307 307 303 297 302 297 293 294 297 297 294 293 292 289 293 293 299 299 295 295 294 293 298 299 302 301 301 300 299 298 296 293 309 310 303 308 309 311 313
307 308 307 307 307 308 308 307 307 307 307 306 307 307 307 307 307 306 296 298 304 295 294 299 299 301 300 299 294 294 290 293 300 295 296 297 297 298 297 298 307 301 305 300 300 299 307 310 307 310 312 312 312 311
307 307 308 308 307 307 307 307 307 307 306 306 306 307 307 306 307 305 297 295 295 295 294 293 293 299 302 302 303 291 295 298 299 299 296 298 297 300 295 299 304 309 309 305 304 306 307 307 309 310 311 310 311 313
306 306 307 306 307 307 307 307 306 306 305 306 306 306 306 306 307 306 299 298 299 295 289 290 299 297 302 300 301 301 298 298 298 299 295 296 296 301 298 302 302 306 309 305 303 307 309 308 310 311 310 310 310 310
306 306 307 306 307 306 306 307 306 306 305 305 306 306 306 307 307 305 299 300 299 294 289 290 296 298 299 299 299 299 296 295 294 293 295 295 298 298 299 303 302 303 304 302 299 307 306 305 310 314 309 309 310 309
306 306 307 306 306 306 307 306 306 305 305 305 305 306 306 307 306 296 295 298 300 301 295 287 293 295 299 297 297 295 296 296 296 291 292 298 299 301 299 299 302 306 311 309 304 306 307 308 309 310 306 306 307 307
306 307 307 306 306 306 306 306 305 305 304 305 306 306 306 307 299 294 294 300 304 301 294 288 288 296 298 296 297 295 295 296 294 291 293 296 296 302 298 295 301 304 308 309 310 310 304 306 304 307 307 307 307 306
306 307 306 305 305 305 306 305 305 304 304 304 305 306 307 307 303 296 299 305 304 296 294 287 289 291 295 292 292 295 293 293 292 293 293 295 300 302 296 300 302 306 306 306 307 308 306 307 307 307 307 307 306 305
306 306 305 305 305 305 305 304 304 304 304 304 305 305 298 297 292 297 308 306 298 294 290 292 289 288 295 291 293 295 294 289 292 293 298 300 297 295 299 299 302 303 302 303 306 307 307 306 305 306 305 304 303 305
306 305 305 305 305 305 305 304 304 304 305 304 297 296 292 297 308 306 296 291 292 292 291 288 292 288 292 293 292 293 292 290 287 292 301 299 299 302 303 304 304 304 304 305 302 302 303 303 304 304 304 304 306 307
305 305 306 306 305 305 305 304 305 305 302 296 295 295 299 305 296 293 291 291 291 289 291 292 291 289 296 292 292 295 290 289 288 293 297 298 297 301 304 305 305 307 307 305 305 305 305 305 305 305 306 307 307 308
306 306 306 306 306 306 305 306 306 301 300 300 298 299 297 294 289 287 285 288 289 289 293 292 291 292 294 295 293 294 291 290 287 296 296 295 300 303 304 305 305 306 307 307 308 308 309 309 308 308 308 308 309 310
307 306 306 306 306 306 306 305 306 305 304 298 294 289 288 286 283 285 285 289 287 293 294 292 289 294 295 294 294 293 291 288 297 296 294 298 303 305 304 304 305 307 308 308 309 310 309 308 309 309 308 308 308 309
306 306 306 306 306 306 305 306 305 303 297 291 289 285 288 285 290 291 292 292 295 296 295 293 293 293 294 293 293 292 293 296 292 292 292 300 302 304 304 304 303 304 305 306 307 307 307 307 307 307 307 308 307 307
306 306 306 306 306 305 305 306 306 299 294 290 290 285 288 293 296 296 297 295 297 298 296 295 294 294 292 293 293 294 292 291 294 294 299 302 302 303 303 304 304 304 304 303 304 305 306 306 305 305 307 307 309 308
304 302 301 306 306 306 305 303 299 297 294 293 293 292 294 292 293 295 295 295 297 295 295 294 291 290 289 291 292 292 292 289 295 299 301 301 301 302 302 303 304 304 304 303 303 304 304 304 304 304 305 306 308 309
303 296 305 307 306 306 304 297 296 294 293 293 292 296 294 293 292 294 295 294 297 294 291 292 289 288 291 291 291 295 293 296 299 299 299 299 299 300 301 302 303 303 303 303 303 304 304 305 304 303 303 305 309 311
296 299 305 306 305 300 297 296 294 293 292 294 292 293 296 293 291 293 295 296 294 294 294 292 294 292 291 290 292 296 296 297 297 297 299 300 301 302 303 302 303 303 302 303 303 303 303 303 302 302 302 303 305 309
299 301 305 307 304 296 294 294 294 288 290 292 293 293 292 293 293 294 294 297 294 295 294 294 291 292 291 294 293 294 295 296 297 298 299 301 302 304 306 304 304 306 305 303 302 301 302 303 302 301 303 303 303 305
306 307 307 308 303 293 291 289 294 289 288 290 290 290 291 291 292 293 294 295 291 291 291 291 291 293 294 295 296 297 298 299 298 298 298 301 304 305 305 303 303 303 303 303 302 300 301 301 301 301 302 303 304 304
302 302 306 302 296 294 291 290 289 289 289 288 289 289 289 292 292 291 290 292 291 288 291 294 295 297 298 298 298 299 299 299 298 300 301 302 306 306 304 305 303 302 301 299 298 297 297 297 298 300 300 300 301 302
299 306 297 299 293 292 289 292 289 291 288 288 288 289 288 288 290 289 290 290 290 291 292 294 294 295 296 297 298 300 302 304 305 304 300 302 303 305 302 299 296 293 293 294 295 295 296 297 298 299 300 300 300 301
303 300 295 294 289 286 286 292 289 289 286 287 288 286 286 290 291 292 288 289 291 293 295 297 300 302 301 301 304 306 307 307 306 305 304 305 304 297 293 293 293 293 292 293 293 294 295 294 296 297 298 299 298 298
303 295 290 288 287 287 292 290 291 291 290 290 289 287 290 290 295 294 292 295 298 300 303 303 305 305 306 305 303 302 303 303 302 300 301 300 293 292 293 293 293 293 293 293 293 293 294 296 294 296 296 296 297 296
289 288 288 285 286 288 288 290 291 291 289 291 288 287 291 295 292 293 293 297 299 299 301 302 302 302 302 302 301 300 299 301 300 293 295 300 294 292 292 293 293 293 293 293 292 292 293 295 295 295 296 298 299 299
287 288 287 287 286 287 287 289 289 288 291 289 290 293 292 293 294 293 294 298 300 301 302 301 301 300 297 298 296 294 294 294 294 293 293 294 293 293 292 291 291 291 294 293 292 293 294 295 294 295 297 298 295 298
289 294 295 292 291 291 291 293 294 291 291 290 291 292 292 289 292 296 299 300 300 301 303 302 301 297 296 294 294 295 294 294 294 294 293 293 293 294 293 292 292 292 293 294 293 293 294 294 293 294 294 298 298 298
297 297 294 294 294 295 293 294 294 293 294 296 296 293 293 293 293 298 299 302 301 299 297 297 296 295 294 294 294 295 296 295 295 295 294 294 293 293 293 293 293 291 292 292 293 294 294 294 293 293 293 292 295 298
296 299 298 294 294 296 295 293 293 294 295 296 294 294 295 299 300 299 300 297 297 298 296 295 295 295 295 295 294 293 293 292 292 290 290 289 289 291 291 292 291 291 292 293 292 293 293 292 292 293 293 292 293 295
297 299 297 297 295 294 297 296 295 297 298 299 299 298 298 297 299 300 298 297 296 294 294 294 292 292 291 291 291 292 291 290 289 289 288 288 289 290 290 291 290 290 292 292 292 292 292 292 291 292 292 292 292 291
301 300 298 298 296 298 301 304 301 301 301 301 302 300 299 299 301 304 302 298 296 296 294 292 292 291 291 290 290 289 288 290 290 291 291 290 290 290 291 291 291 291 291 291 290 290 290 289 289 288 288 287 288 288
301 301 300 297 298 303 304 300 298 300 302 303 304 304 303 301 297 302 305 303 299 295 294 292 290 289 289 290 290 290 289 289 290 290 290 290 290 289 289 289 289 289 288 287 286 286 286 287 286 285 285 284 284 285
299 300 301 300 299 300 301 300 300 300 303 302 302 303 302 299 296 303 310 306 299 294 292 291 290 289 289 288 288 288 289 289 289 288 288 288 288 287 287 287 287 287 286 285 285 285 284 284 284 284 284 284 284 284

GFSWCAN_sfc_thetae_009.txt.gz
Theta_e
307 307 307 307 308 307 307 308 308 308 307 307 307 307 307 307 307 304 302 303 298 292 293 295 295 292 295 295 290 294 293 299 303 302 303 302 300 305 305 309 306 305 303 301 304 302 299 312 313 310 315 319 320 320
306 306 306 307 307 308 308 308 307 307 307 307 307 306 306 306 306 306 299 303 304 296 294 299 299 300 300 299 296 296 294 294 299 299 303 303 305 307 306 301 311 303 307 304 306 305 312 313 312 317 322 320 321 323
306 306 306 306 306 306 307 307 307 307 307 307 306 306 306 306 306 306 301 301 299 294 295 295 294 300 303 302 303 293 296 300 303 304 302 303 302 308 305 307 306 311 314 308 307 309 309 312 313 315 316 316 319 323
306 306 306 306 307 306 307 307 307 307 306 305 306 306 305 305 306 306 303 303 300 296 289 292 302 299 305 303 302 301 300 302 301 304 302 301 302 308 307 309 310 308 309 308 308 308 310 311 313 314 315 315 315 317
306 306 306 307 307 306 307 306 307 306 305 305 305 306 306 306 306 307 304 303 303 295 289 290 297 302 303 302 301 302 300 298 297 299 298 298 304 305 308 311 302 305 305 306 305 311 312 311 313 312 310 311 314 314
307 307 307 307 306 306 307 306 306 305 305 304 305 305 306 306 305 301 295 301 304 303 292 289 299 299 302 301 301 300 300 298 298 299 299 301 304 307 307 302 303 307 311 313 308 312 310 310 310 312 311 311 312 311
306 307 306 306 306 306 306 306 305 304 304 305 305 305 306 307 304 297 293 298 304 303 294 291 292 300 303 301 300 299 300 300 301 299 297 302 304 309 304 296 303 308 310 311 312 311 307 308 307 310 310 311 311 311
306 306 306 305 305 306 306 305 305 304 304 304 305 306 306 306 304 299 302 305 304 296 296 289 291 297 302 299 298 302 299 299 300 299 303 303 306 307 297 302 305 307 308 308 309 310 309 311 309 308 309 311 310 310
306 306 305 305 306 305 305 305 305 304 304 304 305 305 303 301 296 299 308 306 305 298 292 293 291 293 302 298 299 300 300 296 301 304 304 306 302 296 300 302 304 305 305 306 308 309 309 308 308 309 310 311 310 311
305 305 305 306 306 306 306 305 305 305 305 303 301 298 295 300 307 307 303 297 296 297 296 291 296 293 298 300 299 299 300 298 299 302 308 301 298 305 306 306 307 307 307 307 306 305 307 308 309 310 310 311 312 313
307 307 306 306 306 306 306 306 306 306 304 301 297 296 302 305 301 299 294 293 295 293 296 296 296 294 302 297 297 300 297 298 297 300 301 298 297 302 307 308 309 310 310 311 311 310 311 312 310 310 311 313 315 316
307 307 306 306 306 306 306 306 306 304 302 301 301 303 302 298 295 291 291 293 293 292 298 296 297 298 299 300 298 300 297 298 294 305 301 294 300 306 307 307 309 310 312 313 313 311 311 312 312 312 312 313 314 315
307 306 306 306 306 306 306 306 306 306 305 303 298 294 293 293 287 288 288 291 293 298 299 298 296 299 303 300 299 299 296 296 304 299 294 298 304 306 307 308 308 310 311 311 311 311 312 311 312 312 312 314 315 315
306 306 306 306 306 306 306 306 306 305 301 295 292 287 289 288 290 292 293 294 298 300 299 297 297 298 301 298 299 296 298 300 295 291 291 300 304 305 308 309 309 308 309 309 309 311 310 310 310 312 313 314 315 315
305 305 305 306 307 306 306 306 305 304 298 293 290 285 287 293 297 298 300 298 300 301 300 299 299 299 298 298 299 298 295 292 294 293 297 304 306 308 308 309 309 309 310 310 310 310 310 310 311 311 313 315 316 317
305 303 303 306 307 307 306 305 303 303 299 295 295 293 295 294 295 297 298 297 300 299 302 301 296 294 293 297 295 293 292 289 295 300 304 306 307 308 308 309 309 310 310 310 311 311 311 312 311 312 313 315 316 317
303 302 305 305 306 306 304 302 302 298 297 296 295 299 297 296 296 297 298 298 301 300 296 298 293 291 297 295 293 297 291 295 301 304 306 307 308 308 309 310 310 310 310 310 310 311 312 312 312 312 312 314 313 314
302 304 304 306 307 303 303 302 299 298 294 297 294 296 297 299 297 299 298 300 299 299 299 296 299 295 293 291 292 297 300 304 305 305 307 309 309 310 310 309 310 311 311 312 311 311 312 313 312 311 313 313 313 315
305 306 307 307 306 302 298 298 299 293 295 296 297 298 298 298 299 300 300 301 299 300 300 299 296 293 294 298 299 301 303 304 304 305 305 307 309 310 311 312 311 312 309 310 311 310 310 311 310 310 311 313 312 312
306 306 307 307 306 301 296 297 300 296 294 296 296 295 296 298 299 299 299 299 297 300 299 297 296 299 300 302 303 304 304 305 305 305 304 307 309 310 311 310 309 310 309 309 308 301 307 308 308 308 308 309 309 309
305 306 306 306 303 301 299 297 296 296 296 296 296 297 296 298 297 296 297 298 299 296 297 300 301 303 304 305 305 305 307 306 306 307 307 305 307 309 307 304 303 302 300 300 302 302 301 302 304 306 307 307 308 309
304 306 303 303 298 297 297 298 296 297 296 296 296 297 295 294 295 297 297 297 297 299 300 301 302 303 305 306 307 307 307 308 310 309 303 305 307 304 301 300 300 299 299 299 300 299 301 302 302 303 303 304 303 305
305 303 301 299 294 292 291 298 295 296 292 293 295 293 293 295 298 301 296 296 296 299 302 302 304 307 307 309 311 311 311 311 311 311 311 311 307 300 299 300 300 299 298 298 300 299 299 297 300 301 302 303 303 303
304 298 294 292 293 290 295 294 295 294 294 292 290 288 291 293 298 297 294 299 304 305 307 307 310 311 311 309 307 306 307 310 307 306 310 304 300 299 301 300 300 300 299 299 299 299 299 300 297 300 301 301 303 304
292 291 293 287 292 291 292 292 293 294 292 293 292 294 295 297 297 297 297 303 305 307 308 309 309 308 305 302 302 302 303 302 301 302 305 305 302 301 301 301 301 300 300 298 297 297 298 300 299 299 300 301 301 300
289 294 290 294 294 292 294 293 294 293 294 293 295 298 298 297 295 294 301 305 306 306 306 306 302 301 300 301 300 300 301 302 303 301 301 301 301 300 299 298 297 298 300 299 298 297 298 299 298 298 298 298 295 298
292 297 300 299 298 297 296 298 299 296 295 295 297 298 298 294 294 301 306 307 306 306 305 303 302 300 299 299 300 301 302 301 301 300 301 301 301 300 299 297 296 297 298 298 299 298 298 298 298 297 297 298 298 298
299 299 297 301 297 298 297 299 298 297 298 301 300 296 296 296 295 300 301 301 302 301 301 300 300 300 299 299 298 297 298 299 301 301 301 301 299 298 298 298 299 292 296 299 298 299 299 298 297 297 297 297 297 299
298 303 301 299 298 300 300 299 298 300 302 302 299 297 298 298 298 299 300 301 301 300 298 297 297 299 299 299 298 297 296 296 295 293 292 293 294 296 297 298 298 298 299 299 291 294 295 295 295 295 295 295 296 296
303 305 302 301 299 300 304 303 302 303 304 303 300 299 301 302 305 305 301 299 298 296 297 296 296 296 294 294 294 296 296 295 295 293 291 291 292 295 296 296 296 296 296 296 295 295 292 293 292 293 292 291 291 290
308 307 303 303 302 304 306 310 307 306 305 302 303 300 300 302 304 307 306 303 300 298 296 295 293 293 292 292 291 291 291 293 295 295 295 295 294 294 293 293 293 293 292 292 291 290 290 290 289 289 288 287 287 287
307 305 304 302 305 310 310 306 305 304 304 299 299 302 302 300 297 301 307 305 301 296 294 293 292 290 292 293 293 293 290 292 291 291 291 291 291 291 291 291 291 291 290 289 289 288 288 287 287 286 286 286 286 287
306 307 307 305 305 304 307 306 305 302 302 300 302 303 302 301 297 305 304 300 296 295 295 293 292 292 292 292 292 291 290 291 289 287 288 287 287 287 289 289 289 289 288 288 287 287 286 286 286 286 286 286 286 286

GFSWCAN_sfc_thetae_015.txt.gz
Theta_e
309 308 308 308 308 308 308 308 308 308 309 309 309 308 309 308 308 307 306 310 300 293 294 299 300 296 295 296 292 296 298 298 298 296 296 296 296 300 301 306 306 304 305 304 307 303 300 320 320 313 321 327 328 329
308 308 308 308 308 308 308 308 308 307 309 308 308 308 308 307 307 307 300 307 305 296 296 304 304 305 302 302 298 298 297 296 300 299 302 301 300 306 304 299 311 305 310 307 309 309 322 323 323 325 326 328 329 330
308 308 308 309 309 309 308 308 308 308 308 308 307 307 307 307 307 306 302 306 302 296 297 299 299 306 308 306 306 296 300 302 301 304 299 301 299 306 304 304 310 311 318 313 316 319 319 321 324 326 328 327 332 334
309 308 308 309 308 308 308 308 308 307 307 307 306 306 306 307 306 306 302 306 302 297 290 296 306 304 308 308 306 305 301 307 305 302 299 301 299 309 305 307 314 307 313 318 317 319 320 321 322 324 325 327 328 330
309 308 309 308 307 307 307 307 307 307 306 306 306 306 307 306 304 306 306 306 306 295 290 295 303 308 309 307 306 305 303 302 299 298 297 299 306 306 310 311 301 308 308 311 311 320 320 317 320 322 320 320 322 324
308 308 308 308 308 308 307 307 307 306 306 306 306 307 306 306 306 304 298 305 306 306 295 291 303 305 309 307 307 306 305 303 303 297 299 302 308 306 304 300 306 311 315 320 317 321 318 317 317 317 315 317 318 319
308 308 308 308 308 308 307 307 307 306 306 306 306 306 306 307 306 301 298 302 307 307 294 290 295 305 310 309 307 307 307 304 302 298 300 302 303 300 302 298 307 310 316 317 319 317 312 314 312 316 316 317 316 317
308 308 308 308 308 307 307 307 307 307 307 306 306 307 307 307 306 301 306 306 306 299 296 291 294 302 309 303 302 307 303 303 302 303 302 300 301 305 298 304 307 310 312 312 314 316 316 315 314 316 314 315 315 315
308 308 308 308 308 307 308 308 308 308 308 308 308 308 307 304 300 308 307 307 307 298 290 289 288 292 307 302 304 304 305 297 305 298 297 299 298 295 301 303 304 306 307 308 311 310 310 309 309 311 313 313 311 315
308 308 308 308 308 308 308 308 308 307 307 309 308 301 299 306 306 310 305 299 297 298 297 293 301 298 303 303 301 301 301 298 292 297 304 299 296 304 306 307 308 309 308 308 305 305 307 308 310 309 311 314 316 315
307 307 308 308 308 308 308 308 308 307 309 307 303 302 307 312 308 303 297 295 297 294 300 301 303 301 306 300 299 304 300 300 293 299 299 295 292 302 308 309 311 311 311 311 311 311 310 311 311 312 313 314 316 318
307 307 307 307 308 308 308 308 308 308 307 304 303 306 307 304 300 295 294 297 297 294 300 302 303 305 305 307 303 302 299 299 293 303 298 290 298 306 308 309 311 313 312 313 312 309 311 313 315 314 315 315 316 319
307 307 307 307 307 307 307 308 308 308 307 308 304 301 301 301 291 291 290 293 295 302 304 306 303 307 308 307 304 304 297 297 306 299 292 296 302 308 310 310 310 313 313 313 312 314 314 314 314 314 315 318 319 319
307 307 307 307 307 307 308 308 307 308 307 300 298 290 292 292 296 299 299 300 305 304 305 305 303 304 307 303 304 297 302 302 296 291 293 300 304 306 311 313 311 311 312 312 312 312 312 312 313 316 318 318 318 319
307 307 307 308 308 308 308 308 307 312 308 300 299 288 295 299 303 302 303 303 306 308 307 304 304 306 303 302 303 302 298 293 293 292 299 305 307 309 310 311 312 312 312 312 312 312 313 313 314 315 317 319 320 321
306 307 310 308 308 307 307 310 314 314 310 306 301 297 301 299 299 302 303 304 309 309 309 306 303 301 300 300 297 293 292 288 293 299 306 310 308 312 314 314 314 315 314 314 314 313 313 314 314 315 316 316 317 320
306 309 308 308 307 307 310 311 313 305 304 299 298 303 302 300 300 304 305 306 311 307 303 304 299 297 303 297 295 295 291 294 301 303 308 313 312 314 315 315 316 315 315 316 315 315 316 316 316 315 314 315 316 317
308 310 308 308 308 311 316 312 308 304 298 301 299 301 303 304 304 305 307 309 308 307 306 302 304 299 296 293 295 300 303 307 311 313 315 316 317 317 317 316 316 317 316 316 316 318 318 316 313 312 315 315 316 315
308 309 308 308 309 308 306 307 308 300 301 302 303 305 304 305 308 309 309 310 311 310 308 304 300 297 297 301 303 305 307 311 312 315 316 317 318 317 316 316 316 316 315 314 314 312 313 315 312 312 312 313 312 312
306 308 308 308 310 310 302 306 310 303 300 302 304 303 304 304 307 308 308 308 307 305 302 298 299 302 303 307 309 309 312 315 316 312 312 311 312 313 313 312 311 313 312 313 311 304 311 310 311 310 310 310 311 310
310 313 310 312 314 311 308 305 305 305 305 302 305 304 303 307 305 306 306 309 305 304 303 307 309 312 315 317 316 316 315 314 312 313 312 310 311 311 310 311 311 310 308 308 307 307 306 307 307 307 308 309 309 309
312 309 313 314 310 309 308 309 305 306 303 303 305 306 302 300 303 302 308 305 302 305 308 308 312 315 314 313 315 316 315 316 317 313 307 311 311 309 308 308 308 307 307 307 306 305 305 305 306 306 306 306 305 308
309 310 312 311 305 302 302 312 304 304 300 301 306 301 300 302 306 309 302 303 306 310 316 314 312 312 310 310 311 309 313 312 307 308 308 309 309 309 308 308 308 306 304 305 306 305 304 300 303 304 305 305 305 306
305 307 305 305 306 301 310 306 310 307 307 303 303 299 303 305 310 302 298 303 310 314 310 313 309 307 309 310 306 305 306 307 306 307 307 306 306 307 309 308 307 307 306 305 304 304 303 303 300 304 304 303 304 304
299 298 306 296 309 305 302 303 303 306 300 303 301 302 305 308 302 299 298 304 309 306 306 307 307 306 304 304 304 304 306 304 303 303 305 305 305 305 306 306 307 305 306 304 302 302 302 303 303 303 303 303 302 301
295 306 300 306 307 304 304 300 301 301 303 301 302 308 310 307 298 298 300 305 303 305 305 305 304 304 303 303 302 301 301 303 303 302 303 304 303 302 301 300 300 302 304 303 301 301 300 302 302 302 301 301 297 300
299 304 313 316 311 310 307 310 310 307 300 300 304 303 303 297 295 296 300 300 300 304 306 306 305 303 302 303 303 303 302 302 302 301 303 304 305 304 302 299 298 299 302 303 302 301 300 299 299 299 298 299 299 299
310 310 306 310 310 313 305 305 302 301 302 307 305 300 298 296 294 300 302 305 306 306 304 305 305 304 303 302 303 301 301 301 302 302 302 303 303 302 302 301 301 294 300 300 299 299 298 296 295 295 296 295 296 297
310 314 313 308 308 307 307 303 303 306 308 306 303 298 295 300 303 303 304 304 304 303 302 302 301 303 303 302 301 300 300 298 295 293 293 294 294 296 298 298 298 298 298 298 291 294 295 294 294 294 295 296 296 295
309 314 308 307 305 305 308 310 308 310 309 307 305 302 301 302 305 311 311 311 308 305 304 303 302 301 298 297 296 297 298 297 295 293 290 290 292 295 295 295 296 296 296 296 295 296 293 294 294 295 293 293 292 292
311 309 307 308 307 311 310 311 312 310 308 307 307 302 300 303 309 313 307 307 305 304 302 300 300 299 296 295 295 293 293 296 295 294 292 292 293 293 294 294 295 295 295 294 294 294 293 292 292 291 290 290 290 290
310 306 307 302 306 312 312 311 308 307 307 305 304 304 303 303 300 306 305 304 302 300 298 299 297 296 297 297 296 296 291 296 294 293 291 290 291 292 293 293 293 294 293 293 293 293 292 291 290 290 289 289 288 289
309 308 307 306 306 304 310 310 307 305 305 305 306 308 306 304 299 303 307 306 302 300 299 299 299 298 298 297 296 296 294 296 290 287 287 286 285 287 291 293 293 293 293 293 292 291 290 290 289 289 288 288 288 289

GFSWCAN_sfc_thetae_018.txt.gz
Theta_e
309 309 310 310 310 310 310 309 309 309 309 309 309 309 309 309 309 308 306 310 302 294 295 299 299 295 295 295 290 295 293 298 297 291 290 291 292 297 298 302 304 302 301 302 306 302 300 321 318 310 322 327 325 327
309 309 310 310 310 309 310 309 309 309 308 308 309 308 308 308 308 307 302 310 310 298 295 301 302 304 303 301 297 297 294 295 298 297 298 298 294 298 300 295 306 300 306 303 307 307 326 325 325 327 328 328 331 332
309 310 309 310 309 309 309 309 309 308 308 308 307 307 307 307 308 307 305 308 302 294 296 298 299 305 307 305 305 295 297 300 299 305 300 300 297 304 299 301 306 310 314 309 310 318 321 324 326 329 330 331 332 334
309 309 309 309 309 309 309 309 308 308 308 308 308 307 307 308 306 306 304 306 301 296 290 295 305 303 309 307 306 305 302 303 304 304 297 299 299 306 300 301 301 310 311 313 316 321 321 323 325 327 328 329 328 330
309 309 309 309 309 309 308 308 308 308 307 307 307 307 307 307 306 306 306 305 307 296 290 294 301 306 308 307 305 306 303 300 298 296 298 297 305 303 304 304 300 306 309 310 313 314 318 321 323 324 322 323 325 324
309 309 309 309 309 309 308 308 308 307 307 307 307 307 306 306 308 304 297 306 309 304 294 289 303 304 308 307 304 304 303 302 300 300 298 300 306 303 299 298 306 311 314 319 314 314 316 316 318 318 318 318 319 320
309 309 309 309 309 309 309 309 309 309 309 309 308 307 307 307 305 301 296 302 306 308 295 290 294 305 310 306 305 304 304 302 306 300 297 300 302 303 302 298 306 310 314 314 315 315 311 314 313 317 317 319 319 319
308 308 309 309 309 309 309 308 309 309 309 309 309 309 309 308 306 300 306 306 306 299 296 289 293 301 308 303 299 306 302 303 301 300 302 300 302 303 299 305 308 309 312 313 314 315 314 315 317 316 314 316 317 317
308 308 308 308 308 308 308 308 309 309 309 309 309 310 308 304 301 308 309 306 307 299 291 292 289 291 305 304 304 303 304 298 304 299 298 299 298 296 301 303 305 308 308 308 311 312 311 311 311 312 316 316 312 314
308 308 308 308 308 308 308 308 309 309 308 309 309 305 299 310 310 310 305 298 296 297 295 291 297 294 302 303 301 299 301 299 293 295 301 296 295 303 305 307 308 308 309 311 308 307 308 309 308 308 308 313 315 316
308 307 307 307 308 308 308 308 308 308 308 308 304 302 307 313 307 301 296 295 296 292 297 300 304 300 307 300 300 304 299 298 288 295 296 291 292 300 307 307 308 310 311 311 311 311 312 311 311 308 308 311 312 316
308 308 308 308 308 308 308 308 309 309 308 305 304 308 309 305 302 295 294 296 293 290 301 300 304 305 305 307 301 304 298 299 289 302 295 289 297 305 307 308 310 312 311 309 310 311 314 314 314 314 315 315 316 318
307 307 308 308 308 308 308 308 309 308 308 310 306 303 301 302 293 292 288 293 295 302 304 305 303 305 307 306 301 301 295 295 301 295 292 294 301 306 308 310 311 313 313 313 312 313 313 314 316 315 315 316 319 319
307 307 307 308 308 308 308 308 309 310 309 303 299 292 298 295 297 297 299 300 305 305 303 306 302 303 306 302 303 294 299 302 294 290 293 301 304 307 309 312 310 309 312 312 313 313 312 313 315 317 317 319 319 319
307 307 307 309 309 308 308 308 309 313 308 303 302 293 298 302 304 304 305 305 307 308 307 305 301 303 303 301 302 299 296 290 289 292 298 304 307 312 311 310 311 311 311 313 312 312 312 313 314 316 317 318 321 321
307 307 311 308 308 308 307 311 315 316 312 306 304 299 301 300 300 302 304 304 310 308 309 307 302 299 298 299 295 292 291 287 291 299 305 307 310 312 315 314 314 313 313 314 313 314 316 316 315 316 317 317 317 321
306 310 308 308 308 307 310 312 313 306 304 300 299 303 302 302 302 303 306 307 311 307 303 302 298 297 302 295 291 292 289 295 299 305 308 310 312 315 315 316 314 316 317 316 315 318 314 319 319 317 317 320 320 320
309 312 309 308 308 311 315 312 308 304 299 301 300 302 306 307 306 307 307 309 307 307 306 301 304 298 295 292 294 301 303 306 306 308 312 315 317 317 316 315 316 317 317 317 318 317 317 317 311 310 313 315 316 314
308 309 307 307 309 308 308 307 309 300 302 304 305 306 306 308 309 310 310 311 311 310 307 304 299 297 300 304 305 309 311 312 312 315 317 318 319 318 318 318 318 315 315 315 313 311 312 316 312 311 310 311 311 312
306 308 309 309 309 311 305 307 311 304 300 303 305 304 306 306 309 310 310 311 309 308 304 302 302 306 307 311 314 313 315 317 314 312 310 310 313 315 315 314 311 315 311 314 311 305 309 308 308 308 308 308 309 308
310 315 312 313 314 312 309 306 306 305 305 303 307 307 305 308 306 306 307 309 305 304 303 309 310 313 315 317 315 316 318 315 310 313 313 309 311 311 310 310 312 309 308 307 306 305 304 304 305 305 306 306 307 307
315 310 316 316 311 310 307 311 307 308 306 306 307 307 303 302 304 303 307 305 305 307 310 312 312 307 308 310 310 310 312 316 318 309 305 307 308 307 307 307 307 306 306 305 305 304 304 304 304 304 305 305 304 307
311 312 315 314 308 303 302 314 305 306 302 304 307 303 304 304 307 309 302 305 308 315 316 312 315 317 312 313 311 309 310 310 307 306 305 306 308 309 307 308 307 306 305 305 305 304 303 300 302 303 305 305 305 305
307 311 308 308 309 302 311 307 309 307 307 305 304 301 304 307 312 305 300 303 309 312 308 313 309 307 308 309 304 304 305 306 305 306 305 304 303 305 307 306 306 306 305 305 304 303 303 303 300 303 304 303 303 303
302 302 306 294 312 306 303 304 304 304 301 303 302 302 306 309 303 300 298 302 303 304 306 308 307 306 303 304 304 304 307 302 301 301 303 305 304 303 303 304 303 302 303 301 301 301 301 302 302 302 302 301 301 301
295 309 300 306 307 304 304 301 302 302 303 301 302 306 308 304 298 295 297 300 302 303 304 304 303 303 303 303 302 301 301 302 302 300 301 303 303 301 300 299 298 298 301 302 300 299 299 300 298 298 298 298 296 298
299 304 312 317 312 309 307 307 308 304 302 300 304 304 302 296 293 296 302 303 302 305 306 306 305 304 302 302 302 302 302 302 301 299 302 303 302 301 299 297 295 296 299 299 298 297 296 296 295 294 295 296 297 297
311 312 307 306 308 310 303 305 304 302 303 306 307 300 297 295 294 300 302 307 307 308 307 306 306 304 303 301 301 300 300 299 299 299 299 300 300 299 299 298 298 294 298 297 297 297 296 295 294 294 294 295 295 296
311 312 312 306 308 307 306 304 303 306 308 306 304 300 297 301 303 305 308 308 309 308 305 302 302 303 301 300 300 299 298 296 293 291 290 290 292 293 296 297 297 297 297 297 292 294 294 294 294 294 294 294 294 294
309 313 307 306 305 304 306 309 306 309 308 307 305 304 304 306 309 312 311 308 304 303 303 302 301 299 297 296 296 296 297 297 295 292 288 288 290 293 295 295 294 295 295 295 295 295 293 294 293 294 292 292 292 291
313 312 308 309 306 308 310 312 310 310 309 307 307 304 303 304 308 307 306 305 304 302 301 299 299 298 296 295 295 294 292 296 295 293 292 292 293 293 294 294 294 295 295 295 294 294 292 292 292 291 291 290 290 290
310 307 305 303 308 312 313 310 309 306 305 304 305 306 305 303 301 307 306 304 302 299 298 299 297 297 298 298 297 297 293 296 294 293 292 291 292 293 293 294 294 294 294 293 293 292 292 291 290 290 290 289 290 290
309 308 308 306 307 306 311 311 309 306 306 305 304 305 303 303 299 301 308 305 302 300 298 299 299 299 299 298 297 296 296 295 291 287 287 286 285 288 291 293 293 293 292 292 292 291 291 290 290 290 290 290 290 290

GFSWCAN_sfc_thetae_021.txt.gz
Theta_e
310 310 311 310 310 310 310 310 310 309 309 309 309 309 309 309 309 308 303 308 300 293 294 296 296 293 294 293 288 294 292 292 292 288 288 289 287 291 294 298 298 298 293 296 298 294 292 316 314 308 311 319 323 321
310 310 310 310 310 310 310 310 310 310 310 309 309 308 308 308 308 308 300 308 307 297 295 300 300 301 299 298 295 295 293 293 295 292 294 294 291 294 296 293 302 296 301 300 303 306 315 321 320 321 327 326 327 329
310 310 309 309 310 310 310 310 310 310 310 309 308 308 308 308 308 307 304 305 303 295 293 295 295 301 303 302 303 292 295 298 297 301 296 296 292 299 292 297 301 304 310 305 306 311 315 319 321 327 326 325 325 328
310 310 310 310 309 310 310 309 309 309 309 308 308 308 308 308 308 306 302 306 301 296 288 291 302 299 304 304 303 301 299 299 301 298 294 295 294 302 298 299 300 304 307 306 307 313 314 321 324 324 324 324 323 323
309 309 309 309 309 310 309 309 309 309 310 309 309 308 308 307 308 306 305 304 304 295 289 290 297 302 304 303 302 303 300 299 297 292 295 295 300 300 302 302 301 306 306 304 305 309 310 312 319 322 320 320 320 318
309 309 309 309 309 309 309 309 309 309 309 310 309 309 309 308 308 303 296 305 307 303 293 287 298 299 304 306 305 302 301 300 298 298 297 299 304 300 296 296 304 307 310 313 312 313 311 312 312 315 314 315 318 318
309 309 309 309 309 309 309 309 309 309 309 310 310 310 310 309 305 299 296 302 306 305 294 289 290 301 306 307 301 301 301 299 302 300 297 297 299 303 299 295 305 310 314 314 315 314 310 312 309 312 316 317 317 318
308 309 309 309 309 309 308 308 308 308 309 309 309 309 310 309 307 301 303 305 305 300 296 288 289 297 306 301 298 304 299 302 301 299 299 298 300 301 297 303 307 309 313 313 313 314 314 315 315 314 314 313 312 312
308 308 308 308 308 308 308 308 308 309 309 309 309 309 308 304 300 303 310 307 306 299 291 291 287 289 304 300 303 302 302 296 302 298 297 297 297 295 300 304 305 308 308 308 310 310 310 308 309 311 313 314 312 310
308 308 308 308 308 308 309 309 309 309 309 309 308 305 300 305 312 309 304 297 296 296 294 288 293 288 299 300 299 299 301 297 291 294 300 294 295 302 305 307 307 308 310 311 307 306 307 305 306 307 307 311 314 312
308 308 308 308 308 308 309 309 309 309 309 309 304 301 306 312 306 300 294 292 293 291 293 293 296 291 304 296 297 301 297 295 286 292 294 290 292 299 306 305 308 310 310 310 311 311 311 307 307 308 308 312 315 315
308 307 307 308 308 308 309 309 309 308 307 304 302 306 307 306 303 296 293 292 289 288 298 298 301 303 304 306 298 300 295 295 290 301 293 288 296 303 305 305 306 308 309 309 311 310 312 313 313 313 314 315 315 318
307 307 307 307 308 308 309 309 309 309 309 312 305 303 302 301 292 292 290 292 292 299 301 302 300 303 304 302 299 299 294 294 302 294 288 292 299 302 306 308 308 310 311 311 312 313 313 314 316 316 315 316 317 317
307 307 307 307 308 309 309 308 309 309 308 304 301 290 297 295 296 296 297 298 302 303 304 305 302 302 303 300 299 296 299 298 291 287 288 299 304 307 308 310 309 309 311 311 312 313 313 314 315 316 317 317 317 316
307 307 307 308 309 309 309 308 309 312 309 304 302 289 297 301 303 303 305 304 306 307 308 306 305 304 302 300 300 297 292 288 290 291 297 303 306 308 308 310 310 310 309 309 311 312 312 313 314 314 316 316 318 318
308 307 310 309 309 308 308 310 315 314 314 307 304 299 302 301 301 303 304 303 307 307 307 305 302 298 296 296 292 290 289 286 291 299 303 306 307 308 309 310 311 312 312 310 310 311 315 314 313 312 314 315 317 318
307 306 310 309 308 308 311 311 316 309 305 302 300 306 305 303 302 305 306 305 309 305 298 301 296 295 299 292 290 293 290 295 299 302 306 307 308 310 311 311 313 313 312 310 313 312 312 311 311 314 310 313 312 315
307 311 310 308 307 310 317 314 310 305 300 304 301 304 304 308 305 306 308 310 307 305 303 300 303 296 294 293 295 300 301 303 305 305 308 308 310 312 313 312 314 312 311 310 312 311 310 307 306 307 307 311 310 308
306 307 307 307 308 306 309 310 312 302 302 304 305 307 308 308 310 310 310 310 310 310 306 303 298 296 296 301 301 303 305 305 305 307 309 312 313 312 314 314 314 312 311 308 306 306 305 304 303 303 304 304 305 306
307 308 309 310 310 309 307 309 316 306 301 305 307 305 307 307 309 308 307 308 307 304 300 298 299 301 302 305 308 307 308 310 308 305 308 309 310 311 312 309 309 309 307 306 304 302 302 302 302 302 303 303 302 303
311 314 313 315 315 312 308 306 306 307 304 304 306 307 307 307 305 304 305 308 304 302 300 304 303 304 306 305 305 305 305 312 308 306 307 306 310 310 310 309 308 305 303 303 302 302 300 300 300 301 303 302 302 304
315 312 315 319 313 312 310 314 308 311 309 307 307 307 305 303 303 304 308 303 302 306 307 307 307 305 303 302 302 303 304 307 307 303 302 304 304 304 304 305 305 303 302 302 301 300 300 301 300 301 302 302 302 302
312 312 314 315 309 302 302 316 308 308 304 305 307 303 304 305 306 309 302 305 305 310 309 309 311 311 308 308 305 303 303 303 302 303 303 303 304 304 305 303 301 300 300 301 302 301 300 299 301 301 302 302 302 302
308 311 309 309 308 301 313 307 311 308 308 305 305 301 304 307 312 305 299 301 303 306 305 305 306 304 305 305 302 301 301 301 300 301 301 301 302 301 301 300 299 299 299 301 301 300 300 300 298 299 299 299 299 298
301 301 304 292 311 308 305 305 305 305 302 305 303 302 300 304 300 299 297 298 302 303 304 305 304 304 301 300 300 300 301 299 298 297 299 301 301 300 299 299 297 296 298 298 296 296 297 296 295 295 295 295 295 295
293 309 299 307 305 304 304 302 304 303 303 302 303 307 305 301 296 293 296 300 301 303 303 304 302 301 300 300 298 298 298 299 297 295 296 300 298 296 295 293 292 293 297 297 295 294 294 294 293 293 293 294 293 294
299 301 308 307 305 307 305 308 308 304 301 300 304 303 302 294 292 296 302 305 304 306 307 306 304 301 299 298 299 299 298 297 296 295 297 297 296 296 295 293 292 293 297 296 295 295 293 292 292 292 293 294 293 293
304 307 305 307 307 309 305 304 302 301 300 304 304 298 295 294 294 301 304 307 308 308 307 307 307 301 299 298 298 298 297 296 296 295 295 295 295 295 296 296 296 293 296 295 295 295 293 293 292 292 292 291 291 292
307 312 309 306 306 306 305 303 302 303 304 303 300 297 297 302 305 305 307 309 310 306 303 300 299 300 298 298 298 297 296 294 291 288 286 287 289 290 294 294 294 294 294 294 292 293 294 293 293 292 292 291 291 291
310 313 308 307 303 303 305 307 305 306 306 304 304 303 303 304 307 310 306 304 302 300 300 300 299 297 295 294 294 294 295 294 292 289 286 286 288 291 293 293 293 293 294 294 293 293 293 293 292 292 291 290 290 289
311 310 309 308 305 308 309 310 309 308 308 306 306 303 302 305 307 308 306 305 302 301 299 297 297 297 295 294 293 292 291 293 292 292 291 291 291 291 292 292 293 293 293 293 292 292 291 290 290 290 289 289 289 289
309 307 306 304 307 311 313 309 307 306 306 306 304 304 304 304 302 305 307 304 300 298 297 297 296 295 296 296 296 296 294 293 292 292 291 291 291 292 292 292 292 292 292 292 291 291 291 290 289 289 289 289 289 289
309 308 308 306 307 309 311 310 308 306 305 304 304 305 303 301 297 302 307 304 301 298 297 297 298 298 298 296 296 296 294 294 291 289 288 288 287 288 290 291 291 292 291 291 291 291 290 290 289 289 289 289 290 290

GFSWCAN_sfc_thetae_024.txt.gz
Theta_e
310 311 310 310 310 310 310 310 310 310 309 310 309 309 309 309 308 301 297 302 297 293 292 295 294 291 291 288 286 288 290 289 287 286 287 285 284 286 288 295 296 295 295 294 295 293 290 310 312 302 307 317 318 320
310 310 310 310 310 310 310 310 310 310 309 309 309 309 309 309 308 307 297 301 302 296 292 298 298 299 297 295 291 289 290 291 293 287 287 290 288 289 288 288 301 294 299 298 299 300 307 315 316 323 325 323 323 325
310 310 310 310 310 310 310 310 310 310 309 309 309 309 309 309 308 307 298 299 301 295 294 292 291 297 299 298 300 290 292 295 294 298 290 290 286 295 289 293 298 303 308 302 303 308 309 310 313 321 322 320 322 323
309 310 310 310 310 310 310 310 310 310 310 309 309 309 309 309 308 307 297 301 300 295 287 289 297 294 299 297 298 298 296 298 297 297 289 287 287 297 294 296 298 302 306 304 304 308 311 310 311 316 319 319 318 318
309 309 309 309 309 309 310 309 309 310 310 310 309 310 310 310 309 304 300 300 303 295 288 290 295 297 298 300 298 298 297 295 292 290 290 290 296 296 300 299 300 304 303 301 302 309 305 308 312 319 315 315 315 315
308 308 309 309 309 309 309 309 309 309 309 309 310 309 310 310 309 297 294 303 305 302 293 287 292 294 298 302 300 297 297 295 295 292 293 296 301 298 293 295 302 306 308 309 309 312 310 313 313 313 313 314 316 315
308 309 308 309 309 309 309 309 309 309 309 309 310 310 310 309 305 296 294 300 306 302 292 288 288 294 302 301 299 296 298 295 296 296 295 297 298 300 297 293 302 308 313 313 315 314 310 312 310 313 313 314 316 317
308 308 308 308 309 309 309 309 310 310 310 310 309 310 310 309 308 301 304 306 305 298 296 288 288 292 304 298 297 301 295 300 299 297 298 297 299 300 294 300 305 310 311 312 313 314 313 314 313 313 314 313 312 313
308 308 308 308 308 308 309 309 309 310 310 310 310 310 306 303 299 301 309 307 305 298 290 290 287 287 301 300 301 301 301 294 301 296 297 297 296 294 300 303 305 307 307 307 309 309 310 309 309 311 312 312 310 310
308 308 308 308 308 308 308 309 309 309 309 310 305 300 296 301 311 309 303 297 295 296 294 286 292 289 295 299 297 297 300 295 291 294 298 293 294 301 304 306 308 308 309 310 305 304 306 306 306 307 309 312 314 314
308 308 308 308 308 308 308 309 309 309 308 300 296 295 301 311 304 300 293 288 290 287 289 288 291 290 301 295 293 300 294 293 286 292 292 290 292 299 304 305 308 310 310 310 310 310 308 307 308 309 311 313 315 315
308 308 308 308 308 308 308 309 309 303 300 300 301 303 300 299 298 296 292 289 286 287 295 295 296 296 300 304 296 297 290 291 289 300 291 287 295 301 303 304 306 308 309 310 311 311 313 314 312 313 314 314 315 317
307 307 307 307 308 308 308 309 309 308 307 303 299 299 296 294 290 291 288 290 293 298 300 301 300 301 302 300 297 297 293 293 301 290 286 291 299 302 305 307 308 309 310 311 311 313 314 315 315 314 313 314 315 316
307 307 307 307 307 308 309 309 309 307 302 298 295 289 292 292 294 295 297 298 302 302 303 303 301 301 302 299 300 295 295 296 290 287 290 300 304 305 307 309 309 309 311 311 312 313 313 312 313 314 314 315 315 314
307 307 307 307 309 309 309 308 309 304 302 297 295 286 292 297 300 302 304 303 304 304 303 302 301 299 297 296 296 295 291 287 287 288 297 303 305 306 306 308 308 307 307 307 309 310 310 311 311 313 315 315 317 315
308 307 306 309 309 308 308 308 308 306 304 301 299 297 300 298 299 302 303 302 306 304 302 300 297 296 295 294 292 289 289 287 293 299 302 305 305 306 307 309 308 308 307 308 307 306 307 307 305 306 309 310 313 312
307 301 308 309 308 307 309 306 307 304 299 299 296 302 299 300 299 301 302 302 306 303 298 297 295 294 298 294 293 294 292 296 300 302 304 304 305 307 308 307 309 307 307 303 303 302 301 302 302 301 301 305 307 310
301 305 308 307 307 306 306 307 303 302 299 299 295 299 301 301 300 301 302 303 302 299 300 297 301 295 293 290 293 298 301 303 305 305 305 306 307 308 309 307 306 304 302 301 300 300 300 299 299 299 300 302 304 303
303 305 307 308 306 303 303 303 304 297 299 300 299 301 300 301 302 305 304 304 303 302 298 298 294 292 293 298 299 301 303 302 303 304 306 307 305 307 304 305 304 300 299 298 298 297 296 295 295 297 299 298 297 299
307 309 310 310 309 303 302 300 305 298 297 300 301 300 300 300 302 303 303 303 300 297 295 292 293 297 295 293 295 299 302 304 298 297 298 302 305 303 302 302 299 297 298 296 296 296 296 296 297 297 297 298 298 297
309 310 312 310 307 305 302 299 299 300 300 299 300 300 299 300 299 300 300 300 298 297 294 295 293 295 297 297 297 297 297 298 295 296 295 296 299 298 300 301 300 298 297 295 294 294 295 294 295 297 297 298 298 298
308 312 308 312 306 306 302 304 300 302 300 299 299 300 297 296 296 297 298 297 296 300 302 301 299 297 296 295 295 295 295 296 296 297 297 297 297 295 295 296 297 295 295 294 294 294 295 296 297 297 298 297 298 297
309 308 307 309 303 295 297 306 301 301 297 298 300 299 299 299 299 302 295 296 298 300 301 299 299 299 298 298 295 295 294 294 294 294 294 294 295 295 294 294 295 296 294 294 295 295 293 293 293 293 294 294 293 294
309 304 303 302 302 295 305 301 304 304 303 301 297 295 297 299 303 298 293 296 299 302 299 299 299 298 296 294 292 293 294 293 292 293 294 294 293 292 292 291 292 293 292 292 292 292 291 291 291 291 291 291 292 291
297 297 301 290 303 301 302 301 302 299 296 299 297 295 294 296 297 295 292 293 296 297 297 298 298 299 292 290 290 291 291 291 289 289 292 292 290 291 290 289 289 290 290 290 289 289 288 289 289 289 290 291 290 290
294 304 297 302 299 298 298 298 298 300 299 298 298 297 297 295 292 289 291 294 295 296 297 296 295 294 291 290 288 288 287 288 289 288 287 289 289 288 286 286 286 288 290 289 289 288 288 289 289 289 289 289 290 289
294 298 301 303 302 301 300 301 303 298 296 296 299 297 295 292 289 292 296 298 299 302 304 302 298 290 290 289 289 289 288 290 287 286 287 288 288 289 287 286 285 286 289 290 290 289 288 288 288 288 288 287 287 288
301 302 300 303 304 304 300 298 297 294 295 297 297 293 292 292 290 295 298 303 304 302 301 295 293 292 290 289 289 288 287 287 287 286 286 286 287 287 288 288 288 291 289 289 289 289 288 288 287 288 287 286 286 287
302 305 306 301 303 302 300 298 296 296 297 296 294 292 293 296 299 299 300 301 298 296 292 290 289 290 290 290 290 288 287 285 284 282 282 281 282 284 287 288 288 289 288 288 291 291 291 288 288 287 287 286 286 286
307 307 302 303 300 298 300 301 299 299 298 298 298 297 297 298 301 303 298 295 293 290 290 291 289 289 287 287 286 285 286 285 284 283 281 281 282 285 286 286 287 287 287 288 287 287 290 288 288 286 286 285 284 284
309 307 304 303 301 301 302 303 302 302 300 298 299 299 298 298 300 302 297 294 292 291 290 289 289 289 288 287 286 284 283 285 286 285 285 284 284 285 286 286 286 286 286 287 286 286 286 285 285 285 285 285 286 286
303 301 300 301 301 305 306 302 301 300 301 299 298 300 299 298 296 299 297 295 292 290 292 290 288 287 288 288 289 288 289 286 286 286 285 285 285 286 285 286 286 287 287 287 287 286 286 285 285 285 285 286 286 287
303 304 303 302 303 304 305 304 304 300 299 299 300 302 301 298 292 295 297 295 292 291 290 290 291 291 290 290 290 289 290 287 288 289 288 288 287 286 284 285 286 287 287 287 287 287 287 286 285 286 286 286 286 286

GFSWCAN_sfc_thetae_027.txt.gz
Theta_e
310 310 310 310 311 311 310 310 310 310 309 309 309 310 309 309 309 302 298 300 297 292 292 294 294 291 290 289 285 286 286 286 284 284 284 285 282 286 284 289 288 290 291 289 290 289 286 310 310 305 309 316 315 314
310 310 310 310 310 310 310 310 310 311 310 310 310 310 309 309 309 307 296 303 303 296 293 296 297 297 295 294 290 290 286 287 288 285 286 286 286 288 284 283 293 288 295 293 295 295 305 309 312 313 314 316 319 319
309 309 309 310 310 310 310 310 310 310 310 310 309 310 310 310 309 307 301 298 298 294 294 293 291 297 298 298 299 290 291 292 290 296 291 290 286 290 286 287 290 295 301 297 301 305 309 313 314 315 317 315 316 320
308 309 309 309 309 309 310 310 310 310 310 311 310 310 310 310 310 309 299 297 298 295 287 288 296 292 297 296 297 297 295 294 298 297 291 288 287 293 288 291 292 297 300 298 301 307 310 313 312 315 316 316 317 317
308 309 309 309 309 309 310 309 310 310 310 311 311 311 310 310 310 308 301 301 301 294 288 289 295 296 297 296 295 295 294 293 292 291 290 288 292 291 291 291 293 301 299 298 298 307 306 308 312 315 314 314 315 315
308 308 308 309 309 309 309 309 309 310 310 310 311 311 310 310 310 300 292 299 302 301 292 287 291 293 296 297 298 294 294 292 292 291 291 294 297 293 289 286 295 303 307 307 306 310 311 312 313 314 314 316 317 316
308 308 308 308 308 309 309 309 309 310 310 310 310 311 310 310 306 296 294 300 305 303 292 288 289 294 298 299 298 296 295 291 292 292 292 292 293 295 288 290 298 302 308 310 312 312 309 311 310 313 314 316 317 317
308 308 308 308 309 309 309 309 309 309 310 310 310 310 310 309 308 302 305 306 305 298 295 287 287 291 303 297 295 301 292 295 294 295 296 294 297 297 290 297 305 307 310 313 313 314 312 313 313 311 313 314 312 313
308 308 308 308 308 308 309 309 309 309 310 310 310 310 306 303 299 300 309 307 305 297 288 289 286 287 298 297 299 299 300 293 298 294 296 296 292 287 296 302 304 307 308 308 310 310 310 309 308 310 311 310 309 309
308 308 308 308 308 308 308 308 309 309 309 309 303 298 295 299 309 310 302 296 295 296 292 285 291 288 295 298 297 296 299 294 290 294 298 291 293 300 303 305 307 308 308 309 305 304 306 305 305 309 310 313 312 311
308 307 307 308 308 308 308 308 309 309 306 299 295 293 299 310 304 300 292 287 288 285 286 287 288 289 299 292 293 298 292 292 285 291 292 290 289 298 304 305 308 309 309 309 309 309 308 307 307 308 309 311 313 314
307 307 307 307 308 308 308 308 309 304 298 300 301 304 300 296 297 295 292 290 287 287 293 291 293 294 297 302 295 295 289 290 287 298 291 286 291 300 304 306 308 309 310 311 312 312 313 314 313 313 312 312 314 315
307 307 307 307 308 308 308 309 309 309 306 301 297 297 293 293 292 291 287 294 294 299 300 300 299 300 300 300 296 296 292 291 298 288 285 292 299 304 306 308 308 311 312 312 312 313 314 315 316 315 314 315 316 316
307 307 308 308 307 308 309 309 309 306 302 297 293 290 294 292 295 296 297 298 301 302 301 301 299 300 301 297 298 293 295 295 288 285 289 299 302 305 307 308 308 307 309 311 311 311 312 313 314 314 314 314 314 313
307 308 308 307 309 309 308 308 309 303 302 296 298 288 293 298 299 301 301 302 303 304 301 300 299 298 295 294 295 294 291 286 288 290 297 302 304 306 306 306 304 302 301 301 302 301 303 304 307 309 310 309 312 312
308 307 305 308 309 308 308 307 307 305 301 300 299 296 298 297 297 298 298 298 303 303 301 299 297 294 294 295 293 290 287 287 294 298 302 304 305 306 304 304 301 300 299 298 299 300 300 301 302 304 305 306 305 305
307 300 307 308 308 308 308 305 304 302 301 300 298 299 296 297 295 297 298 298 302 301 296 297 294 293 296 292 291 295 293 297 300 302 303 304 305 305 304 303 301 298 297 298 298 299 299 300 300 300 299 301 302 304
300 302 307 307 307 304 305 305 302 302 300 300 295 298 298 298 298 299 300 300 297 295 297 296 298 292 290 290 292 297 299 301 302 302 301 302 302 301 301 300 299 298 296 295 296 297 297 297 296 296 297 300 301 302
303 305 307 308 306 302 303 303 303 298 296 297 299 298 297 298 300 301 301 301 299 297 294 291 291 289 290 294 294 295 296 297 297 298 297 297 299 300 299 298 296 295 294 293 293 294 295 294 294 295 297 298 297 298
307 309 310 310 308 302 299 298 301 297 294 297 299 298 297 296 298 300 300 300 297 293 291 289 292 294 293 291 291 291 291 293 292 293 294 294 296 296 295 294 293 293 295 295 295 296 296 296 297 296 297 296 295 294
306 309 311 308 306 304 300 297 297 297 297 297 298 297 296 297 297 297 297 299 297 295 293 293 291 292 295 293 290 291 292 292 289 289 290 291 293 294 294 294 294 294 293 292 291 291 292 291 292 295 296 296 295 295
304 310 306 309 305 303 300 301 299 299 298 297 298 300 296 296 294 295 295 293 295 297 298 297 294 294 291 291 290 290 289 291 291 294 294 293 291 291 291 292 292 291 291 290 289 288 288 289 290 290 290 291 295 294
307 306 306 306 301 295 297 303 300 301 298 298 298 295 295 298 297 297 292 295 298 301 299 299 299 296 291 290 291 291 290 290 290 290 291 289 289 289 289 290 291 290 289 289 289 289 288 290 289 289 290 291 292 292
308 303 301 299 299 294 303 299 300 299 299 298 294 289 292 297 302 297 289 291 294 295 295 295 293 291 289 288 286 286 287 287 287 288 288 287 287 286 286 286 287 288 287 288 287 287 287 287 289 289 290 289 288 288
296 296 298 290 298 297 298 298 297 297 295 296 293 292 292 297 296 290 287 290 293 294 294 294 291 289 286 285 285 285 286 285 284 285 285 285 286 285 285 286 286 286 287 286 286 286 286 287 288 288 288 288 287 287
291 299 295 298 296 296 295 295 296 296 296 296 295 294 294 292 290 287 289 292 293 295 297 297 289 287 286 285 284 284 284 284 284 284 284 284 284 284 283 283 283 284 286 286 286 286 287 287 287 287 286 287 288 287
291 295 298 301 299 298 297 298 298 294 293 293 294 294 292 288 286 290 294 297 299 301 296 295 289 288 286 284 285 285 284 283 284 284 284 284 284 284 284 283 282 284 286 288 287 287 286 286 286 286 285 285 285 286
298 299 297 299 299 301 297 295 294 292 292 294 294 291 290 289 288 293 296 298 298 297 289 288 287 287 286 286 285 284 284 283 284 284 283 284 284 284 285 285 286 289 287 287 287 287 286 286 286 286 285 284 284 285
299 301 302 298 301 301 299 296 295 295 295 295 293 291 291 294 296 297 297 296 289 289 287 287 285 286 286 285 284 283 283 282 282 280 280 279 280 282 284 284 285 285 285 285 289 289 288 287 286 285 285 284 284 284
302 305 300 300 298 296 299 298 297 297 296 296 296 295 295 296 298 299 294 290 289 288 288 287 286 285 283 283 282 282 283 282 282 281 280 279 281 282 283 284 284 284 284 285 284 285 289 286 286 285 285 284 284 284
304 303 302 301 299 299 300 300 299 299 298 297 297 295 294 296 298 297 291 289 288 288 287 286 285 285 284 283 282 282 281 283 283 283 283 282 282 283 284 284 284 284 285 285 284 284 284 284 284 284 285 285 285 286
302 302 300 298 298 300 301 298 298 298 298 296 296 297 297 296 294 297 293 289 288 287 289 287 286 285 286 286 286 285 288 284 284 285 284 284 283 284 283 283 284 285 285 286 285 285 285 285 285 285 284 285 285 285
298 299 298 301 299 298 300 300 299 298 297 296 297 298 298 296 293 294 293 291 289 288 288 288 287 287 287 287 287 286 287 285 286 288 288 288 287 286 283 283 284 285 285 285 286 286 286 286 285 285 285 285 284 285

GFSWCAN_sfc_thetae_030.txt.gz
Theta_e
310 310 310 310 310 310 310 311 311 310 310 310 310 310 311 311 310 304 300 298 297 292 293 294 295 291 291 289 284 286 284 285 285 282 282 281 283 284 282 284 284 283 283 282 284 284 282 306 307 304 306 312 315 315
309 309 309 310 310 310 310 310 310 310 311 311 311 311 311 311 310 309 298 300 302 295 293 297 296 297 296 294 290 290 289 285 290 285 286 286 284 286 283 280 289 284 289 288 288 287 298 308 309 312 313 314 315 315
309 309 309 309 309 310 310 310 310 310 311 311 311 311 312 311 311 309 301 301 299 294 290 289 290 296 298 298 299 289 291 292 291 291 286 287 285 288 280 283 288 291 294 292 294 298 303 308 312 313 316 315 316 317
308 309 309 309 309 309 309 310 310 310 310 311 311 311 312 312 311 310 302 302 299 294 286 287 295 292 295 296 296 296 295 294 295 296 290 288 286 291 286 288 287 290 291 291 293 299 306 310 310 311 315 317 316 317
308 309 309 308 309 309 310 310 310 310 310 311 311 311 311 312 311 309 305 302 302 293 286 289 294 295 295 293 294 295 294 292 290 290 290 289 292 290 291 290 287 291 289 288 289 299 304 306 310 313 315 315 317 316
308 308 308 308 309 309 309 310 310 310 310 310 311 311 311 311 310 302 294 300 303 301 292 287 291 294 298 296 293 292 292 292 292 290 290 293 297 290 286 286 293 296 298 300 298 306 308 311 313 315 315 315 316 317
308 308 308 308 309 309 309 309 309 309 309 310 310 310 310 310 306 298 294 301 304 302 292 287 289 293 296 294 296 293 294 292 292 291 290 290 291 293 286 284 292 296 297 300 307 309 309 311 310 313 314 317 319 319
308 308 308 308 309 309 309 309 309 309 309 310 309 310 310 310 307 302 304 306 305 297 294 287 288 289 296 293 292 295 290 292 294 292 295 293 294 292 284 290 294 297 296 300 307 312 312 313 312 312 314 314 314 315
308 308 308 308 308 308 309 309 309 309 310 310 310 310 305 304 300 301 309 308 305 296 287 288 286 285 295 294 296 297 299 293 298 293 295 294 290 285 291 297 301 302 298 299 311 311 311 310 311 311 312 311 310 311
307 307 308 308 308 308 308 309 309 309 309 309 301 296 295 300 310 308 302 295 294 294 291 285 290 288 293 297 297 296 298 293 289 293 297 291 289 297 301 304 305 308 310 309 306 306 308 308 309 310 311 313 312 312
307 307 308 308 308 308 308 309 309 309 306 298 294 292 300 307 305 300 291 288 286 285 286 287 289 289 298 291 293 297 291 290 285 290 291 288 288 296 304 306 309 310 310 309 310 311 309 310 309 311 311 313 314 314
308 308 307 308 308 308 309 309 309 306 299 301 302 305 302 298 298 295 292 290 288 288 291 290 292 291 295 301 294 295 287 289 286 296 289 285 296 302 305 306 309 311 312 312 313 313 313 314 313 313 312 313 314 315
307 307 307 308 308 309 309 309 309 309 306 302 297 295 297 296 291 291 288 292 295 300 299 299 298 299 299 300 296 296 293 291 298 288 285 294 301 303 302 303 303 304 305 310 313 313 312 311 312 312 313 315 317 316
306 308 308 308 308 309 309 309 309 306 301 296 295 288 293 293 294 295 294 295 300 301 300 299 299 298 300 295 296 293 295 294 288 285 289 296 299 300 300 300 300 300 301 303 305 308 308 306 305 306 310 312 314 313
308 308 308 307 308 309 309 308 309 303 300 296 296 288 292 298 299 299 300 299 300 302 299 298 296 296 295 295 296 293 290 285 287 290 295 300 302 301 299 299 298 298 299 298 301 302 306 306 304 303 305 307 307 306
308 307 304 308 308 309 308 306 306 303 300 300 298 294 297 294 295 296 295 294 299 300 301 300 296 293 293 295 293 291 287 286 293 298 301 303 303 301 299 298 297 298 298 298 299 299 299 300 301 302 303 303 303 302
307 300 307 307 308 308 308 304 303 301 300 299 295 296 294 293 293 294 296 295 297 298 295 296 291 292 296 291 289 292 290 293 297 297 297 299 298 297 298 296 296 296 295 296 296 297 298 300 300 300 299 300 300 300
299 301 307 308 307 304 305 302 301 301 296 296 293 295 295 295 294 296 297 298 293 292 294 291 293 290 289 287 287 291 294 296 299 296 294 295 296 296 296 294 295 295 294 295 296 296 296 296 296 297 298 299 298 298
302 305 307 308 308 302 301 301 301 295 296 296 296 296 295 296 297 298 299 299 298 293 292 290 289 287 288 291 291 290 292 292 293 296 294 293 293 293 294 294 294 293 293 293 293 294 296 296 295 296 296 297 295 295
307 308 309 310 308 300 298 297 299 296 294 296 296 296 294 294 295 296 298 298 295 292 289 287 288 290 292 290 289 288 289 290 292 292 290 291 292 292 291 291 291 291 292 292 291 292 292 293 294 296 296 295 293 292
306 308 310 308 305 301 298 296 296 296 295 295 296 295 295 295 294 293 293 295 293 291 289 293 292 292 292 291 289 288 288 288 288 288 289 288 290 291 292 292 292 291 290 289 288 289 290 288 289 291 295 293 292 292
302 308 305 308 303 301 299 299 297 297 297 297 296 297 297 296 293 293 293 295 296 295 294 293 292 290 289 288 288 287 288 290 289 289 290 289 287 288 288 289 290 289 288 288 288 287 288 288 290 292 293 293 292 291
306 305 304 305 300 295 295 301 298 297 295 295 295 293 294 298 298 296 290 290 293 295 294 293 292 289 287 288 288 288 287 287 286 286 287 287 286 286 287 287 288 288 287 287 287 287 287 289 290 290 291 290 290 289
306 302 300 298 297 293 300 297 298 297 297 295 292 289 291 295 301 291 288 290 292 293 293 292 289 287 286 287 285 284 285 285 285 285 285 286 285 285 286 286 287 287 287 287 287 287 288 289 289 289 289 289 288 287
295 297 297 289 296 296 296 296 296 295 293 294 292 291 291 297 293 288 287 290 292 294 294 291 288 287 285 284 284 284 285 284 284 284 284 285 285 285 285 285 286 286 287 287 287 288 288 288 289 289 289 289 288 287
290 296 294 296 294 295 294 293 294 294 294 294 293 293 293 290 289 287 288 291 292 294 295 294 288 285 284 284 283 284 284 284 284 284 284 283 284 284 284 283 284 285 287 287 287 288 288 288 288 287 287 288 288 287
290 294 296 299 298 297 295 296 296 292 291 291 292 293 291 287 286 289 293 294 294 297 296 294 290 287 285 284 284 284 284 283 284 285 284 284 284 285 285 284 284 285 287 288 289 289 288 288 287 287 286 286 287 287
297 297 296 298 298 299 296 294 293 291 291 293 293 290 289 289 287 292 295 297 296 291 287 286 286 287 285 285 285 285 285 284 284 284 283 285 285 285 285 286 286 288 287 289 289 289 289 288 288 287 286 286 286 287
298 299 300 297 299 299 299 295 293 293 294 294 292 290 291 293 295 296 297 295 292 288 287 286 285 285 284 284 284 284 283 283 284 282 281 281 282 284 285 286 286 286 286 287 288 290 289 288 288 287 287 287 287 288
300 302 298 298 298 295 298 298 296 296 295 296 296 295 296 296 298 298 294 289 288 288 288 287 285 285 284 284 284 284 284 284 283 283 282 282 283 284 285 285 286 286 286 287 287 288 289 289 288 288 288 288 288 288
303 302 300 300 299 299 300 299 298 299 297 297 297 295 295 296 298 296 291 289 289 287 287 286 285 285 285 284 283 283 283 285 284 285 285 285 284 285 285 286 286 286 287 287 287 287 287 287 287 287 287 287 287 287
301 301 300 298 297 299 299 297 297 297 297 297 296 297 297 296 295 297 293 289 288 288 289 288 286 286 287 287 287 286 287 286 286 286 287 286 286 286 285 285 286 287 288 288 288 287 288 287 287 287 287 287 287 287
297 297 298 299 296 297 298 298 296 296 296 294 295 297 299 297 295 297 294 292 291 290 289 288 288 288 289 290 289 288 288 287 288 287 288 288 288 287 286 286 286 287 288 288 288 288 288 288 287 287 287 287 286 287

GFSWCAN_sfc_thetae_033.txt.gz
Theta_e
309 309 309 310 310 310 310 311 310 311 311 310 310 311 311 312 312 308 302 303 300 293 293 295 295 291 291 290 286 290 289 290 289 284 284 285 284 287 286 288 287 287 286 286 287 285 282 302 303 299 311 318 318 320
309 309 309 309 310 310 310 310 310 310 311 311 310 311 312 312 312 311 302 302 303 296 294 300 299 300 298 297 292 291 290 290 292 288 287 287 286 289 287 282 294 286 291 290 290 290 300 304 306 311 316 315 318 322
309 309 309 309 309 309 310 310 310 310 311 311 311 310 312 312 312 311 303 301 300 295 293 294 293 299 302 301 301 289 292 294 293 297 292 290 285 290 284 286 290 294 298 293 294 296 299 301 307 309 319 320 323 324
309 309 309 309 309 309 310 310 310 310 310 311 311 311 311 312 312 311 305 303 300 295 288 292 300 297 302 301 300 299 297 298 297 295 289 288 287 294 288 291 291 293 296 294 293 297 299 302 305 310 314 319 322 322
308 308 309 309 309 309 310 310 310 310 310 311 311 311 312 312 312 311 308 303 303 295 289 290 298 300 300 299 298 298 297 295 293 290 289 288 291 291 292 291 287 294 293 291 289 299 300 303 308 314 317 317 322 319
308 308 308 308 308 309 309 309 310 310 310 310 310 311 311 311 310 304 297 302 305 302 292 287 298 297 299 297 297 296 296 295 293 290 289 292 296 291 287 287 294 297 298 299 297 301 302 306 309 314 317 321 319 318
308 308 308 308 308 309 309 309 309 309 310 310 310 310 310 310 307 300 295 302 305 304 293 288 289 298 299 298 295 294 295 293 292 291 289 290 291 292 286 284 292 296 298 300 302 302 300 303 306 317 318 321 318 321
308 308 308 308 308 309 309 309 309 309 310 310 310 310 310 309 307 302 305 305 305 298 294 287 288 293 301 297 297 297 292 292 292 290 291 290 292 289 284 290 293 296 298 297 298 301 302 307 316 318 316 318 318 320
307 308 308 308 307 307 308 309 309 310 310 310 309 310 308 305 301 303 310 307 305 297 289 289 287 287 299 298 301 298 294 289 295 288 292 294 287 285 290 293 296 303 299 298 300 302 303 308 312 313 315 315 318 321
307 308 307 307 307 307 308 309 309 310 309 308 307 302 300 303 310 308 301 295 294 295 292 287 291 288 295 296 296 296 297 291 287 291 297 287 286 296 300 306 309 306 305 305 303 306 309 308 312 313 313 314 316 317
307 307 307 307 307 308 309 309 310 309 308 306 301 299 304 309 305 301 291 289 288 286 287 288 290 288 298 291 293 295 291 289 285 291 289 286 286 294 300 301 309 312 312 312 312 312 312 312 312 314 317 318 319 320
307 307 306 306 308 309 309 309 309 308 306 304 303 305 305 302 300 296 294 293 290 290 293 291 294 291 294 299 295 296 290 291 288 297 290 285 293 298 299 300 301 306 308 308 308 309 311 314 315 315 315 315 316 319
307 306 307 308 308 309 309 309 309 309 307 306 302 302 301 301 290 290 287 291 293 300 302 301 300 299 300 302 297 297 293 291 299 289 285 290 297 299 299 301 301 302 302 304 307 306 305 306 308 312 314 316 317 315
306 307 308 308 309 309 309 309 309 308 308 303 299 290 296 292 293 293 294 295 300 302 301 303 302 300 301 299 299 293 295 295 290 285 286 293 298 300 299 301 302 301 302 301 302 302 303 303 303 303 305 307 308 307
307 308 308 308 308 309 309 309 309 311 308 302 300 291 296 300 300 300 301 299 300 301 302 303 302 301 299 298 297 293 292 286 287 289 295 300 302 299 298 298 299 300 300 301 302 302 302 302 301 301 302 302 305 306
308 308 309 308 309 309 308 310 313 312 310 305 302 297 300 297 296 297 298 297 301 301 307 304 299 296 295 294 291 289 287 286 290 294 297 299 298 298 297 297 298 299 299 300 301 302 302 302 301 301 301 302 303 304
307 308 308 308 309 308 308 314 313 307 304 302 299 302 300 299 298 298 299 299 302 301 298 298 291 291 296 291 288 289 287 290 295 296 297 297 297 297 299 298 298 299 300 301 300 301 301 302 302 302 300 301 302 303
306 308 308 308 309 310 313 311 309 305 300 302 299 300 301 302 300 300 301 302 299 299 298 294 297 290 288 286 288 293 294 297 299 298 296 297 298 299 298 297 298 298 298 299 300 300 301 301 300 299 300 302 302 302
307 307 308 309 309 310 307 307 308 301 302 304 304 303 302 302 304 304 303 304 302 301 299 296 290 289 289 294 293 295 295 295 296 297 297 298 298 297 298 298 297 297 296 296 296 297 298 299 299 299 300 300 299 299
307 308 309 310 310 308 305 305 308 305 301 303 304 302 301 302 303 303 303 302 301 298 294 292 291 294 294 295 296 296 296 296 296 296 295 296 297 297 295 295 294 296 297 297 296 294 297 298 299 298 297 297 297 297
310 312 311 313 313 309 306 305 305 305 303 303 303 301 302 303 302 300 300 303 298 296 293 297 295 296 297 297 296 296 296 296 294 294 294 294 296 296 296 296 296 295 294 294 294 294 295 296 297 297 296 296 296 296
311 309 313 314 310 308 307 307 306 306 305 305 304 305 304 301 300 300 302 298 297 300 302 300 298 297 296 295 295 295 296 297 296 295 294 294 292 293 294 294 294 293 293 293 293 294 295 297 297 296 295 294 294 294
309 310 312 311 307 301 301 310 306 305 302 303 304 301 302 303 303 303 298 300 301 303 302 300 298 297 295 294 296 296 295 295 293 293 293 293 294 294 294 294 294 293 292 293 295 295 295 293 294 295 295 295 294 294
308 309 306 305 303 298 307 305 306 305 305 303 300 297 299 303 306 299 295 298 302 303 301 299 296 295 296 295 293 293 293 293 293 293 292 292 292 292 293 293 294 294 293 294 294 294 294 294 292 294 293 293 292 292
301 301 302 292 304 302 301 301 302 302 299 300 298 298 300 303 298 295 294 297 301 302 303 301 297 295 294 294 293 293 293 292 291 291 291 292 292 293 292 293 293 293 294 294 293 293 293 293 293 292 292 291 291 290
294 303 300 302 302 302 301 298 299 299 299 299 299 301 301 298 293 291 296 300 302 303 303 303 300 295 294 293 293 292 292 292 292 291 291 291 291 290 290 289 290 292 293 293 293 293 292 292 291 291 291 290 289 290
296 301 305 307 306 304 303 303 303 298 296 297 300 298 297 291 291 296 302 303 304 306 305 300 301 297 295 293 292 293 293 292 291 291 292 292 292 292 291 289 289 291 293 294 294 294 292 291 291 290 290 291 291 291
305 305 303 306 307 307 302 300 297 296 297 300 300 294 293 292 293 300 302 304 305 302 295 295 296 296 294 293 293 294 293 292 291 291 291 292 293 293 292 292 293 289 292 294 294 294 294 293 292 291 290 291 291 293
305 307 307 303 304 305 306 302 300 301 302 302 299 296 298 302 304 303 304 305 301 296 294 294 293 294 293 293 293 293 293 292 290 288 287 287 288 290 292 292 293 293 293 294 289 291 293 293 292 292 292 292 294 295
307 308 305 303 303 302 307 307 305 305 304 305 304 302 303 303 305 306 302 298 297 297 297 295 294 294 293 293 293 292 293 293 292 290 288 288 289 291 291 291 292 293 293 293 294 293 289 293 292 294 292 292 292 293
309 308 306 305 305 308 307 306 305 305 304 304 304 302 303 304 305 305 303 301 299 297 295 294 294 294 294 294 293 292 292 293 292 292 292 292 292 292 292 292 292 293 293 293 293 293 292 292 292 291 291 290 291 291
308 307 306 304 305 306 305 304 304 303 303 302 302 303 303 303 301 305 300 296 295 295 294 295 295 295 295 296 296 295 289 294 294 294 292 293 293 293 293 293 293 293 293 293 292 292 292 291 291 290 290 290 290 290
306 306 306 305 304 302 304 304 302 301 302 301 302 302 303 303 300 303 299 298 298 298 297 297 297 296 296 295 295 295 292 295 293 288 288 288 287 289 292 293 293 294 293 292 291 291 291 290 290 290 290 290 290 290

GFSWCAN_sfc_thetae_036.txt.gz
Theta_e
310 310 310 310 310 310 310 311 311 311 311 311 311 311 311 312 312 309 304 305 299 292 295 298 298 293 293 292 288 293 292 294 294 289 289 289 287 291 289 292 291 291 289 289 291 289 287 304 303 300 309 313 318 319
310 310 310 310 310 310 310 310 310 311 311 311 311 311 311 312 312 312 304 305 304 296 296 303 303 303 300 297 294 294 292 292 295 292 293 290 289 291 291 286 296 289 293 292 293 293 303 306 305 310 310 310 312 317
309 309 309 309 309 310 310 310 310 311 311 311 310 311 311 312 312 311 306 303 300 295 295 298 299 304 306 305 304 291 293 295 294 297 292 292 287 292 288 290 292 296 299 295 295 298 300 303 306 308 309 309 314 316
309 309 309 309 309 310 310 310 310 310 311 310 310 311 312 312 312 312 306 303 302 296 289 296 304 301 306 304 303 302 298 298 297 298 293 291 290 296 292 294 293 297 299 296 297 300 302 303 305 307 308 309 310 312
309 309 309 309 309 309 310 310 310 310 310 310 311 311 312 312 311 312 308 305 305 298 291 295 302 304 304 304 301 301 298 296 293 292 290 288 292 291 293 294 293 297 296 293 293 301 301 303 306 308 306 306 313 315
308 308 309 309 309 309 310 310 310 309 309 310 311 311 311 310 311 308 301 305 309 304 294 291 301 300 302 300 298 298 298 297 296 292 290 292 296 291 287 287 295 298 299 301 299 303 304 306 307 309 309 312 314 316
308 308 308 309 309 309 309 309 308 309 310 310 311 311 311 310 312 306 301 305 307 306 294 290 294 302 302 300 297 297 298 295 293 289 288 290 291 291 287 284 291 295 298 299 301 301 300 304 304 308 310 312 315 317
308 308 308 308 308 308 308 308 309 309 310 311 310 311 309 308 307 305 307 306 307 299 297 290 293 298 303 297 296 297 292 292 290 288 289 288 290 288 284 290 294 297 298 297 298 300 300 304 306 309 311 314 317 319
308 308 308 308 307 308 308 309 309 310 311 310 311 310 311 307 303 305 308 307 307 299 290 290 288 289 301 298 301 296 295 288 293 288 288 291 287 285 287 293 301 308 305 302 303 300 300 301 304 306 307 316 317 316
307 308 308 307 307 308 308 309 310 310 310 310 310 309 304 304 310 308 302 297 296 295 293 287 291 289 294 296 295 296 297 291 289 292 297 289 288 295 297 301 302 305 306 303 300 299 302 304 304 308 313 316 315 318
308 307 307 307 307 308 309 310 310 310 308 313 311 307 307 311 304 302 295 292 292 289 291 291 292 290 299 292 293 296 292 291 288 295 294 289 288 294 298 301 304 304 305 305 308 309 311 311 311 312 315 316 317 316
307 307 306 307 308 309 310 310 310 314 314 310 309 309 310 305 306 300 295 297 294 294 303 295 297 295 297 299 297 300 296 298 291 301 293 286 293 299 299 299 302 305 304 304 305 304 305 306 312 314 315 313 313 314
307 306 306 308 309 309 310 310 309 309 310 310 306 306 304 302 291 291 289 292 294 303 304 304 302 304 303 304 301 301 297 295 303 294 286 291 299 301 301 300 301 303 304 304 304 305 305 304 304 306 307 311 313 312
306 307 308 309 309 309 310 310 310 310 315 308 302 291 299 297 298 297 297 298 302 303 305 306 305 305 308 302 299 295 297 298 291 286 286 296 300 301 301 303 303 302 302 302 302 302 302 303 303 303 304 306 307 308
307 308 308 310 309 310 310 309 310 319 313 305 304 294 298 301 303 303 304 304 306 307 308 308 308 305 303 300 300 295 293 289 289 288 293 298 300 301 300 302 302 303 303 304 304 304 305 303 302 302 304 306 308 305
308 308 315 308 309 309 309 316 319 318 313 306 304 300 303 301 301 302 302 302 306 307 311 309 302 299 297 297 292 288 288 285 289 294 298 298 298 302 301 303 303 304 304 304 305 305 305 304 304 304 305 305 305 306
307 317 309 309 309 309 311 319 316 309 307 304 302 305 304 303 302 302 303 303 307 304 301 302 294 292 299 293 291 296 291 294 299 298 299 301 300 301 303 302 302 303 303 304 304 305 305 306 307 306 304 306 305 305
315 316 311 309 310 316 320 317 311 307 302 306 303 304 306 306 304 304 305 305 304 302 301 296 300 293 291 288 290 295 298 300 302 302 300 301 302 303 303 302 302 301 301 302 303 304 305 304 304 304 305 306 305 305
312 311 309 308 311 315 313 312 314 304 305 309 308 308 308 307 308 307 306 306 306 305 304 300 294 292 292 295 295 296 297 298 299 302 302 302 301 302 302 303 302 301 301 301 299 300 302 303 302 303 304 303 301 302
307 308 309 310 312 316 308 311 316 309 307 307 309 309 308 306 306 305 305 304 302 301 297 295 294 296 296 298 298 298 298 299 299 299 299 299 301 301 300 300 299 300 299 299 299 296 300 301 302 302 301 300 300 299
312 317 314 317 322 318 314 313 311 311 311 308 312 307 309 311 306 303 301 304 300 298 295 298 298 299 302 302 301 299 299 299 297 297 297 297 299 299 299 300 300 299 297 296 297 297 298 299 300 300 300 300 300 300
319 311 321 322 317 314 315 317 313 315 312 311 311 311 307 305 303 303 305 300 299 301 302 302 301 301 301 300 300 300 300 300 299 298 296 297 297 297 297 297 297 296 296 296 297 297 298 299 300 300 300 299 298 297
312 316 320 318 311 306 305 319 311 312 306 309 311 305 306 307 307 308 302 303 302 305 305 305 305 303 301 301 301 300 300 299 297 296 296 297 298 298 297 297 297 296 295 296 298 297 297 294 297 297 298 298 297 297
308 315 311 310 310 303 313 310 314 312 312 309 306 301 303 306 311 304 298 301 303 307 306 306 304 301 301 301 299 298 297 298 297 297 296 295 295 295 297 296 297 297 297 298 297 297 297 296 294 296 296 295 295 295
304 304 307 294 311 306 303 304 305 306 300 304 302 302 305 308 302 299 296 300 303 303 304 306 305 302 298 299 300 298 299 297 295 294 296 295 295 295 295 296 297 297 297 296 296 296 295 296 296 295 295 294 293 293
296 307 301 307 309 305 306 299 299 299 301 301 303 308 308 303 295 293 299 302 303 304 303 302 300 299 300 300 297 296 296 297 296 294 295 295 294 293 293 292 293 294 297 297 296 295 295 295 294 293 293 292 290 293
299 305 312 317 314 311 308 309 308 302 298 298 304 302 301 293 293 299 303 305 305 307 308 306 303 300 299 299 299 300 299 297 296 295 296 296 296 295 294 292 291 294 296 297 297 296 294 294 294 293 293 295 295 295
311 311 306 311 311 312 305 305 302 299 301 306 305 298 296 296 299 304 306 307 308 309 303 302 302 302 301 300 300 300 300 299 297 297 296 296 299 297 296 296 296 290 295 296 295 296 295 295 294 294 294 294 294 295
310 313 312 308 309 309 309 306 305 309 310 307 304 303 303 308 309 309 309 309 310 306 301 299 299 301 300 300 301 300 299 297 294 291 291 292 292 293 296 296 296 296 297 297 287 290 294 294 294 294 294 293 294 295
311 314 310 307 305 306 311 313 311 313 312 311 311 309 309 311 313 314 309 306 304 303 301 301 300 300 301 300 298 298 300 299 298 294 292 291 292 295 296 295 295 296 296 296 295 295 289 293 294 295 293 293 293 293
317 314 310 310 308 313 314 316 314 313 311 310 310 306 307 311 312 313 311 310 309 303 298 298 300 303 301 300 297 295 295 298 298 297 296 297 297 296 295 295 296 296 296 295 294 293 293 293 293 292 292 291 291 291
314 311 311 307 309 315 314 312 312 310 311 309 308 310 310 309 307 310 306 306 303 299 297 301 303 299 300 300 299 299 288 298 300 299 296 297 296 296 296 296 296 295 294 294 293 293 292 292 291 291 290 290 291 291
311 311 311 310 309 308 311 309 308 307 308 308 309 310 310 308 304 306 304 304 302 303 303 303 301 301 300 299 299 298 294 299 294 288 289 288 286 289 294 297 296 295 293 293 293 292 292 291 291 291 291 291 291 291

GFSWCAN_sfc_thetae_039.txt.gz
Theta_e
310 310 310 310 310 310 311 311 311 311 311 311 311 312 312 313 312 310 308 308 300 293 295 300 300 295 295 294 292 295 295 296 294 290 290 290 289 292 292 294 294 294 292 292 294 292 291 309 307 305 311 316 316 319
310 310 310 310 310 310 311 311 311 311 311 311 311 311 312 312 312 312 305 308 306 297 298 305 304 305 303 301 297 297 295 295 297 294 296 294 291 293 292 289 298 291 296 295 296 296 307 309 308 312 312 311 312 314
309 309 310 310 310 310 310 311 311 311 310 311 311 312 312 312 313 312 308 304 302 296 296 298 300 305 308 305 305 293 296 297 296 299 294 294 290 294 289 291 294 298 302 296 297 301 303 305 308 309 310 310 311 312
309 309 310 310 310 310 310 310 310 310 311 311 311 312 312 312 312 312 304 305 304 298 291 298 307 303 307 306 305 303 300 300 299 298 295 292 290 297 293 294 295 298 299 298 297 300 303 305 307 308 309 310 310 311
309 309 309 309 309 309 309 309 310 310 310 311 311 312 312 312 311 314 309 307 308 299 293 297 305 306 306 305 303 303 301 299 297 293 291 289 293 292 294 295 294 299 297 295 295 303 304 305 308 310 309 308 310 310
309 309 309 309 309 310 309 310 310 310 310 310 311 312 312 311 312 311 303 308 309 306 296 292 304 303 304 303 300 299 300 299 296 292 290 292 296 291 288 290 296 298 300 301 299 305 305 307 309 309 309 310 310 312
308 308 308 309 309 309 309 310 310 310 310 311 311 312 312 311 312 305 303 307 308 308 296 293 297 302 303 302 299 298 299 296 293 289 288 290 291 292 288 286 294 295 296 297 300 300 298 303 304 309 310 311 311 311
308 308 309 309 309 309 309 309 309 310 311 311 311 310 309 307 307 307 309 308 308 302 299 290 294 298 303 297 295 297 292 291 291 291 290 289 290 289 285 292 292 299 305 306 301 301 299 303 305 304 309 310 310 309
308 308 308 308 308 309 309 309 310 311 311 310 311 310 313 311 307 307 308 307 307 300 291 291 289 291 302 298 300 295 293 288 292 287 289 290 286 285 287 293 296 302 303 305 308 307 304 300 300 305 306 307 310 311
308 308 308 308 308 308 309 310 311 311 310 311 311 310 307 308 310 308 304 302 300 299 298 291 295 292 297 298 297 297 297 294 289 296 297 293 290 298 298 299 301 302 305 307 302 302 301 300 303 305 307 310 309 311
307 307 307 308 308 308 309 310 311 310 310 313 313 311 312 310 305 304 304 300 300 294 301 297 295 294 302 295 295 300 297 298 293 296 295 291 290 297 301 300 302 303 304 305 306 307 306 307 307 309 310 311 312 313
307 307 307 308 308 309 310 310 310 314 318 313 314 316 313 309 308 303 301 304 298 300 307 304 305 303 305 304 299 305 301 302 292 300 294 287 294 301 302 302 302 303 303 304 305 305 307 307 308 310 311 311 312 313
307 307 307 308 309 310 310 310 310 308 310 318 316 310 307 307 296 295 291 295 298 304 306 306 306 309 309 308 306 304 299 297 304 294 287 292 299 302 303 304 305 306 305 305 305 305 305 306 307 306 305 307 307 311
307 307 308 309 310 310 311 310 310 311 314 312 305 295 302 299 299 300 300 301 306 307 308 307 309 310 308 306 304 297 301 300 292 286 287 296 299 302 304 305 304 304 305 306 304 305 305 305 305 306 306 307 307 306
308 308 309 311 310 310 311 310 310 318 316 307 307 296 301 305 306 306 307 306 308 310 309 309 307 306 304 300 301 297 295 290 289 288 294 298 302 303 304 303 303 303 304 304 306 305 305 306 306 306 309 308 306 307
309 308 317 310 310 310 310 316 319 322 316 310 307 304 306 305 304 305 305 304 308 309 310 309 303 300 299 299 294 292 290 288 290 294 300 301 304 304 304 304 303 303 303 304 305 306 306 306 307 307 307 307 307 308
307 321 310 310 309 309 312 321 320 311 310 305 303 310 308 306 304 304 305 305 309 306 302 304 296 295 299 293 291 295 291 295 300 300 301 305 305 305 304 304 303 303 302 301 303 305 305 307 306 305 305 307 307 307
320 321 312 309 311 319 323 320 315 311 304 308 305 307 309 308 306 305 306 306 305 305 303 299 302 296 292 288 290 295 298 300 301 302 302 305 306 306 305 303 304 303 302 301 301 303 304 304 304 303 305 306 305 305
315 314 309 309 312 317 316 315 317 307 308 311 312 310 310 309 309 308 307 307 307 308 306 303 297 295 295 297 297 298 298 298 298 301 303 305 305 305 305 305 304 303 301 301 300 299 303 304 303 303 303 303 302 303
308 309 309 311 312 319 311 314 319 312 308 309 313 310 309 308 310 307 306 306 304 303 300 297 297 298 299 299 300 299 300 300 299 298 299 301 303 304 304 303 301 302 300 301 301 298 302 302 302 303 302 302 301 300
311 319 316 320 325 321 317 314 314 313 313 311 311 309 306 309 309 305 304 307 303 301 299 301 301 303 305 304 303 302 301 300 299 298 297 297 300 302 301 301 301 300 299 299 299 299 299 300 302 302 301 301 301 300
323 312 324 323 320 318 317 320 314 316 313 312 311 311 308 306 305 305 307 304 302 303 303 303 303 303 303 303 303 303 303 302 302 300 297 298 299 299 299 299 299 298 299 299 299 299 298 299 298 301 300 300 300 299
314 318 323 321 314 309 307 321 311 312 306 307 311 306 306 306 308 310 305 305 305 307 306 306 306 307 305 305 305 304 303 301 299 299 299 298 299 300 299 299 299 298 297 298 300 299 299 295 298 298 299 299 299 298
307 319 315 313 312 305 315 310 315 312 311 308 306 302 304 305 310 306 301 304 305 309 307 308 306 304 304 306 303 301 301 300 299 299 300 298 297 297 299 298 299 299 299 299 299 299 299 299 296 298 298 297 297 297
306 306 309 296 313 308 304 304 305 307 300 304 302 303 306 309 303 301 300 303 306 306 306 306 304 303 302 301 300 301 303 299 297 297 299 298 297 297 298 298 299 299 299 298 298 298 298 298 298 297 297 295 295 296
295 310 302 308 310 306 306 301 301 301 303 301 304 309 311 304 298 296 303 306 307 308 307 305 303 302 301 301 299 298 298 300 299 296 297 298 297 295 295 294 295 296 298 299 298 297 297 297 296 296 296 294 291 295
298 305 313 319 314 313 309 310 312 307 301 300 304 303 302 297 296 302 307 309 309 309 310 308 306 303 302 301 302 302 301 301 299 298 299 299 299 299 297 295 294 296 298 299 298 297 296 296 296 296 296 296 297 296
312 311 307 311 311 313 306 307 304 302 304 309 306 300 299 298 299 306 309 311 310 310 311 308 307 305 304 303 302 301 301 301 300 301 301 300 300 299 299 299 299 292 297 298 297 297 297 296 296 296 296 295 296 297
313 314 312 308 310 309 309 306 307 308 312 308 303 302 305 311 313 312 313 313 314 311 307 305 305 305 305 303 302 304 301 299 296 294 294 294 295 296 299 299 298 299 298 297 290 293 295 294 296 296 295 295 296 297
311 318 311 309 307 305 309 313 310 312 313 312 312 312 311 312 316 317 315 313 312 309 309 307 306 304 303 301 300 300 302 301 300 297 294 294 295 297 298 297 297 297 297 298 297 296 291 294 294 296 296 295 294 294
316 315 310 310 308 310 313 313 314 316 315 313 314 311 309 313 315 315 314 314 314 308 306 305 303 306 302 300 299 297 296 300 300 299 298 298 299 298 298 297 297 297 296 296 295 295 295 295 294 294 293 293 293 293
314 311 309 307 308 314 316 312 310 309 311 312 309 312 312 313 309 313 310 312 309 305 302 301 303 302 302 302 301 300 290 300 301 301 299 299 298 298 298 298 298 297 296 295 295 295 294 293 293 292 292 292 292 292
312 311 309 309 308 308 312 311 308 308 309 309 309 311 311 309 306 308 309 307 306 306 305 304 304 303 302 301 300 300 296 301 294 289 290 289 287 290 295 297 297 296 296 295 295 295 294 294 293 293 293 293 293 293

GFSWCAN_sfc_thetae_042.txt.gz
Theta_e
311 311 311 311 311 311 311 311 311 312 311 311 312 312 312 313 313 311 308 309 300 294 295 300 300 297 297 296 291 296 295 295 295 290 291 291 290 292 292 294 294 293 291 291 294 293 293 308 308 305 313 314 314 316
310 310 310 310 311 311 311 311 311 311 311 311 312 312 312 313 313 312 305 309 307 297 297 304 305 305 304 302 298 297 295 294 295 292 294 292 290 292 292 288 298 291 296 294 296 297 310 310 308 311 311 311 312 312
310 310 310 310 310 310 311 311 311 311 311 311 312 312 312 313 313 312 309 306 302 297 297 299 301 306 308 307 307 296 297 298 297 299 293 293 291 294 289 291 293 297 301 296 297 301 303 305 308 309 310 309 310 311
309 310 310 310 310 310 310 310 311 311 311 311 312 312 313 313 312 312 307 306 305 299 292 299 308 305 309 308 306 304 301 301 300 298 294 293 290 296 292 293 293 296 298 296 297 301 303 305 306 307 308 309 309 311
309 309 309 309 309 310 310 311 311 310 311 311 312 312 312 312 312 315 312 309 308 300 293 297 305 305 306 306 304 304 302 300 298 293 291 289 293 292 295 295 292 298 295 293 293 301 302 304 307 309 308 308 310 310
309 309 309 309 309 309 310 309 310 310 310 311 312 312 312 311 311 311 302 308 310 307 297 292 304 303 304 303 301 300 299 298 297 291 290 292 296 292 288 288 295 297 298 299 296 301 303 304 306 308 308 310 310 311
309 309 309 309 309 309 309 309 309 310 311 312 312 312 312 312 313 306 302 307 310 309 298 295 298 303 304 302 299 299 299 295 292 290 288 289 289 292 287 285 293 294 296 296 298 298 297 301 302 306 308 309 310 311
308 308 308 308 309 309 309 309 310 311 311 312 311 311 309 308 307 306 309 308 309 303 299 292 297 301 304 299 295 298 293 292 292 291 291 288 289 288 284 291 296 298 301 305 307 309 302 304 306 306 307 307 307 308
308 309 309 308 308 308 308 309 311 312 311 311 312 310 313 311 308 307 308 308 310 304 294 298 292 295 307 301 299 296 294 289 293 289 291 290 285 285 290 295 297 298 300 303 309 308 308 305 303 306 305 306 306 307
308 308 308 308 308 308 309 310 311 311 310 311 311 310 306 311 310 310 306 302 303 306 304 299 301 297 304 302 299 298 295 295 290 297 298 294 290 297 300 300 301 300 303 307 304 301 301 301 301 303 304 306 307 309
308 308 308 308 308 309 310 311 311 310 310 313 313 311 313 310 309 306 307 304 306 300 304 302 305 302 307 299 298 303 302 300 295 295 295 291 288 296 301 301 302 303 302 304 306 307 306 307 305 304 305 309 311 312
308 307 307 308 309 310 310 311 311 312 319 314 316 318 315 309 309 304 301 305 303 302 306 306 309 307 308 307 301 305 301 302 292 300 293 286 294 300 302 302 303 303 303 303 305 305 306 306 307 307 307 309 309 309
307 307 308 308 309 310 311 311 311 312 309 321 316 311 310 309 296 298 296 300 300 305 306 307 304 306 313 310 309 305 297 296 302 293 288 293 300 303 303 303 302 304 304 304 304 306 305 306 305 305 305 307 307 308
308 308 308 309 310 311 311 311 311 312 314 313 306 293 303 300 302 303 301 302 306 306 307 309 306 306 308 303 303 296 300 298 291 286 287 296 300 303 304 303 301 300 302 303 305 305 304 303 304 305 306 306 307 307
308 309 309 311 311 311 311 311 311 318 318 309 308 297 302 306 307 307 307 306 307 309 308 307 308 308 303 300 299 298 294 289 289 289 295 301 303 303 304 304 302 301 300 300 303 304 305 305 303 303 304 306 305 305
309 309 318 310 310 310 310 315 316 322 316 311 308 304 307 305 304 304 304 303 307 307 309 308 303 299 298 298 294 292 291 287 293 298 302 303 305 305 304 303 305 303 301 300 301 304 306 304 304 304 304 304 305 305
307 323 311 310 309 310 312 321 320 312 312 307 307 309 308 306 304 304 305 304 308 306 301 303 297 295 300 293 291 295 292 295 298 301 303 306 305 304 305 304 304 304 303 302 301 304 304 307 307 306 304 305 304 305
318 321 313 310 311 319 324 321 316 312 305 308 306 308 309 309 306 306 307 307 306 304 304 300 302 295 293 290 292 296 298 299 300 302 303 306 306 305 305 304 306 304 304 304 302 305 304 304 303 303 304 304 303 304
315 313 310 309 311 317 316 316 318 308 309 311 310 311 311 310 311 309 308 308 308 308 304 302 297 295 295 298 297 298 298 298 298 300 303 307 308 305 305 304 304 303 302 303 302 301 302 306 302 302 302 302 300 299
308 309 310 311 313 321 312 315 321 312 309 309 311 309 309 309 311 308 308 307 306 304 300 298 298 299 299 300 301 300 301 300 300 298 299 300 301 304 305 302 300 303 301 302 301 299 301 301 302 301 300 300 299 298
316 320 316 321 327 323 315 313 315 312 312 310 313 313 309 311 309 306 306 309 304 301 300 302 302 304 306 305 304 303 302 301 299 299 298 297 299 301 301 301 301 300 299 299 299 299 298 298 299 300 300 300 299 298
325 314 324 325 320 318 316 317 313 315 313 311 310 311 307 305 306 306 308 304 303 304 305 304 305 304 304 305 304 305 304 304 304 301 299 299 298 298 299 299 299 299 299 299 299 298 298 298 298 300 299 299 299 298
317 320 324 322 314 309 305 318 312 312 306 307 309 305 305 306 308 311 304 306 305 308 309 308 308 310 308 308 308 307 306 303 300 299 300 299 299 300 299 300 299 298 297 299 300 299 299 296 298 299 299 299 299 298
310 321 316 314 312 303 314 311 313 309 309 306 304 302 304 307 309 305 301 304 305 308 308 309 306 304 306 310 305 302 303 302 300 300 300 299 297 298 299 299 299 300 299 299 299 299 299 299 297 298 297 296 297 297
307 305 309 295 312 309 305 305 305 305 302 305 302 302 305 309 303 301 301 304 305 305 307 308 306 304 302 302 302 301 304 300 298 297 299 299 298 297 297 298 299 299 299 298 298 298 298 298 298 297 297 296 296 296
295 310 301 308 308 306 306 302 303 303 303 301 303 308 310 305 300 298 302 305 306 306 306 305 304 302 303 302 300 300 300 301 299 297 298 298 298 296 295 295 295 296 299 299 298 297 297 297 297 296 296 296 294 296
297 307 312 315 311 311 309 309 310 308 304 302 304 305 303 296 298 304 308 311 308 310 310 310 306 305 302 302 302 302 303 302 301 300 301 301 300 299 298 296 295 295 298 299 298 297 296 296 296 296 296 297 296 296
312 311 306 310 311 311 308 307 305 303 304 308 306 302 300 301 302 309 310 312 312 313 311 308 307 306 305 304 303 302 301 301 302 301 301 301 302 300 300 299 299 292 298 298 297 297 296 296 296 296 295 295 295 296
312 314 313 308 309 310 310 307 308 311 312 308 305 302 305 310 309 313 313 314 314 312 308 306 307 308 306 306 305 304 303 301 298 295 295 295 296 297 299 299 299 299 298 298 290 293 295 295 296 296 296 296 296 297
312 316 311 309 307 307 311 313 312 313 313 312 311 311 312 314 317 316 314 313 311 309 307 307 307 305 303 302 300 300 301 301 300 298 295 294 296 298 299 298 298 298 298 297 297 297 292 295 295 296 295 295 295 295
314 312 309 310 308 311 314 315 314 313 313 312 312 309 308 313 313 315 314 314 311 309 307 305 304 305 302 300 299 298 296 300 301 300 299 299 299 299 298 298 299 298 298 297 297 296 295 295 295 294 294 293 293 294
313 311 310 307 308 312 315 313 311 309 310 309 310 310 311 311 310 312 311 310 308 306 300 303 302 301 303 302 301 300 291 300 300 299 298 298 297 297 298 298 298 298 297 297 296 295 295 295 294 294 294 294 293 294
312 311 312 309 309 308 311 311 308 308 309 308 309 311 310 308 305 308 310 310 307 305 304 304 304 303 303 302 301 301 298 297 293 290 290 289 288 291 296 297 297 297 296 296 296 295 294 294 294 294 294 294 294 294

GFSWCAN_sfc_thetae_045.txt.gz
Theta_e
310 311 311 311 311 311 311 311 311 311 311 312 312 313 313 313 313 311 307 308 300 293 295 299 299 295 296 296 291 294 292 294 292 288 288 287 287 289 289 291 289 290 289 288 289 290 288 303 303 297 305 308 308 307
310 311 310 311 311 311 311 311 310 311 311 312 312 312 313 313 313 312 305 309 307 297 297 303 303 304 302 301 297 297 294 293 294 289 289 289 287 291 288 284 294 287 291 287 291 291 300 303 302 305 306 304 304 305
310 310 310 310 310 310 310 310 311 311 311 311 312 313 313 313 313 312 308 305 302 297 297 298 300 305 308 306 306 295 297 297 295 297 292 290 287 290 285 287 289 293 296 290 291 295 297 302 303 304 303 304 305 305
310 310 310 310 310 310 310 310 311 311 311 311 312 313 313 313 312 312 307 306 305 299 292 297 308 304 308 307 305 304 302 301 299 297 291 291 288 292 287 289 288 292 294 290 290 294 296 301 300 302 303 304 306 308
309 309 309 309 309 310 310 310 310 310 311 312 312 313 312 312 312 313 310 308 308 301 293 295 302 304 306 305 303 303 300 298 296 291 290 288 291 290 291 291 290 293 290 288 287 293 293 294 298 301 300 301 303 305
309 309 309 309 309 309 309 310 310 310 311 312 312 313 312 312 312 311 301 306 309 307 298 292 304 303 304 303 301 300 299 297 295 291 289 291 295 290 286 285 292 295 296 295 292 297 297 298 300 301 300 302 303 305
309 309 309 309 309 309 309 309 310 311 311 312 312 312 312 312 311 305 302 307 310 310 298 295 299 303 305 302 300 299 298 294 293 290 288 288 289 291 285 284 292 295 297 298 300 302 299 299 297 302 304 305 306 307
308 308 309 309 309 309 309 309 310 311 312 312 311 311 309 308 306 306 308 308 309 303 300 295 298 301 305 300 296 298 294 294 293 291 291 288 289 287 283 289 295 297 299 304 305 307 301 302 303 304 306 306 304 303
308 309 308 308 309 308 309 310 311 312 311 311 312 311 311 307 308 307 310 308 310 304 298 299 294 295 303 301 299 296 295 290 293 290 291 289 285 285 290 294 296 297 297 300 305 305 304 302 303 306 306 305 303 303
308 309 308 308 308 308 309 310 311 311 311 311 310 310 307 309 310 310 306 303 303 303 303 298 302 298 304 301 299 297 295 294 292 296 297 292 290 298 298 299 299 301 300 301 299 299 302 301 301 303 304 304 303 304
308 308 308 308 308 309 310 311 311 311 310 310 311 311 310 311 309 305 305 304 306 297 305 299 303 302 307 299 298 302 298 297 289 294 294 289 289 296 300 298 300 302 303 301 302 303 303 305 304 304 306 307 307 306
308 308 308 308 309 310 310 311 311 309 317 311 310 319 313 308 307 305 302 306 304 299 308 306 305 307 309 307 299 302 298 299 291 298 291 286 294 299 300 299 299 299 303 302 302 301 302 303 304 304 304 304 305 305
308 308 309 309 309 310 311 311 312 311 311 318 314 313 310 308 296 298 296 300 299 305 305 307 306 309 307 309 304 302 297 294 301 291 286 293 298 300 301 300 298 299 299 303 303 302 302 302 303 303 302 304 303 302
308 309 309 309 310 311 311 312 313 312 312 312 310 293 302 302 301 301 299 300 304 303 303 307 308 306 309 304 302 296 299 296 288 285 286 294 299 300 301 302 299 297 298 298 303 302 301 301 301 302 304 303 303 301
309 309 309 310 311 312 311 312 312 314 315 312 309 294 303 306 305 304 305 304 305 306 306 306 307 305 302 300 299 296 293 288 289 289 294 299 301 301 300 300 300 299 298 297 298 302 302 302 301 301 302 303 303 301
309 309 316 311 311 310 310 312 312 318 320 313 311 305 307 303 302 303 304 302 306 306 307 308 303 298 296 296 292 291 289 287 292 298 301 302 302 302 302 302 301 301 300 299 298 300 303 303 302 302 303 303 302 302
308 319 311 311 310 310 311 320 324 317 312 309 306 310 308 306 304 304 305 304 308 304 300 302 295 295 299 292 291 294 292 294 296 301 303 305 302 303 304 303 303 302 301 300 300 302 302 305 303 301 299 300 300 301
314 321 313 310 309 316 329 323 318 312 306 310 308 309 311 311 307 307 308 308 306 302 303 300 303 295 292 290 291 295 296 297 298 299 303 305 305 304 305 303 302 303 301 300 300 303 302 299 298 300 299 298 297 296
311 311 310 309 310 311 319 319 321 309 309 312 313 311 311 312 316 314 311 313 313 311 306 302 297 293 294 297 296 297 298 297 296 298 301 304 306 304 306 304 301 301 303 300 300 299 301 302 298 298 298 297 295 295
308 309 310 311 312 320 317 317 326 315 310 313 315 312 313 312 315 313 311 309 308 307 302 298 297 299 299 301 303 301 301 301 299 297 298 299 299 300 303 301 300 301 299 301 297 297 296 296 297 298 297 296 294 294
316 321 316 316 324 320 319 315 312 312 314 313 313 315 313 314 312 308 308 312 306 303 300 303 302 305 308 307 307 306 305 302 299 298 298 296 299 300 301 300 300 299 298 297 297 296 296 294 295 297 297 295 295 296
323 317 323 326 320 321 318 322 315 318 315 314 314 312 310 308 309 308 312 307 305 305 307 306 307 307 307 307 306 306 306 305 304 303 299 299 297 296 298 298 298 297 297 297 297 296 296 296 296 297 296 296 296 295
317 320 323 323 314 305 303 323 315 315 309 310 313 307 308 309 311 314 306 308 308 311 311 310 311 311 308 310 311 310 308 305 302 300 300 299 298 299 298 298 298 296 295 297 299 298 297 296 296 296 296 296 297 297
312 319 317 315 312 302 316 313 315 312 312 308 307 304 306 308 310 305 302 304 306 309 310 313 310 306 308 309 305 304 303 301 298 299 299 297 295 296 298 297 298 297 297 298 298 298 298 297 296 296 295 296 296 295
305 304 307 292 311 309 306 307 307 305 302 303 304 306 305 305 299 301 301 305 306 306 308 310 307 306 303 303 302 301 302 299 297 296 297 298 297 296 296 297 296 296 297 296 296 296 296 297 296 296 295 295 295 295
294 309 302 309 310 308 305 302 304 298 301 299 303 307 308 304 299 298 301 305 305 307 308 308 305 304 303 305 301 300 300 300 301 297 298 298 297 295 294 294 293 293 296 297 296 295 295 296 295 296 295 295 294 294
295 307 313 318 313 311 309 306 307 305 303 300 302 305 304 299 297 298 305 307 309 311 314 310 307 305 305 304 304 303 303 303 302 301 301 301 299 299 298 295 293 295 298 297 296 295 294 294 295 295 295 295 295 295
312 315 307 311 312 312 303 303 302 303 307 308 307 302 300 301 299 306 310 310 313 312 310 309 310 307 306 306 304 304 303 302 302 303 301 301 301 300 300 299 298 294 296 295 295 296 295 294 294 294 295 294 294 295
312 314 314 310 311 311 308 307 306 309 313 311 305 304 305 308 311 310 312 314 313 311 308 307 307 308 307 305 306 302 301 300 298 296 294 294 295 296 298 298 298 298 298 296 291 294 295 294 295 295 296 295 296 296
312 316 312 311 309 307 311 313 312 314 315 313 313 311 310 311 314 316 314 313 309 306 307 307 306 304 301 299 298 299 300 300 299 296 294 293 294 297 297 297 298 298 298 297 297 297 294 295 296 296 295 294 294 294
315 313 309 309 309 312 313 315 316 314 313 307 310 308 308 310 312 313 312 312 311 309 306 303 302 302 300 298 297 296 295 298 298 297 297 297 296 296 296 298 298 298 298 297 296 295 295 294 294 294 293 293 293 293
314 312 310 308 309 313 317 312 312 310 309 308 305 308 311 308 307 309 310 309 306 304 300 302 300 298 300 300 300 298 296 296 295 295 294 294 294 296 296 296 296 297 297 296 296 295 294 294 293 293 293 293 294 294
313 311 313 310 310 310 311 311 309 308 310 308 308 310 309 309 303 306 313 311 306 303 302 302 302 302 303 301 298 297 295 294 291 290 290 290 290 292 294 294 294 295 295 295 295 294 294 293 293 294 294 293 293 293

GFSWCAN_sfc_thetae_048.txt.gz
Theta_e
309 310 310 311 311 311 311 311 310 311 311 311 312 312 313 313 313 310 306 306 300 293 295 298 299 295 295 295 290 294 289 289 286 284 285 284 285 287 287 289 287 287 286 285 286 288 286 299 300 293 296 301 302 303
310 310 310 311 311 311 310 310 311 311 310 311 312 312 313 313 313 312 304 309 306 298 298 301 302 303 301 300 296 297 292 290 289 286 286 287 285 288 287 283 291 285 289 287 287 289 298 300 301 303 301 299 299 301
310 310 310 310 310 310 310 310 311 311 311 311 312 313 313 313 313 312 306 305 302 297 296 298 300 306 307 306 306 294 296 297 292 292 288 288 286 287 283 285 288 291 293 288 286 291 293 296 300 300 300 299 300 301
310 310 310 310 310 309 310 310 310 310 311 312 313 313 313 313 313 309 304 305 302 296 287 293 306 300 307 303 305 304 301 300 298 292 286 285 285 290 285 286 286 291 292 289 288 290 294 297 298 299 300 301 301 302
309 309 310 309 309 309 309 310 310 310 311 312 312 313 312 312 312 311 306 303 301 296 287 290 296 298 301 300 300 300 298 297 295 291 288 286 290 288 286 286 288 293 290 287 287 293 293 294 297 300 300 300 301 301
309 309 309 309 309 309 309 309 310 311 311 312 312 312 312 312 312 309 300 304 304 300 291 287 297 301 302 299 298 296 297 295 294 290 288 290 293 289 284 282 292 293 295 298 297 299 297 298 299 301 302 302 303 303
309 309 309 309 309 309 309 309 310 311 311 312 312 311 312 311 305 302 298 303 306 302 295 290 293 300 301 297 296 296 296 293 293 290 289 289 290 290 285 283 290 297 298 299 302 304 298 300 300 304 302 304 306 306
308 309 309 308 308 308 308 309 311 311 312 311 311 310 309 308 306 301 302 307 305 298 295 293 295 298 303 298 294 294 291 293 292 290 291 288 289 287 284 290 296 297 298 299 301 303 301 303 303 303 304 304 304 305
308 309 308 308 308 308 308 309 311 311 311 311 311 311 306 302 300 301 310 308 303 298 295 296 293 293 301 299 297 293 291 289 293 290 291 291 285 284 288 293 295 299 296 297 301 302 303 303 303 304 303 304 303 302
308 309 309 308 309 308 309 310 311 311 310 311 306 303 301 302 312 308 301 299 300 296 295 293 299 296 302 299 297 295 294 293 290 291 294 290 290 296 297 297 297 300 300 300 297 296 299 300 300 301 302 302 301 302
308 308 309 309 309 310 310 310 311 310 309 303 302 302 302 311 302 301 299 293 293 294 296 295 299 298 304 297 296 299 295 292 285 288 288 289 288 295 299 297 297 299 303 301 301 301 301 301 300 299 300 301 301 301
308 308 309 309 309 310 310 310 310 304 306 306 304 307 304 300 299 296 294 296 294 292 298 297 298 301 300 300 296 299 294 293 285 293 287 285 293 297 296 298 297 296 301 301 302 301 301 302 302 301 300 300 300 300
308 308 309 309 309 310 310 310 311 309 308 307 305 303 302 299 290 293 290 291 291 295 295 299 298 300 301 300 297 296 291 290 293 286 285 290 294 296 296 296 297 296 298 302 301 301 301 301 302 300 299 300 300 300
308 308 309 309 309 310 310 311 312 310 304 303 304 289 294 293 295 294 292 292 296 295 296 296 302 298 299 297 294 292 291 290 284 283 284 289 293 295 296 297 296 295 295 297 302 300 300 300 299 300 300 299 298 297
308 309 309 310 311 311 311 311 312 307 307 305 301 291 298 299 297 297 297 296 297 297 296 296 300 295 293 292 291 291 288 284 286 284 287 292 294 294 295 296 296 296 295 294 295 300 301 300 300 300 300 300 299 298
308 309 312 311 310 310 309 311 308 309 310 307 301 296 298 296 295 295 296 294 297 297 298 297 293 291 289 288 287 285 284 277 285 289 292 293 294 294 294 296 297 297 293 294 295 297 300 300 300 300 301 301 301 300
308 309 311 310 309 310 310 312 315 312 307 302 302 301 299 297 296 296 296 296 298 295 291 292 289 288 290 287 286 288 285 286 288 291 294 295 296 295 296 296 296 296 294 293 294 297 296 301 297 295 293 294 295 300
306 312 311 309 308 310 316 311 312 306 304 300 298 299 301 300 297 297 299 298 296 294 293 292 293 289 286 286 285 287 288 289 289 290 292 296 297 296 297 296 296 293 294 293 293 295 295 294 294 293 293 293 293 294
306 307 308 309 308 305 312 312 310 305 305 304 303 301 300 301 302 301 300 300 300 298 295 293 290 287 287 289 289 289 289 289 289 291 292 292 291 291 294 295 292 293 293 291 290 290 290 291 291 293 292 292 291 292
308 309 309 310 310 310 312 308 312 307 305 303 303 301 300 300 302 302 300 298 297 296 293 291 291 291 291 292 293 292 291 292 291 290 290 292 291 292 292 293 291 291 293 290 290 292 289 290 291 291 291 291 291 291
311 317 314 310 310 309 312 305 304 307 303 302 305 304 302 304 302 298 297 299 295 292 292 294 295 295 296 296 296 296 293 293 291 291 291 290 291 290 291 292 292 290 290 289 288 289 290 288 289 290 291 290 291 292
310 316 313 315 314 318 309 310 304 305 304 303 304 304 301 300 301 300 301 297 295 296 297 297 296 297 297 296 296 297 299 297 294 295 294 292 289 289 289 290 291 290 290 289 290 289 289 289 289 290 291 293 293 293
312 313 315 317 312 300 299 308 304 306 302 301 303 300 300 303 305 305 298 299 299 300 301 299 300 300 298 299 300 299 299 296 292 290 290 289 289 290 290 290 290 290 290 291 290 291 291 291 291 291 291 292 292 292
313 313 311 309 305 297 307 305 309 307 305 300 299 298 299 301 303 299 299 299 303 304 302 301 300 296 298 297 294 293 292 291 290 289 289 289 288 288 290 289 289 289 289 291 290 290 290 291 291 290 291 291 291 290
301 300 301 292 303 303 303 303 303 301 298 299 298 297 299 302 295 296 296 297 301 302 303 302 301 296 294 293 291 291 291 291 290 288 289 289 288 288 288 288 288 288 289 289 289 290 290 291 291 291 291 291 290 290
293 304 298 304 304 303 305 301 301 300 300 299 298 300 301 298 296 293 296 301 303 304 304 301 297 295 296 295 291 290 291 291 291 289 289 290 289 288 287 286 286 287 289 289 289 290 290 292 292 291 291 291 291 291
294 301 305 309 305 305 302 304 304 302 301 299 299 302 301 296 295 298 301 304 304 305 304 301 299 297 295 292 293 295 294 292 292 291 292 291 290 291 290 287 286 288 290 291 291 291 290 290 290 291 290 290 290 290
308 307 304 305 308 305 303 302 300 298 301 306 304 297 299 299 297 302 304 307 307 308 302 300 300 299 298 298 297 294 293 294 294 294 294 294 292 292 291 290 290 292 290 291 291 291 292 292 291 291 291 290 290 291
307 308 307 304 308 305 304 302 302 303 306 305 302 299 301 306 306 306 306 306 310 304 298 299 299 300 298 296 295 295 295 295 293 290 289 288 290 290 292 293 292 292 289 290 292 291 292 291 292 290 291 291 292 292
307 310 306 306 304 302 307 308 306 309 306 305 305 304 304 305 307 309 307 302 299 298 297 296 294 295 293 292 292 292 293 292 291 289 286 286 286 288 290 292 292 292 292 292 293 293 293 294 295 293 291 289 288 288
309 308 307 305 303 305 307 310 309 306 305 305 306 302 304 305 305 307 301 301 300 297 295 293 292 292 291 290 290 288 287 288 289 289 289 288 288 289 290 290 290 291 293 294 294 293 292 291 291 291 291 290 289 289
308 307 306 304 304 308 309 306 305 302 304 303 302 306 305 303 300 300 301 299 296 294 295 293 291 291 292 292 291 291 290 288 287 288 289 288 288 288 288 288 289 292 292 292 291 291 292 290 290 290 290 291 290 291
308 307 307 305 304 303 305 305 305 303 304 302 303 305 305 302 297 299 302 300 296 294 293 293 295 294 293 292 291 290 290 288 289 290 290 290 290 289 287 287 288 290 291 290 290 290 289 290 290 290 291 290 290 289

GFSWCAN_sfc_thetae_051.txt.gz
Theta_e
310 310 310 311 311 311 311 310 310 310 311 311 312 312 313 313 313 309 305 306 301 294 295 298 299 296 296 294 288 293 291 289 288 284 283 283 284 286 286 287 286 286 285 285 287 288 287 299 299 291 293 297 297 297
310 310 310 311 311 311 309 310 310 311 311 311 312 313 313 313 313 311 304 308 306 299 298 298 302 303 302 301 297 296 292 292 290 286 286 287 286 286 285 282 291 285 287 285 286 288 297 297 300 298 299 297 297 297
310 310 310 310 310 309 309 309 310 311 311 312 312 313 313 313 313 311 305 305 303 297 293 293 296 303 304 304 306 295 295 293 291 294 289 288 285 287 283 284 288 290 293 288 287 291 292 296 298 300 299 299 301 300
309 310 310 310 309 309 309 310 310 311 311 312 313 313 312 313 313 308 301 305 300 293 286 292 301 299 303 301 303 304 300 299 294 292 287 286 286 290 287 288 289 290 292 288 289 292 294 297 299 299 300 301 303 304
309 309 310 309 309 309 309 309 310 311 311 311 312 312 312 312 313 307 301 300 299 295 287 289 294 297 300 300 299 300 297 295 293 290 288 286 290 289 288 288 288 291 288 286 287 295 295 295 299 301 299 300 302 303
309 309 309 309 309 309 309 309 310 311 311 312 312 312 313 312 312 306 299 301 302 299 291 290 297 297 298 298 297 295 296 294 292 290 288 290 293 290 285 285 292 296 298 298 296 301 302 301 301 302 300 302 305 304
308 309 309 308 308 308 308 309 310 311 311 312 311 311 311 311 304 302 297 301 304 300 291 290 295 298 301 296 293 293 294 291 292 291 289 289 289 290 286 284 292 297 298 299 301 302 300 303 301 303 304 305 305 306
308 309 309 308 308 308 308 309 310 310 311 311 310 310 308 309 306 301 301 307 304 296 293 290 296 299 300 295 292 291 290 290 291 290 292 290 289 288 282 289 294 298 298 298 299 302 300 302 303 302 304 305 303 304
308 308 309 309 309 309 308 309 310 310 311 311 311 311 305 301 298 301 309 307 301 297 295 296 292 293 301 298 292 292 290 289 291 289 292 292 286 285 289 290 293 296 297 297 299 300 300 299 299 300 300 299 299 300
308 308 309 309 309 309 309 310 311 310 310 310 305 302 299 301 311 307 299 299 300 294 292 293 294 296 298 298 297 295 291 289 289 292 295 291 289 294 295 296 294 296 300 300 296 296 297 297 298 298 298 299 299 299
308 308 309 309 309 309 310 310 311 310 308 302 300 300 301 309 301 301 299 294 294 293 295 292 294 293 303 296 296 298 294 291 284 288 288 288 287 292 295 295 295 295 299 300 300 300 300 299 298 298 297 298 298 299
308 308 308 309 309 309 310 310 310 304 303 304 303 305 301 299 296 294 292 293 292 290 295 295 296 296 298 300 297 296 293 293 284 291 288 283 287 293 294 295 295 294 298 300 300 298 299 298 297 297 297 297 297 298
308 308 308 309 309 310 310 310 310 308 307 304 303 300 301 296 288 290 287 289 289 292 293 295 295 298 300 297 295 294 290 286 290 284 284 287 290 293 293 294 295 295 296 298 298 299 299 298 299 297 296 297 298 297
307 308 308 309 309 310 310 310 311 310 302 302 302 289 293 292 296 296 291 290 294 293 293 292 295 296 296 297 292 288 288 288 282 275 279 287 290 292 293 294 294 294 293 293 298 298 298 298 298 298 298 298 297 297
307 308 308 308 310 311 310 310 311 306 305 303 299 289 297 298 296 295 295 293 294 294 293 295 294 292 289 289 288 288 285 279 280 279 285 290 292 293 293 293 293 294 294 294 295 298 298 298 298 297 298 299 299 299
308 308 310 311 310 310 309 310 307 307 307 305 301 295 295 293 293 294 294 292 294 294 294 293 290 289 287 287 285 284 283 276 282 286 290 291 294 293 293 294 294 294 293 291 293 294 298 298 297 297 299 299 299 299
307 305 310 309 309 309 309 308 310 309 307 300 298 299 296 296 294 294 294 294 294 292 289 290 287 287 288 286 284 286 283 284 286 288 288 291 292 293 294 294 294 294 292 291 292 292 294 295 293 292 291 292 296 299
303 308 310 308 308 307 310 308 310 308 301 300 298 300 298 297 295 295 296 296 294 291 291 290 290 287 285 284 284 286 287 287 288 287 289 291 291 291 293 293 294 290 291 290 289 289 288 290 290 290 289 290 291 291
304 305 307 308 307 303 308 311 308 301 304 300 300 298 298 299 299 298 297 296 296 295 293 291 289 287 286 287 288 288 288 287 287 289 290 290 290 289 290 291 291 291 290 288 287 287 287 286 288 288 288 290 289 289
307 308 309 309 308 308 310 309 308 303 302 300 299 298 299 299 299 300 298 296 295 293 291 290 290 290 290 291 291 291 290 290 289 288 288 290 291 289 289 289 288 289 289 288 287 290 288 288 288 288 288 289 289 289
307 312 311 308 306 307 308 306 301 303 302 299 300 302 302 303 301 296 296 299 294 292 291 293 293 295 294 294 293 292 292 293 291 290 289 289 290 287 287 288 288 288 288 288 287 287 288 287 287 287 288 288 289 290
306 312 310 310 311 312 308 307 302 301 301 301 302 302 300 300 300 301 301 299 296 296 297 296 295 295 295 294 295 294 297 296 292 290 291 290 286 287 287 287 287 287 287 288 287 287 287 287 287 289 289 289 291 290
310 311 312 314 310 299 299 305 301 302 300 302 303 301 299 299 303 303 297 298 299 303 302 299 299 298 296 297 296 297 297 291 288 287 286 286 286 286 287 287 287 288 288 288 287 288 287 289 290 290 290 289 289 288
312 310 308 306 303 297 304 302 305 303 302 298 297 296 299 299 301 298 296 296 299 304 301 300 301 295 298 297 295 291 290 289 287 286 286 287 286 285 285 285 286 286 287 288 288 289 289 290 290 289 289 289 289 288
299 298 299 291 301 300 300 300 300 300 297 298 297 298 299 301 296 295 293 296 297 300 299 299 298 297 294 290 288 288 288 289 287 287 287 287 286 285 286 286 285 286 287 288 288 289 289 290 290 290 289 289 289 288
294 303 297 302 302 300 303 298 299 298 298 298 299 301 302 300 297 295 296 298 299 300 299 300 298 296 292 290 288 288 290 289 288 286 287 287 287 287 285 284 284 286 287 286 287 289 289 290 290 290 290 290 290 290
294 299 300 304 302 302 301 302 301 298 298 297 297 300 301 295 294 296 298 300 300 303 303 302 299 297 293 290 290 292 291 289 289 290 289 289 288 290 289 286 286 286 288 290 290 289 289 289 289 289 288 288 288 289
305 305 302 302 303 303 301 299 298 297 298 300 299 296 296 296 294 298 299 303 306 304 301 298 297 295 291 289 290 291 290 293 293 291 291 289 290 289 290 289 288 290 290 291 290 290 290 290 289 289 289 289 289 289
304 306 305 302 303 302 301 300 300 302 304 301 299 297 298 301 302 301 302 304 303 300 295 294 292 292 294 294 293 292 290 289 289 288 287 285 286 288 288 288 288 289 289 290 292 291 293 292 290 290 290 291 291 289
303 308 305 303 302 300 304 304 303 304 303 302 302 302 302 302 304 304 299 294 292 290 290 291 292 293 291 289 286 287 287 286 287 286 284 283 284 286 289 290 291 291 290 292 292 291 292 291 292 290 289 287 286 287
304 305 304 303 301 302 304 306 305 305 304 303 303 301 302 301 301 302 294 292 291 291 291 289 288 289 288 286 284 283 283 285 287 287 286 285 285 286 287 288 289 290 290 292 290 289 289 288 288 289 288 287 288 288
304 304 303 300 300 303 305 302 301 300 301 301 301 303 301 300 298 295 295 292 291 289 291 290 288 287 287 287 286 286 288 285 286 286 286 285 285 285 286 287 289 290 290 289 289 288 289 287 287 288 287 288 288 288
304 303 303 302 301 301 302 302 301 300 300 300 301 302 302 299 295 296 296 294 291 290 289 289 289 288 288 288 288 287 288 287 288 289 289 289 289 287 285 286 288 289 288 288 288 288 288 288 287 287 287 287 286 287

GFSWCAN_sfc_thetae_054.txt.gz
Theta_e
311 310 310 311 310 310 310 310 310 311 311 312 312 313 313 313 313 305 301 306 302 295 294 295 299 296 296 294 287 292 291 287 288 285 284 283 283 285 285 286 285 285 283 284 286 285 285 295 297 291 294 296 297 297
310 310 310 310 310 309 309 310 310 311 311 312 312 313 314 313 313 309 302 308 306 299 296 296 298 302 301 300 297 295 292 291 292 287 287 286 285 285 286 282 290 285 287 284 286 286 294 296 295 298 298 296 297 297
310 310 310 310 309 309 310 309 310 311 311 312 313 313 313 313 313 308 303 305 303 296 292 293 295 298 300 298 303 294 296 295 291 294 290 288 285 287 283 285 288 290 293 287 288 292 294 297 299 300 300 298 300 302
309 309 310 310 309 309 309 310 310 311 311 311 313 313 313 313 313 308 300 302 296 291 287 292 299 296 301 300 300 300 298 295 291 290 285 285 286 290 285 286 288 290 291 287 288 293 296 299 301 301 301 302 302 303
309 309 309 309 309 309 309 310 310 311 312 312 313 313 312 313 312 305 300 299 297 296 291 293 294 297 296 297 298 299 296 294 292 289 287 285 289 288 289 289 287 294 289 287 287 295 296 297 302 303 301 301 302 303
309 309 309 309 309 309 308 309 310 311 311 312 312 313 312 312 311 306 297 299 300 297 290 291 298 294 297 297 297 295 295 294 292 289 288 290 293 290 285 285 292 295 297 298 296 301 301 302 303 303 303 304 305 305
308 309 309 309 309 309 308 309 310 310 311 311 311 311 311 311 304 301 297 300 303 298 290 288 296 299 299 293 292 292 293 292 292 292 290 289 290 290 286 284 292 296 297 298 300 300 297 299 297 300 300 303 306 306
308 309 309 309 310 309 309 309 310 310 311 311 310 309 309 309 305 299 300 306 302 295 292 288 294 299 301 292 290 290 289 289 291 291 292 290 291 289 283 290 294 297 297 298 299 300 299 300 300 300 300 300 299 299
308 309 309 309 309 309 309 309 310 310 311 311 310 310 304 300 297 300 309 306 299 296 293 295 292 290 298 297 293 290 289 288 289 290 292 292 286 285 289 293 293 296 297 297 299 299 299 298 298 298 298 297 296 297
308 308 309 309 309 309 309 309 311 311 310 310 304 301 298 300 309 306 298 298 300 297 293 292 294 292 295 296 297 295 289 287 288 292 295 291 289 294 295 295 295 296 299 299 295 294 296 295 296 296 296 297 297 297
308 308 308 309 309 308 308 310 310 309 307 301 299 300 301 308 300 302 298 296 295 294 295 293 295 291 300 297 294 298 292 290 283 289 287 284 280 290 295 294 295 295 299 300 299 298 297 296 296 296 296 297 297 297
308 308 308 309 308 308 308 310 310 303 301 303 302 303 300 298 296 293 291 291 290 290 293 293 294 295 295 300 297 294 294 291 283 290 284 277 286 292 293 294 295 294 297 299 300 298 298 297 297 295 295 295 297 298
307 308 308 308 308 309 310 310 310 308 306 303 301 298 300 295 287 290 286 288 288 291 292 292 292 296 300 295 294 292 289 285 288 283 283 285 289 292 293 294 294 295 295 299 298 299 299 298 298 297 295 297 297 298
307 308 308 308 307 309 310 310 310 309 301 300 300 289 292 290 295 292 290 289 293 292 292 290 291 294 294 294 290 286 287 287 281 273 277 286 289 292 293 294 294 294 294 294 297 299 298 298 297 298 297 297 296 296
307 308 308 308 308 310 310 310 310 305 302 300 298 287 292 296 294 294 294 292 293 292 291 293 291 290 288 288 287 286 284 279 279 279 284 289 291 292 293 293 293 294 294 292 293 297 298 298 298 297 298 298 297 296
308 308 308 309 309 309 309 309 306 305 305 302 300 295 296 292 292 292 292 292 292 291 292 291 289 288 286 286 285 285 283 277 283 285 289 289 292 293 293 293 294 294 293 291 292 294 297 298 297 296 296 296 298 297
307 304 309 308 308 309 309 306 306 305 304 301 297 297 299 294 294 293 293 293 292 291 289 288 287 286 287 285 285 286 284 286 287 287 287 288 290 292 293 293 294 293 292 292 291 293 295 295 294 291 290 291 292 296
301 305 308 307 307 306 307 305 308 307 302 300 296 300 298 296 295 294 294 295 293 290 290 290 290 286 285 284 284 286 287 288 288 287 288 289 290 289 289 289 292 291 291 290 289 289 289 291 290 289 289 291 291 291
303 305 307 308 306 301 305 308 307 300 301 299 299 297 298 297 299 297 296 296 295 293 293 290 289 286 286 287 288 288 288 288 287 288 289 289 289 289 289 290 291 291 290 289 288 288 288 289 289 289 289 290 289 290
307 308 309 309 308 305 307 307 306 301 299 300 297 297 298 299 300 300 299 298 298 296 294 292 291 292 290 290 290 291 290 289 289 288 289 291 291 288 288 288 289 289 288 288 288 290 289 289 289 289 290 290 291 291
307 310 309 307 304 305 306 305 300 301 301 298 298 299 300 302 302 296 296 296 295 295 294 296 297 296 295 294 293 291 291 290 290 290 290 289 290 287 287 288 288 289 289 289 288 289 289 289 288 289 291 291 291 291
304 311 308 308 308 309 306 307 302 299 299 300 301 302 301 299 301 299 298 296 294 295 298 300 299 298 299 296 293 293 295 293 291 289 290 289 287 287 287 287 288 289 290 290 289 288 289 289 290 290 291 291 291 292
309 309 309 311 307 298 298 303 299 300 298 299 300 298 298 298 301 301 297 297 297 300 302 300 301 300 297 295 295 296 294 290 288 287 287 287 287 286 287 287 288 289 289 289 289 289 289 290 291 292 292 292 292 291
309 308 306 304 302 297 303 300 303 300 300 297 296 294 298 299 302 299 295 296 297 299 300 302 300 296 295 296 295 294 292 289 288 287 287 287 286 286 286 286 287 288 288 288 290 290 291 291 291 292 292 291 291 290
298 297 297 289 299 299 298 299 298 298 296 297 296 296 296 299 295 294 292 294 295 298 298 298 300 297 293 291 289 289 289 289 288 287 287 288 287 286 287 287 288 288 289 290 290 291 291 292 292 292 292 291 291 291
292 301 296 300 300 298 299 297 297 297 297 297 296 298 297 294 294 293 293 296 297 299 299 298 298 295 293 291 289 288 290 290 288 288 288 288 288 288 287 288 287 290 290 290 291 291 291 291 291 292 292 292 291 292
292 299 299 301 300 301 299 300 300 298 297 296 296 298 297 292 292 295 297 298 299 303 302 301 299 296 293 290 291 295 294 291 291 291 290 289 289 290 290 289 288 290 291 293 292 291 292 292 292 292 291 291 291 292
303 302 300 301 301 302 300 298 297 296 297 299 298 295 296 295 293 297 299 301 303 301 297 293 291 290 290 291 291 290 290 290 289 289 290 290 290 290 289 290 291 291 293 292 292 293 293 293 293 292 292 291 292 292
302 305 305 302 302 301 300 300 299 300 302 299 297 296 297 300 302 301 301 300 300 294 290 290 289 290 289 289 288 288 288 289 290 289 287 286 286 288 290 291 291 293 293 293 293 294 294 292 294 294 293 293 294 291
301 304 302 302 301 300 302 303 302 302 302 302 302 301 300 301 303 301 295 291 291 290 290 290 289 288 286 286 285 287 287 287 287 287 286 285 286 287 289 291 291 292 294 296 294 293 292 293 292 292 291 290 290 290
303 303 302 302 301 302 303 303 303 303 303 302 302 300 299 300 300 294 292 290 289 289 289 288 287 286 286 285 285 285 285 286 287 287 286 286 287 289 290 290 291 292 293 293 292 292 291 291 291 290 290 290 290 290
302 302 301 300 299 302 303 301 301 300 301 300 300 302 300 300 297 295 293 291 290 289 290 289 288 287 287 286 287 287 287 287 287 287 287 287 287 289 290 291 291 292 292 291 291 291 291 290 290 290 290 290 290 290
303 302 301 300 299 299 301 301 300 299 300 299 300 301 301 299 296 296 294 292 291 290 289 289 288 287 288 288 288 288 288 288 289 289 289 289 288 288 289 289 290 291 290 290 290 290 290 290 289 289 289 289 289 289

GFSWCAN_sfc_thetae_057.txt.gz
Theta_e
311 311 310 311 310 310 309 310 311 311 311 312 312 313 313 313 313 310 307 310 304 298 300 300 300 296 296 295 289 294 293 292 290 286 286 285 285 286 285 287 285 284 284 284 285 282 281 294 294 293 298 301 301 303
310 310 310 310 310 309 309 310 311 311 311 312 313 313 313 313 313 309 304 309 308 301 300 304 304 304 302 301 297 297 293 292 292 287 288 288 285 286 287 284 290 286 289 288 289 288 294 297 296 300 303 301 300 302
310 310 310 310 309 309 309 310 310 311 312 312 313 312 312 314 313 310 307 307 306 300 300 300 302 305 306 304 306 296 299 297 296 296 291 288 285 287 283 285 287 289 292 287 287 292 294 298 301 303 305 303 303 305
310 310 310 310 309 309 309 310 310 311 312 312 313 313 313 314 313 310 307 308 304 300 296 299 304 304 305 305 303 304 302 300 298 295 291 288 287 291 286 286 287 290 291 288 289 294 295 296 301 303 306 306 305 306
309 309 309 310 309 309 309 309 310 311 311 312 312 313 313 314 311 309 308 308 306 302 297 301 304 304 304 303 301 301 301 299 296 293 290 287 291 289 291 290 287 293 292 288 288 296 297 296 300 302 303 305 306 306
309 309 309 309 309 309 309 309 310 311 311 312 312 313 313 313 310 309 304 307 307 307 300 295 305 302 303 304 302 300 300 298 297 293 291 294 294 291 288 286 291 295 298 298 295 299 298 299 300 301 301 302 302 302
308 309 309 309 309 309 309 309 310 310 311 311 311 311 312 311 312 307 303 306 306 307 300 297 300 302 302 301 300 301 300 298 298 295 293 293 293 293 288 285 292 296 298 298 300 300 297 298 297 300 301 301 302 302
308 309 309 309 309 309 309 309 310 310 310 311 311 309 310 310 308 306 308 307 307 304 300 296 298 301 304 300 297 297 298 299 297 296 298 293 292 292 286 294 295 297 299 299 299 300 298 299 299 299 301 300 299 299
308 308 309 309 309 309 309 309 309 309 310 311 310 310 310 308 306 307 309 309 307 302 298 297 294 297 305 301 300 297 297 294 297 295 296 296 288 286 293 296 296 296 298 298 298 298 297 297 297 297 297 297 297 297
308 308 309 309 309 308 308 308 310 311 310 310 309 308 306 308 310 309 305 300 301 300 299 294 300 297 305 302 301 297 296 294 290 295 298 294 292 298 299 300 299 300 301 300 296 295 295 295 295 296 296 297 297 297
308 308 308 309 309 308 308 308 310 309 308 308 307 307 309 308 308 304 300 299 299 296 299 296 297 298 306 300 301 301 296 294 287 290 291 291 290 296 301 300 301 300 303 301 301 300 300 298 297 296 297 297 298 298
308 308 308 308 308 308 308 307 310 309 309 309 309 309 308 306 303 300 297 298 297 298 302 301 303 299 305 305 301 303 297 296 289 296 292 287 294 299 300 300 301 301 300 302 302 300 301 300 300 298 298 298 299 299
308 308 308 308 308 308 308 310 310 308 308 310 308 306 306 303 294 295 293 296 296 301 301 301 299 305 303 305 302 300 292 291 296 291 287 293 299 300 300 301 301 302 300 302 302 303 302 302 302 301 299 300 300 300
307 308 308 308 307 307 308 310 310 309 309 306 306 293 299 297 299 300 300 299 302 300 301 299 300 304 304 301 299 293 294 294 288 285 287 296 300 301 301 302 301 300 300 300 301 304 303 303 303 304 304 303 300 299
307 308 308 309 308 309 310 310 310 310 309 306 306 295 299 304 303 303 303 301 303 302 300 301 301 299 297 294 295 293 289 286 289 289 295 300 301 300 302 302 301 301 300 300 300 302 303 302 304 303 303 304 303 301
308 308 310 308 309 309 309 310 311 311 310 308 307 304 305 300 303 302 302 302 303 301 301 300 297 295 293 294 291 289 288 287 292 297 299 299 299 301 302 301 302 302 301 301 301 302 303 302 302 300 300 300 301 303
307 311 308 308 308 309 309 311 311 308 308 307 306 308 306 303 302 304 303 304 302 301 298 297 293 291 294 292 290 293 292 294 296 297 298 299 299 300 299 298 300 301 300 301 300 300 302 302 300 298 298 298 299 300
305 310 307 307 307 309 312 311 312 311 308 311 305 308 304 306 304 305 304 304 302 300 299 296 296 292 291 288 290 294 295 295 298 298 298 299 300 300 299 298 299 300 300 299 299 299 299 299 297 297 297 298 298 299
306 307 307 308 307 308 309 312 312 307 308 309 308 307 306 306 307 307 306 305 303 303 300 297 294 292 291 295 294 296 296 296 297 299 299 300 300 299 299 299 299 300 299 299 299 298 298 298 297 297 297 298 297 298
307 309 310 309 309 310 310 314 314 309 306 309 308 307 306 307 309 309 306 306 306 302 298 295 296 297 296 298 297 297 299 300 298 298 299 300 299 298 298 297 298 299 297 297 298 295 298 298 297 298 298 297 297 297
309 313 309 311 311 311 311 312 311 310 310 308 307 308 309 311 308 306 305 305 302 298 297 300 300 301 303 301 299 300 300 300 300 301 298 296 297 297 297 297 298 297 296 297 298 296 296 297 297 299 298 298 298 299
312 311 315 312 314 314 314 316 312 310 307 308 310 310 308 307 306 306 306 304 301 303 305 303 304 305 305 306 305 302 302 302 301 298 294 295 297 296 296 296 297 297 298 298 297 297 297 297 298 299 298 298 298 298
311 312 316 316 313 304 304 311 307 308 305 307 307 304 305 305 307 308 303 304 305 308 308 305 307 308 305 305 303 303 303 301 298 297 297 297 296 297 296 296 297 296 296 297 298 298 298 294 295 298 298 298 298 298
310 314 311 311 310 303 311 307 310 308 307 305 303 301 303 304 307 303 301 304 306 307 305 307 306 306 305 304 305 304 304 300 298 296 298 296 295 295 296 295 296 297 297 298 298 298 298 298 296 298 298 297 296 296
301 302 303 291 305 305 302 303 304 304 301 302 301 301 304 306 301 300 299 303 305 306 308 308 308 307 303 302 301 298 297 297 296 296 297 297 296 294 295 296 296 296 298 297 297 297 298 298 298 298 297 296 295 295
291 305 299 305 306 304 305 302 302 302 303 302 302 306 306 303 298 297 302 304 307 308 309 308 307 306 304 302 301 296 297 300 299 297 298 296 296 296 294 295 296 294 296 297 296 295 297 297 296 296 295 295 292 296
295 304 308 310 308 307 306 307 307 304 301 301 303 303 303 296 295 302 307 308 309 310 310 307 307 304 300 299 300 300 300 300 299 297 297 297 297 298 296 295 293 295 299 298 296 296 296 296 295 295 295 296 296 296
308 308 304 308 307 310 306 304 303 303 303 306 305 300 299 298 300 307 308 310 310 302 298 297 297 297 296 295 296 297 297 297 296 297 297 296 296 296 297 298 299 294 299 298 298 298 298 298 296 296 296 296 297 296
307 312 311 307 308 307 307 307 307 309 310 307 304 302 303 308 310 308 307 304 303 299 297 296 295 296 295 295 295 295 295 296 296 294 293 292 294 293 297 299 299 299 298 298 292 294 296 298 298 297 297 297 297 297
307 311 308 307 306 306 309 311 310 311 311 310 310 309 309 309 307 304 302 300 299 298 297 297 296 296 294 294 293 292 294 294 294 293 291 292 293 295 297 297 298 298 300 300 298 297 292 296 294 297 296 296 297 297
310 310 308 309 307 309 311 311 311 310 310 309 309 308 305 304 303 301 299 299 298 297 296 295 294 295 295 294 293 292 290 293 294 294 295 296 297 297 297 298 298 299 298 298 297 297 296 296 296 295 295 294 294 294
308 308 308 306 306 309 309 308 308 307 307 307 307 308 306 306 301 299 298 298 298 297 294 296 294 293 294 294 293 293 291 293 294 294 296 296 297 297 298 298 298 297 297 296 296 296 296 295 295 295 294 293 293 294
310 309 308 306 305 305 307 307 306 305 306 305 306 307 305 305 301 300 300 300 300 298 297 296 295 295 295 295 294 293 293 294 292 289 289 288 288 291 296 297 297 296 296 296 296 296 294 294 294 294 293 293 293 293

GFSWCAN_sfc_thetae_060.txt.gz
Theta_e
311 311 311 310 310 310 310 310 311 311 312 312 313 313 313 314 313 313 310 315 309 304 305 305 304 300 300 299 292 298 297 295 292 288 288 288 286 287 287 290 288 287 287 286 288 285 282 300 298 290 296 303 304 305
311 310 311 310 310 310 310 310 311 311 312 313 313 313 313 314 313 312 310 312 312 304 306 310 309 308 305 304 299 301 297 295 293 289 290 289 287 288 287 285 293 286 291 289 290 291 299 299 298 300 301 302 303 303
310 310 310 310 309 310 310 310 311 311 312 312 313 312 313 314 314 312 314 313 309 306 307 307 307 310 311 309 311 298 299 300 297 298 292 291 286 289 286 287 286 288 292 290 288 294 295 298 301 304 305 304 306 306
310 310 310 310 309 309 309 310 311 311 312 313 312 313 314 314 313 312 313 313 310 307 303 305 310 310 310 310 308 307 306 307 303 299 294 291 288 292 287 287 286 287 289 287 288 292 295 297 300 303 304 307 306 308
309 309 310 310 310 310 309 309 310 311 311 312 312 313 314 314 312 313 316 315 315 306 302 305 308 310 310 307 306 307 307 305 304 297 293 291 293 291 293 292 288 293 291 288 287 294 295 295 299 301 301 301 302 303
309 309 309 310 310 310 309 309 310 310 310 311 312 313 313 313 310 312 308 314 315 313 304 302 310 307 309 309 304 306 306 307 305 301 298 297 297 294 288 287 291 296 297 296 293 299 297 298 300 301 300 302 302 302
309 309 309 310 309 309 309 309 309 310 310 311 311 312 313 312 314 311 309 311 310 314 302 302 306 311 306 307 302 305 307 307 305 303 298 298 297 296 291 286 293 297 298 298 299 298 295 296 296 300 300 302 303 302
308 309 309 309 309 309 309 309 309 309 310 310 311 310 311 311 311 311 314 308 312 307 307 299 305 306 310 307 303 301 304 307 304 303 302 298 301 297 288 296 298 300 299 298 298 299 297 298 298 298 301 301 299 299
308 309 309 309 309 309 309 308 309 309 310 310 311 311 313 311 310 311 310 309 313 306 303 304 302 299 311 308 306 303 303 300 306 303 300 301 290 286 295 297 299 300 300 299 300 299 297 296 296 297 297 299 299 298
308 308 309 309 309 309 308 308 309 310 311 311 312 312 308 313 311 311 307 304 304 305 304 299 307 302 310 304 304 301 299 297 293 299 303 298 296 298 300 301 302 303 303 303 299 298 297 296 295 296 296 298 298 298
308 308 308 309 309 308 308 308 309 310 309 314 313 314 314 311 310 306 302 302 305 300 303 303 304 303 311 301 305 309 298 300 293 297 296 296 294 297 300 302 303 305 305 304 304 303 302 301 298 296 297 298 298 298
308 308 308 308 309 308 308 308 309 312 318 313 315 314 316 310 308 305 305 305 303 301 308 305 306 307 309 312 305 307 301 301 290 301 296 290 297 300 301 301 302 303 303 303 304 303 303 303 303 302 300 299 299 300
308 308 308 308 309 308 308 308 309 310 310 317 314 312 312 311 297 297 296 299 301 305 305 305 303 309 306 308 307 305 295 297 303 296 290 296 300 303 304 303 302 303 303 303 303 304 304 303 304 303 302 302 301 301
307 308 308 309 308 307 306 310 310 310 314 312 310 295 305 302 303 303 303 303 307 306 305 304 305 307 308 304 304 296 300 300 293 289 289 297 301 303 305 305 303 302 302 302 302 303 303 303 302 303 302 303 302 302
308 308 309 310 309 310 310 310 310 313 315 310 311 298 304 308 309 309 309 308 309 310 306 305 306 306 300 299 300 298 292 289 291 292 296 300 303 304 304 304 304 303 302 302 302 302 302 302 301 301 302 302 303 303
308 307 315 308 309 310 309 310 312 318 316 312 311 308 309 307 306 307 308 307 312 310 309 306 302 298 297 298 294 291 288 289 293 297 300 302 305 304 303 303 303 305 303 305 302 302 303 302 301 301 302 302 302 302
307 320 308 308 309 310 310 318 317 313 313 311 309 313 311 310 309 309 309 309 312 306 302 302 295 295 300 294 291 295 291 294 297 300 301 303 304 304 304 304 304 305 305 305 303 302 302 303 302 301 300 301 302 303
312 314 308 307 310 311 317 316 316 314 310 312 309 310 315 313 311 310 311 310 308 308 307 301 302 296 293 290 292 294 297 298 301 301 303 304 305 306 304 304 304 305 306 305 303 303 302 303 301 299 301 302 301 301
309 310 308 308 308 316 315 316 317 310 311 313 313 314 315 314 314 315 313 314 312 311 308 305 298 297 293 296 296 297 299 299 299 302 303 306 306 304 304 304 303 305 305 304 304 300 301 301 300 301 301 301 299 300
307 308 310 310 310 317 311 317 323 316 310 313 315 314 314 311 316 316 313 311 312 309 303 301 300 297 297 303 303 304 302 302 302 301 300 301 303 303 303 302 301 304 303 303 301 295 300 299 301 301 301 300 299 299
308 315 309 315 318 318 316 317 316 317 314 312 315 314 316 319 314 311 308 312 306 305 303 306 307 306 307 307 309 309 304 305 303 302 299 299 300 301 302 302 304 304 302 300 300 300 297 298 299 300 300 300 301 301
322 312 322 318 318 320 319 324 318 320 315 314 314 315 314 312 310 309 312 306 304 306 307 310 311 310 309 309 311 311 310 309 309 302 294 297 300 300 300 300 301 300 300 299 300 299 299 299 301 300 300 299 299 300
312 317 322 320 316 311 308 319 312 314 309 312 313 309 311 311 311 315 304 308 309 314 313 310 310 313 312 311 311 309 309 308 306 303 301 302 301 303 302 301 300 298 298 299 301 301 299 295 299 300 300 299 299 298
309 320 315 315 315 307 318 313 316 314 315 310 308 304 307 309 313 309 303 306 309 313 311 311 313 310 309 310 308 308 310 308 306 301 301 300 300 300 302 302 301 300 300 300 300 302 300 299 298 301 298 298 298 297
304 306 307 294 313 309 306 307 308 310 305 307 305 306 309 312 307 303 301 305 308 309 310 311 310 310 307 305 306 306 309 306 303 300 302 302 302 301 300 301 300 300 301 301 299 299 299 300 302 299 298 299 296 296
291 308 301 307 311 309 310 304 305 306 308 305 307 312 313 309 301 298 303 307 309 311 312 312 311 308 305 305 303 303 303 306 305 302 303 304 303 300 298 298 298 297 302 300 299 297 297 299 297 297 297 296 292 297
296 306 313 318 314 313 312 315 314 310 305 305 310 307 307 298 298 305 311 311 312 312 311 309 306 304 302 301 302 303 303 304 303 301 302 303 302 302 301 298 297 299 300 302 300 298 297 298 298 299 299 299 299 298
311 311 307 312 312 315 309 311 308 306 309 313 311 303 300 300 302 309 310 313 311 306 305 304 303 302 301 300 301 301 302 302 302 301 301 301 301 302 302 302 300 294 300 300 300 300 300 298 298 298 298 299 298 298
310 315 313 310 311 313 313 311 312 315 317 313 309 307 307 311 312 310 309 310 307 304 302 301 301 302 301 300 299 299 299 298 298 296 295 296 296 298 302 300 299 299 299 300 289 294 299 299 299 299 298 297 298 298
310 315 312 309 308 309 315 318 318 318 319 317 315 313 310 309 308 311 308 306 304 303 303 303 302 301 298 298 296 296 297 298 298 297 295 295 296 299 301 301 299 299 301 301 298 298 292 297 294 298 297 297 296 297
316 314 311 312 311 317 318 318 318 317 316 315 316 314 309 305 304 307 307 307 305 303 302 301 300 300 298 297 296 295 293 297 298 299 299 299 300 300 300 301 301 301 301 301 300 298 297 297 296 296 296 295 295 296
314 312 312 309 313 317 317 315 315 314 313 312 312 313 309 306 303 303 305 305 303 302 297 301 300 298 298 298 297 296 293 297 298 299 299 299 299 299 300 301 300 300 300 300 299 298 297 296 295 295 295 294 294 294
315 315 314 314 312 310 314 313 311 311 311 311 311 311 310 309 305 304 305 307 305 303 302 302 301 300 300 298 297 297 296 297 293 289 290 289 288 292 299 300 300 300 299 299 299 298 297 296 296 295 295 294 294 294

GFSWCAN_sfc_thetae_063.txt.gz
Theta_e
312 312 312 311 311 311 311 311 311 312 313 313 314 313 313 314 313 314 315 319 312 309 308 309 308 305 304 301 296 301 297 298 297 291 290 290 289 289 288 293 290 289 289 288 290 287 283 304 302 294 302 305 306 308
311 311 311 311 310 310 310 311 311 312 312 313 313 313 313 314 314 312 316 319 317 310 310 313 313 311 308 307 304 304 298 297 295 290 291 291 288 290 288 287 297 288 292 291 292 292 302 302 301 305 306 304 303 307
311 311 311 311 310 310 310 310 311 312 312 313 313 312 313 314 314 312 317 318 315 311 308 308 307 314 314 312 313 303 303 302 298 301 294 291 287 290 287 288 288 293 294 291 292 297 297 296 302 301 304 305 305 308
311 311 311 311 310 310 310 310 311 311 312 313 313 313 314 314 314 313 317 318 314 311 303 309 315 311 315 313 311 311 307 306 304 302 296 292 289 294 289 287 287 289 288 288 290 293 293 295 298 299 302 305 306 307
310 310 310 310 310 310 310 310 310 310 312 313 313 313 314 314 314 314 318 320 319 310 305 308 313 314 314 313 310 309 308 307 303 298 297 292 294 292 294 293 288 292 289 287 286 292 293 295 298 299 299 301 303 304
309 309 309 310 310 310 310 310 310 310 311 312 312 313 313 314 313 312 311 319 322 316 306 305 316 312 314 313 310 306 309 306 304 303 301 300 299 295 290 288 293 296 297 297 292 297 296 297 298 299 299 301 303 303
309 309 309 310 310 310 310 310 310 310 311 311 312 311 313 313 315 310 310 312 311 316 305 304 306 314 314 313 308 306 307 306 305 304 303 302 300 299 293 287 295 298 299 298 299 298 293 295 295 298 300 301 303 303
308 309 309 310 310 310 309 310 310 310 310 311 312 309 311 312 312 312 317 309 311 310 309 304 302 311 315 309 308 310 307 306 304 303 304 301 301 300 290 298 300 300 300 299 298 299 297 298 298 297 299 300 299 299
308 309 309 310 310 310 309 309 309 310 310 311 312 311 314 312 311 313 312 311 317 310 305 307 302 299 314 312 311 308 309 300 308 306 300 300 294 288 296 297 299 301 301 299 300 300 299 296 296 298 297 296 296 298
308 308 309 309 309 309 309 309 309 309 311 311 313 313 310 314 312 312 312 308 306 308 310 307 308 302 310 309 308 304 307 302 296 300 304 300 298 300 300 301 302 302 303 303 299 297 298 297 297 296 297 298 297 297
308 308 309 309 309 309 308 309 309 310 311 316 316 313 319 312 314 309 307 307 309 305 308 307 309 305 312 305 305 310 305 302 295 298 298 299 296 299 302 301 304 304 304 304 304 303 303 301 299 299 298 299 300 299
308 308 309 309 309 309 309 309 309 313 321 315 315 317 322 312 309 308 306 308 306 303 309 307 307 308 311 314 307 307 302 304 294 303 297 292 301 303 302 301 303 304 304 303 304 303 302 302 302 301 301 300 302 302
308 308 308 309 309 309 309 309 308 310 312 321 317 313 314 313 298 300 297 301 302 307 307 307 305 310 312 313 306 305 299 296 304 296 293 297 301 303 303 303 304 306 304 304 303 303 303 302 303 303 301 302 302 303
308 308 308 309 309 309 308 309 309 311 314 315 312 296 307 303 304 306 305 305 308 309 307 306 305 309 311 306 305 297 300 300 294 291 289 299 303 303 303 303 304 304 304 303 303 304 303 303 302 303 303 303 303 302
308 308 308 310 310 310 309 308 310 316 318 312 312 300 305 308 309 310 312 310 312 311 310 307 305 305 305 300 300 298 295 292 293 291 295 302 305 306 305 303 302 303 304 304 304 302 303 302 302 302 303 304 303 303
308 307 314 309 310 311 310 311 313 321 319 314 312 308 310 306 307 310 312 308 311 311 311 309 303 301 299 301 295 294 292 289 292 296 300 304 304 305 305 304 304 305 305 304 304 303 303 302 302 302 303 303 303 303
306 322 309 309 310 310 311 318 320 316 314 312 310 312 311 310 309 310 311 312 316 309 303 306 299 296 302 297 294 296 294 298 298 300 302 305 305 305 305 304 304 304 305 305 305 303 303 304 303 302 301 303 304 305
315 315 309 308 309 313 320 318 317 315 311 314 309 310 314 314 312 311 314 316 312 308 307 302 305 299 297 291 295 301 301 302 303 302 303 305 306 307 305 304 304 304 304 304 305 305 304 302 302 301 303 304 303 303
311 311 309 308 310 317 317 319 320 311 312 313 314 315 316 316 319 319 318 316 316 314 309 305 300 300 301 302 303 302 301 305 302 302 304 308 307 305 305 305 304 304 305 304 305 302 303 304 302 302 301 301 300 300
307 308 310 310 310 319 313 316 326 316 312 313 317 313 314 315 318 318 313 315 311 309 306 302 302 304 306 306 308 307 305 306 303 302 302 303 304 304 304 303 302 303 304 304 303 299 302 301 305 302 301 301 300 300
306 316 310 316 318 321 316 316 317 318 315 313 317 316 315 318 313 309 309 311 307 305 302 306 306 308 310 310 313 314 310 307 305 304 302 301 303 304 302 303 303 303 302 302 302 301 301 301 301 303 302 300 300 302
323 312 325 320 319 321 320 322 318 320 318 315 316 316 313 310 312 311 314 308 306 306 308 309 310 313 312 311 311 312 314 312 311 305 295 298 300 301 300 301 300 300 300 301 302 301 300 303 303 303 303 304 301 301
311 319 323 320 316 314 310 324 314 316 310 311 314 310 310 310 312 316 306 308 310 313 314 315 313 314 312 312 312 312 313 311 307 306 305 304 302 304 303 302 301 300 299 301 302 301 301 298 299 302 302 303 301 301
310 321 315 315 316 308 319 315 317 315 316 311 309 306 308 309 314 306 302 306 309 311 310 313 313 308 309 309 307 309 310 308 305 305 306 302 302 302 302 301 302 302 301 301 301 302 302 301 298 301 301 300 300 300
307 305 309 296 316 312 310 309 310 310 306 309 306 306 307 313 306 303 302 305 308 309 310 311 309 308 304 304 305 306 310 306 303 302 306 305 303 303 302 302 302 300 302 301 298 300 302 298 299 301 299 299 299 299
296 309 303 309 310 310 309 305 306 306 308 307 308 312 314 308 301 299 304 307 308 311 312 309 307 304 304 304 303 303 304 306 305 303 306 304 302 301 300 300 301 303 304 300 300 299 299 299 301 299 299 298 293 299
299 307 313 318 316 316 313 316 316 311 306 306 310 309 308 299 299 305 312 312 310 308 308 306 304 302 301 301 303 304 304 304 304 302 304 304 304 303 302 299 298 300 301 301 301 300 300 299 299 299 299 298 299 300
311 313 309 313 313 317 310 312 309 307 308 314 313 305 303 302 304 311 312 313 309 308 306 305 305 303 302 302 302 302 303 304 304 304 303 303 304 303 303 301 300 294 300 301 301 300 301 299 299 299 300 299 299 301
311 314 314 311 313 314 314 311 310 315 318 314 309 309 310 314 314 312 312 311 310 308 305 304 305 306 303 302 301 301 301 301 300 298 298 298 298 300 303 302 301 303 301 300 291 295 299 300 300 299 298 298 299 300
312 317 313 311 309 308 315 317 316 321 322 320 319 316 314 312 314 314 312 310 309 307 305 305 304 304 301 301 299 299 301 301 301 300 298 297 298 302 302 301 302 302 303 302 299 299 293 298 296 300 299 300 299 299
319 316 313 312 309 315 318 322 324 323 321 319 320 317 314 310 308 312 312 312 310 308 305 304 303 302 301 300 300 299 297 300 301 302 302 302 302 302 302 303 303 303 302 301 300 300 298 298 298 298 298 297 297 297
315 313 311 308 311 320 322 318 318 317 317 316 315 317 313 308 304 307 311 310 307 306 299 305 302 300 301 300 300 299 294 301 302 302 301 301 301 302 303 304 303 303 303 300 300 300 298 299 298 299 297 296 296 296
314 313 314 312 313 313 316 316 314 313 315 314 315 315 314 311 307 310 312 311 309 309 306 305 304 303 303 301 300 299 299 300 294 290 291 289 288 292 299 302 302 303 302 302 300 299 298 297 297 297 297 296 296 296

GFSWCAN_sfc_thetae_066.txt.gz
Theta_e
313 312 312 312 311 311 311 311 312 312 313 314 314 314 315 315 316 314 317 320 314 309 307 310 308 305 305 304 300 302 300 300 297 292 290 290 289 290 289 292 291 290 288 289 289 286 283 302 301 293 299 304 304 306
313 312 311 312 311 311 311 311 312 312 313 313 314 314 314 315 315 314 315 320 319 311 309 315 314 313 310 308 306 304 300 299 299 293 293 293 289 292 288 285 294 289 291 289 293 292 302 302 299 302 303 301 304 305
312 311 311 311 311 311 311 311 311 311 313 313 314 313 313 314 315 313 315 319 316 311 310 310 309 315 314 313 313 304 303 304 301 303 298 293 287 291 286 288 288 292 293 291 291 296 298 299 302 301 301 301 305 308
312 311 311 311 311 311 311 311 311 311 312 313 314 314 314 314 314 314 315 319 315 311 304 308 315 313 316 315 312 311 308 306 305 304 299 296 291 295 289 289 287 290 290 288 289 295 295 297 297 297 299 301 302 304
311 310 310 310 311 311 311 311 311 311 312 313 314 313 314 314 315 315 318 319 320 310 305 307 313 314 317 315 312 310 309 307 304 300 298 297 298 294 294 293 288 293 289 287 286 291 291 292 297 297 297 298 301 302
310 309 309 310 311 310 311 310 311 311 311 312 313 314 314 314 314 316 311 319 319 317 307 304 312 313 314 314 313 310 310 309 305 303 301 300 301 297 291 288 292 295 297 296 291 296 295 295 297 298 297 299 301 302
310 309 309 310 310 310 311 310 310 311 311 312 312 313 313 314 314 313 311 315 312 315 305 304 307 313 315 313 312 311 312 309 307 303 303 301 300 298 296 288 298 299 299 298 299 297 293 295 294 297 297 298 301 301
309 309 309 310 310 310 310 310 310 310 311 311 312 313 312 312 311 312 318 312 312 311 309 303 303 310 315 310 308 311 306 308 306 304 304 300 301 300 288 299 301 302 300 299 298 298 297 298 298 298 298 297 295 297
308 309 309 310 310 310 310 310 310 310 310 311 311 312 313 311 312 316 315 313 316 311 305 306 301 299 314 309 311 308 308 302 309 303 303 302 293 287 296 299 299 302 300 300 300 299 299 298 298 298 298 297 295 295
308 308 309 309 310 310 310 309 310 310 310 311 313 313 311 318 313 314 311 308 307 307 309 306 308 302 309 309 308 307 308 302 298 301 305 301 299 303 303 302 303 303 304 303 300 299 299 298 298 298 298 298 298 297
308 308 309 309 310 310 310 309 309 309 310 315 316 315 320 314 317 310 308 307 309 306 310 311 309 306 311 305 306 310 304 304 295 298 297 298 297 300 304 303 305 305 305 305 305 303 303 301 300 299 299 301 300 300
308 308 309 309 309 310 310 309 309 312 320 315 313 317 320 315 311 307 307 310 307 303 309 309 309 310 310 314 307 309 301 303 293 303 297 294 300 303 303 302 304 305 305 304 305 304 303 303 302 301 301 301 301 301
308 308 308 309 310 310 310 309 309 310 312 320 316 313 313 312 298 302 299 303 302 309 308 307 302 308 313 312 306 305 299 296 304 296 295 298 302 304 305 305 304 307 305 305 304 305 304 303 303 303 302 303 303 302
308 308 309 309 310 310 310 309 309 310 313 315 311 296 307 304 307 306 304 304 309 308 309 307 305 304 312 305 305 299 302 302 293 290 291 296 301 301 306 306 305 305 305 304 304 305 303 304 302 303 303 304 303 302
308 308 309 310 310 310 309 308 309 316 316 312 311 298 305 309 311 311 313 310 311 314 312 309 305 306 307 303 304 299 294 292 292 289 297 303 305 305 304 304 303 303 304 304 304 303 304 303 302 303 303 304 303 304
308 307 313 311 311 311 311 309 313 320 318 314 312 307 310 309 308 310 311 312 315 313 314 312 304 297 296 300 297 294 291 288 292 296 301 304 305 305 305 304 304 306 306 304 305 303 303 303 303 303 303 304 303 303
306 320 310 311 311 311 311 317 320 316 314 312 309 314 313 312 310 313 313 313 317 308 303 304 299 298 303 297 294 300 295 296 300 301 304 307 305 305 306 305 304 304 306 305 306 305 304 304 304 303 303 304 304 305
315 314 310 309 310 314 319 317 317 314 310 314 310 311 315 317 311 312 314 315 313 308 307 302 306 299 296 293 294 300 300 302 303 303 304 307 308 307 305 305 305 305 306 307 306 303 305 304 302 301 303 304 303 305
311 310 309 309 310 313 318 318 319 310 312 314 315 316 317 317 317 314 314 315 315 312 306 305 300 298 299 301 301 300 301 303 303 304 306 309 308 305 306 305 305 305 306 307 306 304 303 305 303 302 301 302 300 301
307 308 309 309 308 318 315 315 323 315 311 315 316 315 315 314 315 314 312 312 309 308 304 301 300 302 303 304 306 306 308 306 303 303 304 304 305 306 305 304 303 304 304 306 304 300 302 303 304 302 301 301 301 300
310 316 311 314 315 320 317 315 317 318 315 313 315 317 313 315 312 311 310 311 307 304 302 305 306 308 312 312 311 310 309 309 306 305 301 300 302 304 303 303 303 302 301 304 303 303 300 303 302 302 301 301 301 302
323 313 324 319 318 319 317 320 316 317 316 315 314 313 311 309 310 310 312 307 305 305 308 307 308 309 311 310 308 311 312 313 314 311 302 303 301 303 302 302 301 300 300 301 301 301 302 304 302 302 302 301 301 302
310 319 322 322 315 311 308 322 315 316 310 311 312 309 309 308 311 312 307 308 309 312 312 311 313 316 314 313 311 312 312 312 310 307 304 306 303 304 302 302 302 300 299 301 303 302 303 299 301 302 302 301 301 301
312 320 316 314 314 307 317 314 316 314 312 307 309 305 307 309 313 308 302 307 307 311 312 313 311 310 310 312 309 309 309 308 308 308 306 304 304 303 303 301 303 302 301 302 302 301 302 301 299 301 301 300 299 300
306 305 308 296 315 313 310 310 312 311 307 307 308 306 307 311 304 302 301 304 307 308 308 309 308 307 305 304 304 306 308 305 303 304 306 305 304 304 303 303 302 303 302 300 299 300 302 300 300 301 300 298 299 299
298 308 302 310 310 309 307 306 305 308 309 307 305 309 312 307 301 299 304 307 307 307 306 305 304 303 303 303 302 302 303 305 304 302 302 303 303 302 300 300 299 300 302 301 299 299 300 301 299 299 298 297 295 299
299 306 311 316 315 315 311 312 314 310 306 307 309 308 306 300 300 306 311 312 308 307 307 306 304 302 301 302 303 304 305 305 304 302 304 304 304 303 300 298 297 299 301 302 301 301 300 298 298 298 298 300 300 300
311 312 308 312 312 314 310 311 309 308 310 311 313 306 304 303 305 311 313 312 309 307 306 306 305 304 302 302 302 302 303 305 305 305 304 304 304 303 302 300 301 296 299 300 301 301 301 300 299 299 299 299 300 300
311 314 314 310 312 314 312 310 310 311 315 312 309 308 309 314 315 312 313 311 311 308 305 305 305 306 304 303 302 302 302 302 301 299 299 298 299 299 302 302 302 302 301 299 291 296 299 299 299 299 300 300 300 300
311 315 312 312 310 306 310 308 311 317 317 316 317 316 314 314 314 316 314 311 310 308 306 305 305 305 302 302 300 300 302 303 302 301 298 298 299 302 302 302 302 301 301 301 300 299 295 298 297 301 300 299 298 299
315 315 312 312 311 309 312 315 319 320 318 316 317 314 313 313 312 314 314 314 312 309 306 304 303 302 302 301 301 300 299 301 303 303 302 303 303 303 302 303 303 302 302 301 300 300 299 299 299 299 298 298 297 297
314 312 311 310 309 310 312 314 315 315 314 313 313 316 312 309 306 309 313 313 310 308 299 304 303 301 302 301 301 302 299 302 303 302 303 302 302 302 303 303 303 303 302 301 300 300 299 299 298 297 297 296 297 296
313 314 313 312 310 309 313 314 312 311 312 312 314 315 315 313 310 313 315 314 312 311 308 306 304 304 304 303 302 301 301 300 294 290 291 290 289 293 301 303 302 303 302 302 300 300 299 298 298 298 298 297 297 297

GFSWCAN_sfc_thetae_072.txt.gz
Theta_e
316 316 314 312 311 312 312 312 312 312 313 314 315 316 316 316 316 307 307 310 304 299 301 304 304 296 296 295 289 293 291 290 288 283 281 278 280 287 283 284 281 283 283 282 280 276 278 294 296 289 293 294 295 296
316 315 314 312 311 311 312 312 312 312 312 313 314 316 316 315 315 312 305 310 312 303 302 308 309 306 305 302 297 294 291 290 290 285 284 280 278 282 279 281 286 283 285 279 286 288 293 296 295 296 295 292 293 295
316 315 313 311 310 311 311 312 312 312 312 313 314 315 316 315 315 312 303 305 307 301 300 301 303 309 304 305 305 295 295 295 293 293 288 284 281 288 282 280 286 286 291 286 283 289 291 293 295 294 296 295 295 296
315 314 313 311 310 310 311 312 312 312 312 313 314 315 315 315 315 314 303 305 305 302 295 299 309 306 310 305 305 303 300 298 297 297 289 286 282 288 282 284 286 285 288 285 287 288 291 293 294 294 296 296 297 298
315 314 313 311 310 310 311 311 311 311 312 312 313 315 315 315 313 309 306 308 310 303 295 297 303 307 308 306 304 303 301 297 294 291 294 291 289 288 289 290 287 291 286 283 280 287 291 292 296 297 296 295 296 295
314 313 312 310 309 310 311 311 311 311 312 312 313 313 314 314 312 306 304 308 309 307 299 293 302 305 305 305 303 302 302 298 296 296 297 296 293 288 286 285 288 290 291 290 288 292 292 294 296 298 297 297 298 297
313 312 311 310 309 310 311 311 311 311 312 312 312 312 313 311 304 302 303 308 308 307 299 296 296 305 308 306 303 302 304 303 298 299 297 292 291 291 283 282 289 292 293 293 295 294 292 294 293 298 298 299 299 298
313 312 310 309 309 310 311 311 311 311 310 311 311 311 311 311 308 302 306 309 308 305 304 296 296 302 307 300 299 305 301 302 301 299 296 295 292 290 286 290 291 295 295 295 296 297 296 296 296 298 299 299 298 297
312 311 309 308 309 310 310 310 310 310 309 309 311 311 306 302 301 306 316 315 312 307 298 300 295 294 305 305 304 303 305 297 304 298 298 297 288 285 289 289 292 296 296 296 297 298 298 297 295 297 298 298 297 297
311 310 308 308 309 310 310 310 310 309 310 310 305 303 301 308 317 315 308 304 304 304 300 296 301 298 303 301 302 301 302 297 293 298 302 294 291 293 293 294 297 298 298 298 294 293 294 294 295 296 296 298 298 298
310 308 308 308 309 309 310 310 310 309 309 303 302 305 311 316 308 307 300 298 302 296 299 300 303 300 305 298 296 303 297 298 291 295 295 292 291 298 301 299 298 301 301 300 299 298 298 298 296 296 296 298 298 298
308 307 307 308 309 309 309 310 309 306 304 305 304 307 308 306 305 300 301 304 302 299 301 300 301 302 304 308 301 301 297 298 290 299 290 285 293 299 300 300 302 302 302 301 303 301 300 302 299 296 296 298 298 299
307 307 307 308 308 309 310 309 309 308 307 306 304 305 307 303 295 299 296 296 299 304 305 303 300 300 304 304 300 298 295 293 298 288 288 291 297 299 300 301 301 304 304 303 304 302 301 302 300 297 297 298 299 299
307 307 308 308 309 310 309 310 309 307 303 302 305 292 300 298 304 301 300 301 305 306 302 303 302 297 298 295 297 294 296 295 288 284 287 289 292 296 298 300 301 299 301 301 301 303 302 299 297 299 299 297 298 299
307 308 308 308 309 311 309 308 308 305 304 303 305 292 301 307 306 306 304 303 306 305 304 300 299 297 296 295 296 293 290 286 284 282 290 292 294 294 296 296 296 297 298 299 300 301 300 300 298 296 297 298 298 299
308 308 306 311 311 310 307 307 305 306 308 306 304 301 306 305 303 301 301 300 306 306 304 300 295 293 292 292 291 289 286 282 286 290 294 298 296 296 296 296 298 299 297 298 300 301 301 300 297 296 297 296 297 298
307 309 311 310 311 311 309 306 306 306 307 306 303 309 310 308 305 303 302 304 305 300 296 295 292 291 293 290 288 291 287 289 292 294 298 297 296 296 296 296 295 299 297 297 297 299 298 299 296 294 295 295 296 297
309 308 310 309 308 309 308 305 309 311 306 306 303 308 310 311 306 305 306 304 302 299 297 294 297 291 289 287 287 291 294 295 296 296 296 299 299 299 297 295 297 298 297 297 297 298 298 300 297 293 292 294 296 296
304 305 308 309 306 304 309 310 308 303 305 306 310 312 311 311 308 305 304 304 305 303 299 297 293 290 290 293 293 295 294 294 294 296 296 302 301 301 298 298 299 297 296 296 295 295 296 298 298 293 293 294 294 294
307 309 308 308 308 303 307 309 313 308 305 307 310 308 310 307 305 303 303 302 301 298 295 294 294 295 295 296 298 298 298 298 296 293 293 295 299 299 298 295 297 295 295 295 295 296 296 299 299 298 297 294 293 294
309 308 308 305 303 304 307 308 311 310 308 304 308 307 304 307 303 301 301 303 297 295 294 297 299 300 301 301 300 299 299 298 297 296 295 294 298 297 297 296 297 296 295 295 294 294 294 294 296 298 296 297 293 294
308 312 308 307 308 312 307 310 305 311 309 307 307 306 304 303 301 300 303 299 296 298 300 299 298 302 302 299 298 300 301 302 300 299 299 297 296 293 294 297 296 295 298 298 298 294 296 296 295 296 297 297 296 296
311 312 312 314 309 302 301 313 308 308 303 302 306 304 305 302 303 306 300 299 300 303 303 302 303 304 303 304 302 301 302 302 300 299 299 296 295 294 293 294 295 296 295 294 295 295 294 295 296 298 297 295 294 294
314 310 310 309 308 298 309 308 309 306 305 301 301 299 303 302 304 301 297 298 301 303 302 302 304 303 303 301 300 301 297 302 301 299 298 298 295 293 294 293 294 295 296 294 295 295 295 294 296 297 296 295 295 293
301 299 302 291 305 307 305 304 303 303 303 304 301 301 304 304 302 300 295 296 300 300 300 297 298 299 298 298 295 293 295 295 296 296 295 297 295 294 294 293 292 293 295 294 294 294 294 294 295 295 295 294 294 294
291 303 298 304 303 303 306 302 303 301 304 303 302 303 304 302 299 296 297 298 297 296 295 295 294 293 293 293 292 291 293 295 296 292 290 293 294 293 291 289 289 290 294 294 294 294 294 294 294 296 294 294 294 295
294 301 306 309 305 309 307 307 309 305 304 304 303 302 303 300 298 299 300 298 296 296 297 295 295 293 292 293 294 294 294 295 295 294 292 292 292 292 291 289 288 290 293 296 295 295 295 295 295 295 294 295 294 295
304 305 302 304 306 307 305 306 305 302 303 305 307 300 301 301 299 303 301 300 299 297 296 295 295 293 292 292 293 295 294 295 295 294 292 291 291 291 291 291 291 293 292 294 294 295 295 294 295 295 295 293 292 294
304 307 305 302 305 306 306 305 305 306 307 307 304 304 303 307 306 301 299 299 299 297 295 294 295 294 293 293 293 293 293 295 293 290 289 288 288 290 291 290 291 290 289 290 292 292 294 293 294 295 295 294 294 293
302 304 301 304 306 305 308 308 308 307 309 309 309 308 306 306 305 305 303 301 298 297 297 296 296 293 291 291 291 292 293 293 293 296 291 289 291 292 293 293 292 291 290 290 290 290 293 292 294 294 293 292 291 291
304 304 303 306 307 309 311 313 311 310 312 311 312 310 307 306 306 306 304 304 299 297 295 293 292 294 293 292 291 291 290 293 294 295 295 293 293 294 294 294 294 294 293 293 292 291 291 292 292 292 291 290 291 291
304 303 303 307 306 310 311 309 310 309 310 309 308 309 309 305 301 303 308 305 300 297 297 294 293 292 293 294 294 293 294 293 292 294 294 293 293 294 294 293 293 294 294 294 293 293 293 293 292 292 291 292 291 291
306 307 309 311 308 306 308 306 307 306 309 306 307 309 311 309 305 307 310 308 305 299 296 294 294 295 295 295 293 292 291 290 291 291 291 291 291 292 292 293 295 296 295 294 293 293 293 293 292 292 292 291 291 291

GFSWCAN_sfc_thetae_075.txt.gz
Theta_e
316 316 316 314 312 311 312 312 312 312 313 313 314 315 316 316 315 307 306 307 303 297 299 302 303 296 295 293 288 292 289 288 286 281 278 276 275 279 278 283 281 280 281 279 282 275 276 294 294 287 290 291 293 294
316 316 316 314 312 311 311 312 312 312 312 313 314 315 316 315 315 309 303 306 307 302 301 305 308 308 303 301 295 291 290 288 288 282 279 278 284 283 276 273 285 278 283 278 283 282 293 293 292 293 293 290 291 292
315 315 315 313 312 310 311 311 312 312 312 312 313 315 315 315 315 309 300 301 304 299 299 300 301 306 302 304 302 293 292 293 290 291 285 282 277 280 275 277 279 283 291 283 283 285 289 291 293 293 292 292 296 296
315 315 315 313 311 310 310 311 311 312 312 312 313 314 315 315 314 312 301 302 303 299 293 297 307 303 306 303 303 301 298 295 294 292 287 284 279 286 276 280 279 283 290 283 281 285 287 291 292 295 295 297 297 297
314 315 314 312 311 310 310 311 311 311 311 312 312 313 314 314 313 307 303 304 306 301 294 295 301 305 306 303 303 301 299 297 293 290 289 286 286 286 288 289 282 289 286 281 281 286 286 287 292 294 295 296 297 297
314 314 313 312 310 309 310 311 311 311 311 311 311 312 313 312 311 305 302 306 307 305 297 292 299 301 301 302 301 300 298 298 297 293 291 293 291 287 283 284 286 288 289 288 287 289 290 291 293 295 296 297 297 298
313 314 312 311 310 309 310 310 311 311 311 311 311 311 311 311 302 301 301 306 307 304 298 293 293 301 305 299 299 298 300 300 300 297 293 292 293 290 283 278 288 289 292 292 292 292 290 292 291 294 298 299 300 300
313 313 312 311 309 309 310 310 310 310 310 309 310 311 311 310 307 302 304 308 307 305 302 295 293 298 303 297 299 304 301 301 301 299 297 293 294 293 286 290 292 293 293 292 293 294 293 293 294 294 298 298 298 296
313 312 311 309 308 309 309 310 310 310 309 309 310 311 305 301 299 303 315 313 311 306 296 299 294 292 303 302 302 303 304 297 303 298 298 296 288 286 291 293 293 294 293 294 295 295 295 294 295 295 294 295 295 297
312 311 310 308 308 308 309 310 310 309 309 309 304 303 302 303 314 315 306 303 302 303 301 296 296 296 302 302 301 301 302 297 289 297 300 294 290 296 297 295 294 296 297 298 293 293 293 294 294 295 294 295 297 298
311 310 308 307 308 308 309 309 309 308 308 301 301 304 309 314 308 306 298 298 301 296 295 296 298 296 304 294 296 301 294 295 290 294 293 288 288 296 300 301 301 300 300 299 298 297 298 297 295 295 295 296 296 299
309 308 307 307 308 308 309 309 309 303 302 304 304 304 305 304 302 297 297 300 299 297 301 299 298 300 299 304 301 298 295 296 286 298 290 285 292 299 300 301 301 302 302 301 302 300 301 300 299 297 296 294 296 298
307 306 307 307 308 308 309 309 309 307 305 304 303 304 305 300 294 298 296 294 295 303 302 299 297 298 298 299 295 295 294 292 298 290 288 289 294 298 297 299 300 301 302 304 302 302 302 301 301 298 295 296 297 297
306 307 307 308 308 309 309 308 309 307 301 301 302 295 299 295 300 299 298 297 301 303 300 299 297 295 295 293 295 291 291 291 284 283 282 287 290 294 295 297 298 298 299 300 300 301 300 300 298 297 297 296 299 296
307 307 307 308 308 310 308 308 308 305 303 301 302 292 298 303 304 303 302 300 302 303 300 297 296 295 292 291 292 290 287 283 282 280 288 291 292 292 293 295 294 295 297 298 299 298 298 299 298 298 297 297 295 296
307 308 306 309 310 308 307 306 304 304 305 303 301 300 302 303 304 302 300 299 301 301 300 297 292 290 290 290 289 286 284 279 284 288 291 293 294 294 294 295 295 296 296 297 297 297 297 298 297 296 295 294 295 296
308 309 310 310 310 309 307 305 303 303 304 304 301 305 307 306 303 303 300 300 302 298 293 293 290 288 291 288 286 289 286 287 290 292 293 294 294 297 295 296 295 298 297 296 295 295 295 297 296 292 293 293 294 295
308 309 309 308 306 307 305 305 307 308 304 305 303 305 306 307 304 305 304 302 300 296 294 293 294 289 287 286 286 289 290 292 292 294 295 294 297 302 301 296 296 298 297 296 295 295 295 296 295 293 292 294 294 294
304 304 308 308 304 303 305 307 305 299 302 303 307 310 310 309 308 303 302 301 301 300 297 293 291 288 288 290 291 292 292 291 293 293 294 295 297 299 299 296 297 296 294 294 292 292 293 293 294 294 292 294 293 294
308 308 309 308 306 301 303 305 309 304 303 305 306 305 306 305 304 302 299 299 298 295 293 292 292 292 293 294 295 295 295 295 293 292 292 295 295 295 295 294 295 294 292 293 295 295 293 294 293 293 294 293 293 293
307 307 308 304 301 302 303 303 305 307 305 302 304 303 302 304 302 299 298 299 295 293 293 295 296 297 297 298 297 297 296 296 294 294 293 292 293 291 292 294 294 294 294 294 295 296 296 295 295 294 294 293 292 294
303 310 305 305 305 307 302 305 302 308 305 304 304 303 301 301 300 299 300 295 293 295 296 296 296 298 299 298 296 298 299 299 297 296 296 295 291 293 292 293 293 292 293 297 295 296 296 296 296 296 295 296 296 295
309 309 309 309 306 300 299 309 305 304 302 300 302 300 301 301 300 302 297 297 297 299 300 299 298 300 302 303 298 298 299 300 298 296 294 292 291 291 292 292 293 293 292 292 292 292 291 293 295 296 298 295 295 293
309 307 307 306 305 297 305 306 308 304 301 299 298 297 299 300 302 299 297 296 298 301 300 300 300 300 299 298 297 294 292 298 296 296 294 293 291 290 291 291 292 292 291 291 292 292 292 292 294 297 297 298 297 293
298 298 299 290 303 304 303 302 301 301 299 299 299 299 300 301 297 297 295 294 297 300 299 296 298 299 297 295 290 290 291 296 295 294 292 293 291 290 289 289 289 290 292 292 291 292 291 291 292 294 296 295 294 293
290 301 296 302 301 300 301 301 300 298 300 300 300 301 301 300 297 296 295 295 296 296 294 294 293 293 291 290 290 291 292 292 293 292 291 293 292 290 288 288 289 290 292 292 292 292 292 293 293 293 292 293 293 293
292 298 302 305 302 305 304 304 304 302 302 301 301 300 299 296 296 298 297 295 294 294 294 293 294 293 291 290 289 290 291 291 292 292 290 289 291 291 291 289 289 290 292 294 294 294 293 293 293 293 292 292 293 294
302 302 300 301 302 304 302 302 304 302 302 303 303 299 299 299 298 301 297 297 295 293 292 291 291 292 292 292 292 292 291 289 289 288 289 289 288 288 288 290 290 292 292 294 294 294 294 294 294 293 293 291 291 292
300 303 302 300 301 303 304 303 303 303 303 303 301 300 301 304 305 298 297 295 293 294 291 291 289 289 290 289 290 292 293 292 290 287 286 285 286 288 288 288 288 288 289 290 292 293 293 294 294 293 293 292 291 290
298 302 298 299 299 301 307 309 305 305 306 306 307 306 304 303 302 299 298 295 294 293 294 294 291 290 289 290 289 289 290 291 292 292 289 287 288 289 289 289 289 288 287 289 290 289 292 292 292 292 292 290 289 289
299 299 298 298 301 307 310 312 309 308 309 307 308 306 304 303 304 303 300 299 296 294 294 292 291 290 290 290 290 289 289 291 291 293 292 291 290 290 291 290 290 289 289 288 289 289 289 291 290 290 289 288 289 289
299 299 299 300 305 309 310 308 305 304 306 305 304 307 307 303 301 303 305 298 295 293 294 294 294 292 292 291 290 290 292 291 291 292 292 291 291 292 292 292 292 291 291 291 291 290 291 291 290 290 290 290 289 289
303 305 306 305 303 303 307 305 305 304 306 305 305 307 305 304 303 307 307 301 299 298 295 293 293 293 293 293 292 291 291 290 291 291 292 291 291 291 291 291 292 293 293 292 291 291 292 291 290 290 290 290 289 289

GFSWCAN_sfc_thetae_078.txt.gz
Theta_e
315 315 316 316 315 312 311 311 312 312 312 313 314 315 315 315 315 307 305 304 302 296 297 301 299 295 294 291 288 291 289 287 284 280 278 276 275 279 278 282 280 279 276 281 281 277 276 294 293 288 290 291 292 293
314 315 315 316 314 311 310 311 311 312 312 313 314 315 315 315 315 307 302 303 305 301 299 303 306 305 302 300 293 289 289 287 286 281 280 278 277 279 275 274 283 278 281 279 281 281 290 293 291 293 293 290 291 292
314 314 315 315 314 311 310 310 311 312 312 312 313 314 315 314 315 307 299 299 302 298 298 298 300 303 301 302 301 293 291 291 288 289 284 280 276 279 277 276 279 282 286 279 281 284 287 291 292 293 293 292 294 296
313 313 314 315 313 311 309 310 311 311 311 312 312 313 314 314 314 310 301 300 302 297 292 295 305 300 303 302 301 300 296 293 291 290 285 282 278 283 276 279 278 282 286 283 280 284 287 289 292 293 294 296 297 298
312 313 314 314 313 311 309 310 311 311 311 312 312 312 313 313 312 304 301 302 304 301 293 295 299 301 302 301 301 299 297 294 293 289 287 285 284 284 284 284 279 286 284 280 280 286 287 287 292 294 293 294 295 297
312 312 313 314 312 310 309 310 310 311 311 311 311 311 312 312 309 304 301 304 305 303 296 291 298 299 301 299 299 297 299 298 297 295 292 291 290 286 281 280 286 287 288 288 287 289 289 292 293 294 294 295 298 298
312 312 313 313 312 309 308 309 310 310 310 310 310 311 311 310 301 300 300 304 306 304 297 292 292 299 302 297 297 296 299 299 299 297 295 293 291 291 282 278 288 289 291 290 291 292 290 292 291 294 295 296 299 300
311 312 313 312 311 309 309 309 310 310 309 309 308 310 310 310 306 302 304 307 308 305 302 294 292 296 300 295 294 301 299 301 300 299 297 294 293 293 285 291 291 292 292 292 292 293 292 293 294 294 295 296 296 296
311 312 312 311 309 308 309 309 309 309 309 307 309 310 304 301 300 303 314 311 310 306 296 297 290 290 303 301 302 302 303 296 302 297 297 295 287 285 291 294 294 295 295 295 295 294 294 293 294 295 295 295 294 294
311 312 311 310 308 308 308 309 309 308 307 308 303 302 301 303 312 313 306 302 302 302 300 297 294 294 299 299 298 299 301 295 288 293 298 290 287 297 298 296 298 298 296 297 295 294 293 293 294 295 295 295 295 295
312 311 310 308 307 308 308 309 309 308 307 300 301 300 305 311 307 305 297 297 300 295 293 297 294 293 301 294 297 298 289 290 287 291 290 288 289 295 300 300 301 300 301 301 299 298 297 297 296 295 296 296 296 296
310 309 308 307 307 308 308 308 309 302 300 303 303 303 303 302 301 297 295 301 299 294 297 296 297 299 298 300 299 295 295 292 286 298 291 285 291 298 298 300 301 302 302 301 301 300 300 301 300 297 297 297 296 296
308 307 306 306 307 308 308 308 308 307 305 302 302 304 302 298 293 296 291 292 292 298 299 298 296 298 296 296 295 295 293 290 296 288 287 286 290 295 295 296 298 300 300 301 301 302 301 301 302 301 299 297 296 297
306 306 307 307 308 308 309 308 309 307 299 299 300 296 299 292 297 298 297 296 299 300 299 297 295 294 293 291 292 289 290 289 283 277 282 287 289 294 295 296 296 297 298 298 299 301 300 300 300 300 298 297 297 297
307 307 307 308 308 309 308 308 308 304 301 299 299 291 297 301 301 302 303 299 300 301 299 295 294 293 291 290 290 289 286 282 281 281 285 290 291 292 293 295 295 295 296 298 300 299 299 298 298 299 299 299 297 296
307 308 307 309 309 308 307 306 303 302 303 300 297 296 300 300 301 301 300 298 300 300 296 295 291 289 289 288 288 286 284 279 284 287 290 291 292 293 293 295 296 295 296 298 298 298 298 296 296 298 298 297 298 297
308 308 309 310 309 306 306 303 301 300 300 301 300 302 302 302 301 301 301 300 301 296 292 292 288 287 290 287 286 288 285 287 289 291 292 292 293 294 297 298 299 297 297 298 296 296 296 297 298 297 296 299 298 297
306 308 309 309 306 305 304 306 306 306 301 302 299 301 304 305 302 303 303 301 299 295 293 292 292 287 286 285 285 289 290 291 292 292 293 294 295 296 298 297 298 297 297 296 295 296 296 296 297 297 297 298 298 297
303 305 307 308 303 302 303 305 303 297 300 301 302 305 305 306 305 303 300 299 298 297 296 291 290 287 288 289 290 291 291 291 292 293 293 295 299 299 297 297 296 296 295 294 293 293 294 294 293 294 296 298 298 297
308 308 309 308 305 299 300 302 305 300 300 303 303 302 303 302 303 299 298 299 297 294 292 291 291 291 292 293 293 294 295 294 293 293 293 293 295 294 294 294 294 294 295 296 295 296 295 297 297 296 297 298 298 298
306 307 307 303 300 301 301 301 303 304 303 301 301 301 300 302 301 298 297 296 293 292 292 293 294 295 296 296 296 297 296 295 294 294 294 293 292 292 293 293 294 296 297 297 297 297 298 297 297 297 297 297 297 298
302 309 305 305 303 303 299 302 299 303 302 302 301 301 299 299 299 299 298 295 293 294 295 295 295 297 297 297 296 297 298 297 296 295 296 295 291 292 292 294 296 294 296 297 295 295 296 297 295 297 297 299 298 299
307 308 307 307 304 298 297 306 302 302 300 299 299 298 299 300 300 300 296 296 296 296 298 297 296 298 299 299 297 298 299 299 297 295 293 292 292 292 293 293 294 293 292 293 293 294 294 294 296 298 298 298 298 297
307 305 304 303 303 296 304 303 305 302 300 297 296 295 297 299 300 297 295 296 298 298 298 300 300 299 297 297 296 293 292 297 296 295 292 292 291 291 291 292 292 292 292 293 293 293 294 294 294 298 299 299 298 296
296 296 299 290 301 301 301 300 300 299 297 297 297 297 298 300 295 296 296 296 296 298 298 297 299 299 297 295 291 291 292 296 296 293 293 293 291 290 290 291 291 292 294 294 293 293 293 294 295 297 297 296 295 295
289 297 295 300 299 299 299 299 299 297 298 298 299 300 300 298 297 296 296 295 297 298 297 297 296 296 293 290 291 292 294 294 295 294 292 293 291 291 290 290 290 292 294 295 294 294 294 295 295 295 295 294 292 294
290 295 300 302 301 301 301 302 302 300 299 298 299 298 298 295 295 298 298 296 295 296 296 297 297 297 292 290 290 291 291 293 295 294 293 294 293 292 292 291 292 293 294 295 295 295 294 295 295 294 294 295 295 295
300 300 298 299 300 302 300 300 300 300 301 302 301 298 298 298 297 300 297 296 295 294 293 292 293 293 292 292 292 291 288 288 289 289 290 290 289 290 291 292 292 291 294 296 296 296 296 296 295 295 294 294 294 295
297 301 301 298 299 299 301 301 302 302 303 302 301 298 300 302 305 299 297 293 292 293 291 291 290 290 290 291 291 291 290 291 290 289 289 288 289 290 290 291 291 292 293 295 292 294 297 296 296 295 295 294 293 293
295 300 298 298 296 296 301 307 306 305 304 305 305 305 304 304 305 298 294 293 293 294 293 292 291 292 291 292 291 290 291 290 292 291 289 288 289 291 290 290 291 291 291 293 293 293 293 295 294 295 294 293 293 292
298 298 297 295 295 301 307 309 308 307 307 306 307 306 305 305 302 300 297 296 295 293 292 291 290 291 292 291 292 291 291 293 292 293 293 292 291 292 292 292 291 290 291 292 292 292 293 294 294 294 293 293 293 291
298 297 297 297 300 306 309 308 308 305 304 304 303 305 305 304 301 301 302 298 296 294 295 294 293 292 293 295 294 294 293 294 294 293 294 293 293 293 294 293 292 292 292 292 292 293 293 294 293 293 293 293 293 293
298 300 302 303 302 302 304 304 305 304 305 304 303 305 305 303 300 304 305 304 301 300 298 297 297 295 294 295 295 294 292 293 292 291 291 292 292 292 293 293 293 294 294 294 294 293 294 294 293 293 293 293 293 293

GFSWCAN_sfc_thetae_081.txt.gz
Theta_e
315 315 315 316 316 315 312 311 311 312 312 313 314 315 315 315 315 314 312 311 311 307 307 305 305 301 300 301 298 298 297 296 296 292 292 287 289 288 288 291 289 290 289 288 288 287 284 299 297 293 297 298 299 298
315 315 315 315 316 315 313 310 311 312 312 313 313 314 315 315 315 310 311 309 312 310 307 309 311 309 308 307 302 298 298 296 296 293 291 291 290 289 288 287 292 288 292 291 292 293 298 300 298 300 299 297 297 297
314 314 314 314 315 315 313 310 311 311 312 312 313 314 315 315 314 310 309 309 311 308 307 307 307 311 311 310 310 301 300 300 297 299 295 294 290 292 287 289 290 292 293 292 290 294 297 298 299 299 299 298 299 299
313 314 314 314 314 315 312 310 310 311 311 312 312 313 314 314 313 311 311 310 311 307 303 303 310 310 311 309 308 308 304 301 300 300 296 294 293 293 291 290 291 294 294 292 291 292 294 296 298 299 299 299 299 300
312 313 313 313 314 314 312 310 310 311 311 311 311 312 312 313 311 310 311 312 313 309 303 305 308 309 309 308 307 305 304 302 299 297 297 295 295 293 294 293 291 294 293 291 294 298 298 297 299 300 299 299 300 300
311 312 312 312 314 313 311 310 310 311 310 311 311 311 311 311 309 313 310 312 314 312 307 301 307 306 307 306 305 304 305 302 300 297 297 296 298 297 292 289 296 297 298 299 297 298 298 300 301 302 300 300 301 301
311 312 312 312 314 312 310 309 310 310 310 309 309 310 310 310 310 308 308 311 309 312 307 301 301 306 306 304 304 304 305 304 302 299 298 297 294 294 292 288 297 297 298 298 299 298 296 298 298 301 301 302 302 303
310 311 312 312 313 312 309 309 310 309 309 309 307 309 310 310 309 310 314 310 311 310 307 299 300 304 309 304 302 306 302 304 303 301 299 295 294 293 285 294 297 298 297 297 297 298 300 301 301 300 302 302 301 302
310 311 312 312 311 309 308 309 309 309 308 307 308 310 309 309 310 311 313 312 313 310 303 302 298 297 307 307 307 307 305 297 302 297 296 295 286 285 291 295 297 297 295 298 298 299 299 297 299 301 302 302 302 302
310 311 312 311 308 308 308 309 309 308 308 308 309 309 309 312 313 315 311 306 306 308 307 300 303 301 307 306 303 302 297 291 289 294 297 290 290 295 298 298 298 301 301 301 299 298 299 299 300 302 302 304 304 304
311 311 311 309 308 308 308 308 309 308 307 308 309 309 312 312 312 308 303 301 303 300 302 301 302 302 309 301 300 300 296 295 289 293 292 290 291 297 301 300 302 304 304 303 304 305 304 303 303 303 303 304 304 305
310 309 308 308 307 308 308 308 308 306 308 309 308 309 312 309 306 302 301 303 301 300 303 303 305 303 306 307 300 299 296 296 287 299 295 288 297 301 302 302 302 303 303 304 306 305 305 305 305 305 305 305 306 305
308 307 307 307 307 308 308 308 308 307 308 309 308 307 307 305 294 298 297 300 300 304 307 305 305 306 305 307 300 299 294 292 301 294 291 295 300 302 303 304 303 304 304 305 305 307 307 307 307 307 306 307 306 304
305 306 306 307 308 308 308 309 309 308 308 305 305 293 301 299 303 305 305 305 308 308 307 308 306 305 304 300 302 295 297 297 290 287 289 297 301 302 304 304 303 304 305 305 305 305 306 306 306 307 306 306 304 304
307 307 307 309 309 308 308 309 308 307 308 303 305 293 301 308 309 310 310 308 309 310 308 305 304 304 301 298 299 296 291 288 290 290 297 302 303 303 303 303 303 304 304 304 306 305 305 305 305 305 306 306 305 305
307 308 309 309 308 307 307 307 307 307 308 305 304 301 306 306 308 309 309 308 308 309 306 305 301 297 296 297 294 291 289 288 293 297 301 303 303 304 304 303 304 304 305 303 304 305 305 305 303 304 304 304 304 304
309 310 309 309 307 306 306 308 306 303 302 304 305 309 308 309 309 310 309 308 310 305 302 302 294 293 298 295 292 296 294 296 300 301 303 304 303 304 303 302 303 305 305 305 305 305 304 305 305 304 302 304 304 304
309 310 310 309 308 306 308 307 307 307 303 308 304 309 311 313 311 310 312 309 307 305 303 300 301 295 293 290 293 299 300 302 302 302 304 304 305 306 303 305 305 304 304 304 304 303 303 303 303 304 303 303 303 302
306 307 308 308 306 306 306 308 307 302 305 309 311 312 314 314 314 313 310 308 308 307 304 301 297 296 297 300 300 301 302 302 303 305 305 305 306 305 304 304 304 303 302 302 302 302 302 301 300 300 301 303 305 303
308 308 309 308 306 302 302 306 311 306 306 311 312 312 313 312 312 309 308 307 305 304 301 299 298 301 302 304 306 305 306 306 305 304 304 304 304 302 302 302 302 303 303 303 303 300 303 301 300 300 300 304 301 301
307 308 307 307 304 306 307 308 309 312 312 310 311 310 310 311 310 308 306 305 303 302 300 302 304 306 307 308 307 307 307 306 306 304 305 302 301 302 302 302 303 303 303 301 301 301 300 299 299 300 299 300 303 304
306 308 308 307 307 306 304 308 305 309 310 311 310 310 309 307 308 308 306 304 303 305 304 305 306 306 305 306 306 307 309 308 307 304 299 299 301 301 300 301 300 299 299 301 302 301 302 302 302 301 301 302 302 304
308 309 311 309 306 301 300 312 308 309 306 307 308 305 307 308 308 308 305 306 307 308 306 307 307 308 308 308 306 306 308 308 307 305 302 302 301 301 301 300 300 299 299 300 301 300 301 297 301 304 302 302 302 302
307 309 308 307 304 298 309 308 311 309 308 305 304 302 304 308 308 305 302 305 308 307 306 306 306 305 306 305 305 304 303 306 307 304 302 301 300 299 300 300 300 301 301 301 301 301 301 301 298 303 303 302 302 301
297 299 300 291 305 306 306 306 306 306 304 304 302 304 306 308 304 302 302 307 306 307 306 307 308 308 306 305 301 299 301 306 305 301 301 302 300 299 298 299 300 300 302 300 299 300 300 301 303 303 302 301 301 300
289 299 297 304 305 304 305 303 304 304 304 303 305 308 308 306 302 302 306 307 306 307 306 306 306 305 303 303 299 301 304 305 305 302 301 302 301 299 297 296 296 298 302 302 300 300 300 301 300 300 299 298 294 299
292 298 304 308 307 307 306 309 309 306 303 303 305 305 304 299 300 307 309 307 307 308 309 309 308 307 303 299 298 301 302 304 304 303 304 303 301 301 299 297 297 299 302 302 302 301 300 300 300 300 300 302 301 300
303 304 301 305 306 309 305 305 305 305 307 310 308 303 302 302 304 310 309 306 304 305 305 305 306 306 303 300 300 299 298 298 299 301 300 299 300 300 301 301 301 292 302 303 302 303 303 302 300 299 299 299 301 302
300 305 306 302 304 304 306 306 308 312 313 311 308 306 307 311 314 312 306 302 302 302 301 299 299 300 299 299 300 300 298 298 297 296 296 295 296 297 300 300 300 302 302 302 291 298 301 301 301 301 299 300 300 302
300 305 303 303 301 301 308 312 312 313 312 313 314 313 313 313 314 311 302 300 300 302 302 303 299 300 299 298 298 297 297 298 300 299 297 296 297 299 299 299 299 300 301 301 300 300 293 299 297 301 300 300 300 299
304 303 301 300 300 306 311 316 315 313 312 313 314 312 313 312 309 306 302 303 303 301 300 298 298 299 298 298 298 298 296 297 297 299 300 301 299 299 299 299 299 299 300 300 300 300 300 300 301 299 299 298 297 297
303 302 301 301 304 313 315 314 313 311 312 311 311 313 313 310 306 306 304 302 301 300 299 299 298 297 298 300 301 301 295 301 299 298 300 300 300 301 300 300 299 298 298 298 299 299 299 298 299 299 298 297 297 297
304 303 303 303 306 308 311 310 309 309 312 311 310 312 311 310 306 310 309 307 303 301 301 301 301 301 300 299 300 300 295 301 299 294 294 294 295 297 300 300 300 300 299 299 299 299 299 298 298 298 298 298 297 297

GFSWCAN_sfc_thetae_084.txt.gz
Theta_e
315 315 315 315 316 316 316 313 311 311 313 313 314 315 315 315 315 315 318 321 316 310 311 310 309 307 306 306 304 304 302 301 301 298 298 297 297 293 295 298 296 295 294 293 295 292 289 304 302 296 303 306 305 304
314 314 315 315 315 315 316 314 311 311 312 313 313 315 315 315 315 313 316 319 320 312 312 316 315 314 312 311 311 307 304 301 304 302 301 300 297 297 296 293 299 293 299 298 297 299 305 306 305 307 305 302 304 304
314 314 314 314 314 315 316 314 310 310 311 312 313 313 314 315 314 313 318 320 319 314 313 312 311 317 318 316 317 308 309 306 304 307 304 303 295 300 295 296 296 298 300 297 297 301 303 303 303 304 303 303 303 304
313 313 313 314 314 314 315 313 310 310 311 311 312 313 313 314 313 311 319 320 319 314 306 307 316 314 317 317 316 314 312 310 309 306 303 301 300 300 301 299 298 303 300 298 298 300 301 303 303 304 304 304 303 304
311 312 313 313 313 314 315 312 310 310 310 311 312 312 312 313 312 317 323 322 322 314 307 309 314 315 316 315 313 313 311 309 307 303 302 301 305 300 301 299 299 301 300 297 299 303 302 302 305 305 304 304 304 303
310 311 312 312 313 314 313 309 309 310 310 311 311 311 311 311 311 317 314 321 324 320 311 307 313 312 314 314 313 312 311 311 308 302 303 305 306 303 299 297 302 305 304 305 302 305 304 305 306 306 305 305 305 304
310 310 311 312 313 314 311 308 309 310 309 310 309 309 310 310 315 313 312 316 313 321 311 306 306 312 313 312 312 311 312 310 307 303 300 299 298 299 296 294 300 302 304 304 305 305 302 304 303 306 306 306 305 306
310 310 310 312 313 313 310 308 309 309 309 309 307 308 310 310 310 315 318 312 315 315 313 306 305 309 315 313 310 314 308 307 304 302 301 298 296 295 286 295 300 300 300 302 302 304 305 306 306 306 307 306 305 305
309 309 310 312 313 310 308 309 309 309 309 307 308 310 315 314 316 316 313 313 319 315 309 310 304 302 316 315 313 308 309 297 306 296 295 296 289 286 294 296 296 297 297 298 300 301 302 301 303 305 305 305 304 305
309 310 311 312 309 307 308 308 309 308 307 308 312 315 313 318 313 315 316 312 313 314 313 309 311 306 310 312 308 305 304 299 295 299 299 295 294 303 303 300 300 300 301 302 300 299 300 301 303 304 305 306 306 306
310 311 311 310 308 308 308 309 309 308 306 314 315 314 318 313 317 313 306 307 310 306 310 310 309 307 313 306 304 305 300 301 291 296 295 293 295 300 304 301 302 304 306 305 305 306 306 306 305 306 306 306 306 307
310 309 308 308 308 308 308 308 308 310 314 312 315 316 318 314 310 305 306 307 305 305 310 310 311 311 309 311 305 304 298 300 291 304 297 293 300 304 305 304 304 306 307 307 308 308 308 309 309 308 308 308 308 309
307 307 307 307 307 308 308 308 308 308 309 316 313 311 312 310 297 302 300 305 305 309 311 311 309 310 307 308 303 304 297 294 306 297 296 299 302 305 306 307 307 309 309 309 308 308 308 308 309 309 308 309 310 309
306 306 307 308 308 308 308 308 308 310 312 310 308 294 305 304 308 311 310 310 312 314 313 312 309 306 309 305 307 297 303 302 294 291 292 299 304 305 307 308 307 306 307 307 306 307 306 306 307 308 308 309 309 308
307 307 309 309 309 308 309 309 309 313 314 306 307 295 307 314 317 317 317 316 315 317 313 310 310 308 305 302 305 301 295 292 295 294 300 304 307 307 307 308 307 307 307 306 306 306 306 307 307 307 308 309 310 309
308 309 311 308 308 308 308 308 311 314 313 308 307 304 313 312 313 313 315 314 315 315 315 310 305 301 300 302 297 294 292 290 296 302 303 307 307 308 309 309 309 309 308 307 307 307 308 308 307 307 308 308 309 308
308 315 309 307 307 307 307 312 312 307 305 304 305 309 310 310 314 315 316 314 317 310 303 305 296 296 303 298 295 301 297 299 303 304 306 310 309 309 311 308 308 308 308 308 307 308 308 309 310 308 306 308 307 308
316 314 310 307 308 308 314 313 310 309 304 308 306 313 316 317 318 318 317 316 313 310 308 301 304 298 296 292 297 303 303 306 309 308 307 309 312 311 311 310 309 308 308 308 309 309 308 305 305 306 308 308 308 308
310 310 309 309 309 309 309 312 312 305 307 312 315 317 317 318 321 322 319 317 318 316 310 306 299 298 300 304 302 305 306 307 305 306 308 310 311 310 309 309 310 310 309 309 308 305 305 306 304 304 305 305 308 307
308 308 309 309 308 308 305 310 319 312 311 316 318 318 318 319 321 319 317 315 312 310 306 303 303 305 304 308 309 308 308 309 307 305 304 306 309 308 308 307 306 308 307 307 306 299 306 304 303 300 300 303 306 305
307 311 308 311 310 310 310 312 313 317 318 316 320 317 317 318 315 314 312 314 309 307 306 308 309 310 311 311 310 310 311 309 308 305 305 305 308 310 308 307 307 305 304 302 302 302 302 303 303 302 298 301 303 304
313 309 315 313 313 311 310 313 310 313 312 315 315 317 312 312 312 313 316 310 310 311 312 312 312 312 311 312 312 312 313 313 313 308 301 300 305 305 305 305 304 302 302 303 303 301 304 304 305 305 303 304 304 305
309 312 313 313 308 304 304 317 312 313 308 313 315 310 311 313 316 315 310 313 314 319 317 315 316 315 311 315 314 313 314 313 309 309 309 309 307 306 304 304 304 303 302 301 305 304 304 296 302 307 304 304 301 304
307 313 309 309 307 301 314 312 316 315 315 312 310 306 309 313 316 311 308 311 316 315 312 314 313 311 312 313 310 310 311 311 310 310 309 306 304 304 306 304 304 304 304 304 304 304 305 304 300 306 306 306 305 304
301 302 303 293 308 305 308 308 310 311 307 309 306 307 311 313 308 307 307 313 314 314 313 313 311 310 308 309 310 308 309 308 307 305 306 308 305 303 302 303 303 304 306 303 303 302 303 304 304 303 303 303 303 302
291 302 299 306 307 307 308 304 306 307 309 307 309 314 314 310 304 304 311 314 315 314 313 312 310 310 310 310 306 305 308 311 307 304 305 305 304 303 301 300 299 301 306 305 303 302 302 302 301 300 300 299 295 300
293 300 306 312 311 310 309 312 312 310 307 306 311 309 309 303 302 310 315 315 314 315 316 315 312 310 308 306 307 309 308 308 307 306 306 306 306 306 304 301 299 301 304 304 304 303 302 301 301 301 300 302 301 302
305 306 301 306 307 309 305 307 306 305 310 316 314 305 304 305 307 315 314 313 311 314 314 312 311 309 306 305 307 306 306 306 306 306 305 304 305 304 304 304 304 293 305 304 304 304 306 304 302 301 300 299 300 301
304 308 308 303 305 306 307 306 307 314 320 316 311 310 310 317 319 318 313 310 312 311 307 305 306 306 305 306 306 305 305 304 302 300 299 298 298 300 303 303 303 304 304 303 291 297 302 303 304 303 301 302 303 304
303 307 304 303 302 301 306 311 311 317 320 318 318 317 316 318 322 322 311 306 307 306 306 305 305 304 302 302 302 303 305 305 304 302 300 300 300 302 303 303 303 303 304 303 302 302 293 300 296 302 301 302 302 302
309 306 303 303 301 304 307 312 316 316 315 314 317 315 314 318 317 316 314 309 308 307 306 304 303 304 302 302 302 302 301 304 305 304 305 305 304 303 303 303 302 303 303 303 303 303 302 302 305 303 302 301 299 298
306 304 303 301 303 313 317 315 316 316 317 316 315 318 317 316 312 312 307 304 301 301 302 304 303 303 305 304 306 306 294 306 304 304 304 304 304 304 304 303 302 302 302 302 303 303 302 301 303 303 302 300 299 299
306 306 305 305 304 307 314 314 313 313 315 315 316 316 315 314 310 314 313 308 304 302 305 306 308 310 307 306 306 306 299 305 303 296 295 296 296 299 303 303 303 302 302 301 302 302 301 301 301 301 301 300 300 300

GFSWCAN_sfc_thetae_087.txt.gz
Theta_e
315 315 315 315 316 316 316 316 312 310 312 314 314 315 316 316 316 316 321 323 318 312 313 311 311 309 308 309 307 308 305 304 303 301 301 301 299 300 298 301 299 298 296 296 297 295 292 307 304 298 307 310 309 309
314 314 315 315 315 315 315 316 313 310 311 313 314 314 316 316 315 314 319 323 322 314 315 318 315 317 314 314 312 309 307 303 306 307 305 304 302 302 299 296 304 297 302 300 299 301 310 310 308 312 311 309 308 307
312 313 313 314 314 315 315 315 313 310 311 312 313 314 314 315 315 314 321 323 321 315 315 314 313 317 319 317 320 309 310 311 308 310 308 304 299 303 298 300 301 302 305 301 302 305 306 308 308 308 307 307 307 307
311 311 313 313 314 314 314 315 312 310 311 311 312 313 314 314 314 313 321 322 321 316 308 311 317 315 320 319 318 317 315 316 315 311 305 303 301 305 302 304 302 305 305 301 302 305 306 307 306 307 306 307 306 307
311 311 311 312 313 313 314 314 310 309 310 311 312 313 313 313 313 316 324 326 326 317 310 311 316 317 318 318 316 316 314 313 310 307 304 302 304 306 305 303 302 304 303 301 301 306 306 306 309 309 307 307 307 307
311 311 311 311 312 313 314 312 309 309 310 310 311 311 312 312 313 319 317 324 327 322 313 307 316 314 318 317 316 315 314 312 309 306 306 307 309 306 301 300 307 309 309 308 305 309 308 308 310 309 308 308 309 307
311 311 311 311 312 313 312 308 308 309 309 310 309 309 311 311 315 315 315 318 315 323 314 308 308 314 316 316 316 315 315 310 309 305 304 306 300 301 296 293 304 308 308 309 309 308 305 306 306 309 309 309 307 308
311 311 310 310 312 313 311 308 309 309 309 309 309 308 310 311 311 314 320 313 313 318 316 308 306 310 317 312 311 315 309 308 308 305 301 298 297 296 288 299 301 304 302 304 306 308 307 309 308 309 310 309 307 307
310 310 310 310 312 312 309 309 309 309 309 309 308 309 316 314 315 317 315 315 323 318 310 311 304 303 316 314 318 315 313 305 307 301 299 297 291 286 299 303 303 302 300 301 302 302 305 305 306 307 308 307 306 307
309 309 310 311 310 308 308 309 309 309 308 308 313 316 311 318 315 316 319 315 313 316 315 309 313 309 311 312 310 311 309 303 295 301 304 298 299 305 306 307 306 303 301 303 300 297 299 301 303 304 305 306 307 307
310 311 310 309 308 308 308 309 309 308 307 316 315 314 321 314 318 313 308 307 313 309 313 313 311 307 315 308 307 310 304 304 295 300 300 300 297 304 308 306 307 307 307 306 307 305 306 305 304 304 306 307 307 308
310 309 308 308 308 308 309 309 309 311 319 314 316 319 321 314 310 307 305 311 308 306 312 311 310 313 313 317 309 310 300 303 292 304 299 296 303 307 307 306 307 309 309 307 308 308 308 308 309 310 310 309 309 309
307 307 307 307 308 309 309 309 308 309 309 320 316 312 310 309 300 302 302 306 304 310 310 311 308 312 313 314 309 306 298 296 308 299 298 299 306 307 308 309 308 309 308 309 309 309 309 309 310 309 307 309 310 309
307 307 308 310 309 308 308 309 309 311 315 313 309 296 306 306 310 313 311 308 312 313 313 309 310 309 310 306 306 299 303 303 295 293 293 301 307 306 308 308 307 306 306 307 307 308 307 308 308 308 308 309 308 309
307 308 309 309 309 308 309 309 309 316 317 309 308 296 308 314 315 318 316 315 314 315 312 309 309 310 305 302 305 301 296 293 296 294 299 306 309 309 308 307 307 307 307 306 308 307 307 307 308 307 309 308 309 310
308 308 313 308 309 309 309 309 313 319 315 310 308 306 313 312 313 313 314 313 314 314 312 309 306 302 301 303 298 296 294 293 297 302 305 308 310 310 310 311 310 309 308 308 307 307 306 308 306 309 310 308 308 308
307 319 309 308 308 308 308 314 316 310 308 306 306 310 314 316 316 314 315 313 315 311 305 306 298 298 304 298 296 303 298 300 303 305 308 312 310 310 310 310 310 309 310 309 308 308 308 309 308 309 308 310 308 310
318 316 309 307 308 310 318 315 313 309 305 308 306 311 315 319 318 317 317 316 313 312 311 304 305 299 298 294 298 304 306 306 308 307 307 310 312 312 310 309 309 309 309 310 309 308 308 307 306 306 309 310 310 310
312 312 310 309 311 311 312 314 314 307 309 311 314 315 319 318 322 321 319 319 318 318 313 309 301 299 300 305 304 306 308 308 306 307 308 311 312 311 309 309 308 309 308 308 307 305 304 306 304 304 304 305 307 311
309 309 309 309 309 313 308 312 321 313 310 318 318 315 317 318 320 319 318 317 314 312 308 305 304 310 306 306 310 309 308 309 307 305 306 307 309 310 309 308 306 307 307 306 305 302 303 302 305 305 303 303 304 307
306 313 310 312 312 313 312 312 312 313 316 316 318 320 316 318 316 314 314 317 314 310 307 310 310 313 315 313 312 311 311 310 308 306 306 305 309 308 307 310 308 306 303 303 302 302 298 303 306 305 302 305 305 305
317 309 319 315 315 316 313 315 311 314 312 313 315 315 313 313 314 314 318 314 312 313 314 314 316 315 313 312 312 312 314 314 313 309 301 303 306 306 307 306 304 303 304 303 303 302 303 303 306 308 306 306 304 305
309 314 317 316 309 306 305 318 310 313 308 314 318 313 314 315 317 322 313 314 314 319 321 321 321 320 316 315 315 315 316 314 310 310 310 308 310 309 308 307 305 304 303 303 305 304 304 297 303 305 305 306 307 303
308 313 310 308 309 303 313 311 317 316 316 314 313 308 311 312 318 313 309 311 316 319 318 321 319 314 313 315 312 312 314 314 310 312 312 309 307 306 308 307 307 306 304 307 307 305 303 304 302 308 307 307 305 302
303 303 306 295 310 306 307 308 310 312 308 311 309 309 311 316 312 310 308 312 315 316 317 318 316 314 310 311 311 312 316 312 308 308 309 308 309 306 305 306 306 305 306 306 303 303 302 303 304 304 303 302 301 301
295 305 299 306 307 308 308 304 306 308 310 308 309 316 318 314 306 305 310 313 315 316 315 315 313 312 311 313 311 309 310 310 311 307 307 308 306 305 304 303 302 303 307 307 304 303 303 303 303 301 301 299 296 301
297 302 308 312 311 311 310 311 313 311 307 307 311 310 310 304 303 309 317 320 316 317 317 317 316 314 311 310 310 310 311 310 309 308 308 309 309 308 307 304 303 304 308 308 308 306 304 302 302 303 302 304 302 302
307 307 303 307 307 309 306 308 307 307 310 314 313 306 305 305 307 316 317 319 318 321 317 318 317 313 310 309 309 308 308 309 309 308 307 306 307 306 306 307 306 296 305 306 307 306 306 305 304 303 301 300 303 305
307 310 309 305 307 307 308 308 309 313 317 314 310 309 310 314 318 320 318 319 318 315 312 310 308 309 307 307 308 308 307 306 304 301 300 300 301 302 305 306 304 304 305 304 293 297 302 303 303 303 303 303 304 305
307 311 307 307 304 303 307 310 310 314 320 318 316 316 316 318 321 325 320 318 312 308 309 307 306 304 302 303 304 305 306 305 306 303 302 302 302 304 304 305 304 305 306 305 304 303 295 300 298 303 302 304 303 304
311 309 307 307 305 308 309 310 312 315 316 315 313 313 316 318 321 322 319 314 310 308 306 305 304 305 304 305 304 304 303 305 306 305 306 307 307 305 304 305 306 306 305 305 304 304 304 302 303 303 302 301 301 298
310 307 305 303 305 310 312 313 313 313 315 317 317 321 319 318 313 316 314 312 310 305 304 305 305 304 310 310 311 309 298 308 306 305 307 306 306 306 305 305 305 305 305 304 304 304 303 303 302 303 302 302 302 301
309 308 307 306 306 308 311 313 314 314 316 317 316 318 317 316 312 316 315 313 311 312 310 307 308 309 312 311 311 308 303 308 304 297 296 296 296 301 303 305 305 305 304 304 304 303 303 302 302 303 302 302 302 301

GFSWCAN_sfc_thetae_090.txt.gz
Theta_e
314 314 315 315 316 316 316 316 317 313 312 313 315 315 316 317 316 315 320 324 317 314 314 311 312 309 308 308 305 308 305 306 304 301 301 302 300 303 298 301 300 298 296 295 296 294 292 308 305 298 309 312 311 312
312 312 313 314 314 315 315 316 317 314 311 313 314 315 315 316 316 315 318 324 324 315 315 319 316 316 315 314 311 309 307 307 306 304 304 305 301 302 299 295 305 298 302 300 301 301 310 310 310 312 312 310 310 311
312 312 312 312 314 314 315 315 316 314 311 312 313 314 315 315 316 315 320 323 320 315 314 314 313 316 318 317 318 309 311 312 309 310 306 304 301 304 298 299 301 304 306 302 303 307 308 309 312 312 312 311 310 310
312 312 312 312 313 314 314 315 316 312 310 311 313 314 314 315 315 314 320 322 320 317 308 311 320 315 319 319 318 317 315 316 313 311 305 303 301 306 302 305 304 306 306 302 303 306 307 308 308 308 308 309 308 308
312 312 312 311 311 312 314 314 314 311 310 311 312 313 313 314 314 315 322 324 323 317 311 310 316 318 318 317 315 315 315 313 311 307 305 303 307 305 305 303 302 306 302 302 301 307 308 308 309 309 307 306 308 307
311 311 311 311 311 312 313 314 310 310 310 310 311 312 312 313 313 317 315 323 324 322 313 306 317 315 316 316 315 314 315 313 311 308 306 306 308 307 303 302 307 307 309 309 307 310 309 310 311 311 308 308 309 308
311 311 311 311 311 312 313 311 309 309 310 310 310 310 310 312 314 315 314 318 314 323 314 307 308 315 316 316 315 314 315 313 311 309 307 306 303 305 302 296 304 306 308 309 310 310 306 308 307 311 310 310 311 310
310 311 311 311 311 312 312 310 309 310 310 310 309 309 310 311 311 315 319 313 314 318 317 307 306 310 317 310 309 313 311 311 310 309 306 302 300 296 288 300 302 306 306 306 307 308 308 309 309 310 310 310 308 307
310 310 310 310 311 313 311 309 310 310 309 309 309 310 316 315 317 319 316 317 323 320 312 310 305 304 316 312 314 314 313 306 309 302 303 302 294 288 299 302 303 306 304 305 306 304 305 307 307 307 307 307 307 307
309 309 309 310 312 310 308 309 310 310 308 308 312 316 313 320 316 317 319 315 317 317 316 308 312 305 311 309 310 309 308 304 300 302 304 299 298 304 307 308 308 307 306 305 303 302 302 302 303 305 305 307 308 307
311 311 311 310 309 309 309 309 310 308 306 316 316 316 321 315 320 317 310 310 312 308 312 311 311 306 314 305 306 308 305 305 296 301 299 299 299 305 308 308 308 309 307 306 307 307 308 307 306 305 304 306 307 308
309 309 308 309 308 308 309 310 309 310 319 314 315 320 321 314 312 307 307 310 308 305 311 308 308 311 311 313 307 307 302 301 295 305 300 296 304 308 308 307 308 308 308 308 308 307 307 307 306 305 304 306 307 308
307 307 308 308 308 308 309 309 309 309 311 321 315 313 310 311 298 302 302 306 307 310 311 310 308 311 311 311 308 305 299 297 305 299 297 301 308 308 309 308 307 309 309 309 308 309 310 310 311 310 309 310 311 311
307 307 309 310 309 308 309 309 309 311 313 314 309 293 306 305 308 310 309 308 312 312 310 309 309 307 309 306 307 300 302 302 295 293 294 303 305 308 308 309 309 307 309 308 309 308 308 309 308 311 310 311 311 311
308 308 310 310 309 309 309 309 309 315 316 310 309 297 307 312 314 316 315 314 313 313 311 308 309 308 306 303 304 301 296 293 296 295 300 306 311 310 309 308 307 307 308 308 309 308 308 308 309 309 310 310 311 310
309 307 313 309 309 309 309 308 312 318 315 310 309 307 311 310 311 312 312 312 314 312 312 310 305 302 301 302 298 296 295 293 297 302 307 311 312 311 310 309 310 310 310 307 310 309 308 308 309 308 311 311 306 306
307 319 309 309 309 309 309 314 318 312 309 307 306 310 310 315 312 311 314 313 316 311 306 305 298 299 303 297 296 300 298 300 303 306 311 313 312 310 310 309 311 310 311 310 310 310 309 309 309 308 307 308 311 312
317 315 309 308 308 313 318 315 313 310 305 307 306 310 313 316 317 316 320 318 313 312 311 305 306 299 298 295 297 302 304 306 307 308 309 312 312 311 310 312 312 310 312 311 310 308 308 307 306 304 305 306 307 307
311 312 310 309 310 310 313 314 314 307 309 310 312 313 316 318 316 320 320 321 318 318 312 309 303 300 301 304 303 306 307 307 307 308 311 313 312 310 309 309 311 308 309 308 307 304 304 306 305 304 304 304 302 304
309 310 310 309 309 313 310 311 319 312 309 313 314 311 314 316 319 320 319 317 315 313 309 305 306 308 308 307 308 308 308 309 307 305 307 310 311 311 310 309 306 308 306 308 306 303 304 303 305 305 305 304 302 304
312 314 310 312 312 313 312 312 312 312 312 312 315 318 316 318 315 316 316 319 313 309 308 311 312 314 317 315 313 311 312 310 307 307 307 306 309 308 308 308 308 305 304 303 302 302 302 304 305 305 305 307 307 308
318 311 317 315 315 315 313 315 311 313 312 311 311 316 312 312 313 313 317 313 313 314 314 315 316 313 316 316 314 314 319 316 313 308 302 303 304 306 308 307 304 303 304 304 302 302 304 304 305 306 305 306 305 307
308 313 315 316 310 307 304 316 310 311 307 311 315 311 311 314 315 319 313 315 316 320 319 318 316 325 321 319 318 314 316 314 310 310 309 309 309 308 307 306 306 304 303 304 305 305 304 298 302 306 305 304 304 303
308 313 310 309 308 303 311 310 313 311 314 313 312 310 311 313 319 314 308 313 316 319 319 325 321 317 316 317 313 313 314 314 311 311 311 309 307 307 307 306 306 305 304 306 305 305 305 305 302 305 305 303 304 303
303 303 305 294 310 306 305 306 308 311 307 308 308 309 312 317 310 309 308 313 313 314 319 320 317 316 313 313 313 313 318 313 310 308 310 309 307 307 305 305 305 304 306 305 304 304 305 305 304 304 304 304 302 302
295 305 299 306 307 307 308 305 306 308 309 305 309 313 315 310 307 305 311 315 316 317 317 316 314 313 313 313 311 311 313 313 310 308 309 308 307 305 304 303 302 303 306 306 305 304 304 304 303 302 303 299 295 300
297 303 309 312 310 310 309 311 311 310 307 307 308 311 310 303 303 310 312 317 317 318 318 319 316 314 313 312 312 312 311 311 311 309 310 309 307 308 306 304 303 305 307 307 306 305 304 303 303 302 302 303 303 302
307 309 305 308 307 308 305 306 307 306 309 312 309 306 304 301 306 311 318 320 319 321 319 317 316 314 312 309 309 309 309 310 310 309 307 307 308 306 307 307 305 296 305 305 305 305 305 305 304 303 302 302 302 303
307 310 310 307 307 307 307 307 307 311 316 310 307 307 307 314 319 319 317 320 321 319 315 311 308 308 307 309 309 308 308 308 305 302 301 301 301 302 305 305 305 304 305 305 293 299 302 302 302 303 303 303 303 304
307 310 306 307 306 304 308 310 310 313 315 316 318 316 316 317 323 324 322 320 317 314 312 308 306 305 303 304 305 306 307 307 306 305 301 301 304 305 305 305 304 304 306 305 304 303 296 300 300 302 302 303 303 303
310 310 308 308 307 310 311 312 312 312 313 313 317 314 313 315 316 316 316 318 315 310 306 305 304 307 304 304 306 305 304 307 307 307 306 306 307 306 305 306 306 306 307 305 305 304 303 302 303 303 303 303 302 300
310 308 307 305 306 311 311 308 309 310 312 313 313 318 315 318 311 314 317 316 313 309 306 309 307 306 308 310 312 310 303 308 308 307 307 307 306 307 307 305 305 306 306 305 304 304 304 303 303 303 303 302 302 301
309 310 309 308 306 307 309 311 312 312 314 314 313 313 312 314 312 316 318 317 317 314 313 313 311 310 311 310 310 309 306 310 307 298 296 296 298 301 306 306 305 305 304 304 304 304 303 303 303 303 303 303 303 302

GFSWCAN_sfc_thetae_093.txt.gz
Theta_e
313 313 313 312 314 314 315 316 317 318 316 313 314 315 317 317 316 314 316 323 316 311 312 311 312 308 307 306 303 305 302 302 299 296 297 297 296 297 294 297 294 293 290 290 290 287 288 306 302 298 303 306 308 309
313 313 313 313 312 313 315 316 316 317 316 313 313 314 316 316 316 315 318 325 325 316 312 317 315 315 314 312 308 306 304 305 302 301 300 300 297 297 295 289 300 292 297 294 296 296 303 307 305 307 307 305 306 306
312 312 313 313 313 312 314 315 316 316 315 312 313 314 315 316 316 314 316 323 319 315 314 313 309 315 314 313 314 305 309 309 307 307 302 301 296 300 293 294 296 299 303 296 298 303 305 306 308 308 307 305 306 306
312 312 313 313 312 312 313 314 315 316 314 312 313 313 314 315 315 314 315 321 320 316 308 310 318 315 318 317 316 314 312 312 309 308 301 299 298 304 297 299 298 301 302 297 297 304 305 306 306 305 307 307 306 306
312 312 312 312 312 312 312 313 315 315 311 311 312 313 314 314 314 313 316 321 324 316 309 310 314 316 314 315 315 315 312 310 308 305 303 300 304 302 303 302 299 303 299 295 295 302 302 305 305 306 304 304 304 303
311 311 312 312 312 311 312 313 314 310 311 311 312 312 312 313 312 317 317 321 317 320 311 305 316 316 315 315 315 313 313 311 309 305 304 305 305 301 296 293 303 305 306 305 301 305 305 306 309 307 305 305 306 305
311 311 311 311 312 311 312 313 312 310 310 311 311 311 311 311 312 314 313 315 310 320 313 308 304 314 317 314 313 312 314 311 309 307 305 304 300 302 298 292 302 305 305 307 308 305 304 307 305 308 308 308 310 307
311 311 311 311 311 311 312 312 310 309 310 311 311 311 311 311 310 314 319 313 312 316 317 306 305 309 316 310 308 313 309 309 308 306 304 299 299 297 288 297 301 303 305 305 306 307 304 305 307 308 309 307 305 304
310 310 310 310 310 311 312 311 310 310 310 311 311 311 314 312 316 318 319 318 321 319 311 311 302 302 315 311 309 308 311 303 307 301 300 299 291 286 293 298 301 303 302 302 304 304 304 304 305 305 307 308 304 305
310 309 309 310 311 312 310 309 310 310 310 310 310 313 314 318 319 319 320 316 315 317 316 309 310 306 310 310 308 306 307 302 297 301 303 297 294 298 304 304 306 305 304 303 302 300 301 302 303 304 304 305 305 305
311 311 311 311 310 309 309 309 310 309 307 312 315 315 322 318 319 315 310 309 312 308 313 311 310 306 314 305 304 308 302 303 295 299 298 296 296 303 308 306 306 306 305 304 305 305 304 305 304 304 304 306 305 306
308 309 309 309 309 308 309 310 309 307 316 309 308 314 321 316 311 308 306 310 308 306 311 308 309 311 311 313 305 306 301 301 293 303 298 293 301 306 306 306 307 307 306 307 308 307 307 307 306 305 305 304 304 306
308 307 307 308 309 309 309 309 309 309 309 319 314 314 311 310 296 301 301 306 307 310 312 309 307 311 311 310 305 302 299 296 305 298 296 299 305 307 307 307 307 308 308 308 309 309 310 309 310 307 305 305 305 304
309 308 309 310 310 309 309 309 309 310 311 312 309 292 305 303 306 310 309 310 313 313 311 310 308 308 310 305 304 300 302 303 295 292 295 302 303 303 306 308 307 306 307 307 308 309 308 309 307 308 308 309 307 304
308 308 309 311 310 310 310 308 308 311 314 310 310 295 305 310 314 313 312 313 314 313 310 307 309 308 306 304 305 302 298 295 296 294 300 304 306 308 308 308 307 307 307 306 308 307 306 307 307 305 307 308 308 307
310 308 312 309 309 309 308 308 310 315 315 311 309 305 310 309 307 310 313 314 316 312 312 311 307 304 302 303 300 298 295 293 297 302 306 310 309 309 308 307 308 308 308 308 307 307 308 306 304 307 307 307 307 308
306 315 309 309 309 309 309 311 316 312 309 307 306 309 309 309 306 309 313 314 321 313 306 308 301 301 304 297 298 301 298 301 306 307 310 311 309 308 308 309 308 308 308 307 307 307 307 307 306 305 304 306 307 306
314 313 309 308 307 313 314 310 312 309 304 307 303 306 315 315 311 314 314 315 316 313 312 308 309 302 298 297 298 303 304 306 309 308 308 311 311 309 309 307 307 308 307 307 306 305 304 304 302 301 301 301 301 301
310 310 311 310 309 307 311 314 314 304 308 310 311 312 317 317 320 315 314 316 323 322 315 311 306 301 302 306 304 306 307 308 307 308 311 313 312 309 308 307 309 309 306 307 306 304 304 303 302 302 301 301 300 300
309 310 311 310 309 310 310 311 320 311 306 313 315 313 315 319 319 317 318 319 320 317 311 307 306 310 309 310 309 309 308 309 306 306 307 308 309 310 309 307 305 306 307 307 307 302 303 303 303 302 302 302 302 303
313 313 310 310 309 309 310 311 313 313 312 310 313 314 316 321 317 315 312 318 315 312 309 313 312 311 315 317 315 314 311 310 310 309 308 307 309 309 309 310 307 304 302 301 301 299 302 302 302 302 303 302 303 305
316 312 315 313 313 315 312 315 310 313 312 311 311 314 310 311 309 310 318 314 310 313 316 317 315 313 314 316 315 315 316 314 313 306 304 302 304 305 307 304 302 301 302 302 301 302 301 301 302 303 302 302 302 303
311 312 313 314 310 304 302 316 310 312 306 310 312 308 308 312 313 319 312 314 314 319 320 317 318 319 319 318 317 317 317 315 311 311 309 309 310 308 306 304 303 301 301 301 303 302 302 300 301 302 302 302 302 301
310 311 309 307 307 301 310 309 312 310 311 311 309 308 311 313 319 313 309 313 314 317 316 317 319 316 316 315 311 313 315 314 312 312 311 310 306 306 306 305 304 303 302 303 304 303 303 303 301 303 303 302 302 301
301 301 303 293 309 305 304 304 306 307 306 308 307 307 308 314 310 309 307 310 314 316 317 318 319 315 312 312 313 313 317 313 310 309 310 310 307 306 304 303 304 303 304 303 303 302 302 303 304 303 303 302 302 301
293 304 297 304 305 304 305 304 307 306 309 306 307 309 308 306 306 305 307 309 311 312 315 317 315 314 314 314 311 312 313 315 312 307 310 309 307 305 303 301 300 302 305 305 303 303 303 303 302 303 300 299 295 298
295 302 308 312 308 308 308 310 310 309 305 306 306 306 305 300 303 307 313 312 312 313 320 320 320 316 312 313 312 312 311 311 311 310 310 309 308 307 305 303 304 303 306 305 305 304 303 302 302 301 301 302 302 301
305 308 304 308 308 308 304 305 305 305 310 309 308 303 303 304 305 315 315 319 317 315 320 314 312 310 309 309 309 309 309 309 310 308 307 306 306 305 305 303 302 298 303 305 304 303 303 303 303 303 302 301 301 302
305 309 308 306 307 308 307 306 305 310 313 312 307 304 308 314 316 316 318 320 322 319 314 307 308 309 307 309 310 310 309 307 305 303 302 300 300 301 305 304 304 305 303 300 296 300 302 301 301 302 302 303 303 303
304 309 305 305 305 304 309 311 309 311 314 314 316 314 315 317 317 319 318 318 317 314 308 306 306 306 304 305 305 307 308 308 306 304 302 302 304 303 304 304 303 303 304 302 301 300 296 298 298 300 300 303 302 302
309 307 306 306 306 310 312 314 313 313 312 312 313 312 312 314 320 324 318 319 313 309 307 308 307 308 305 305 306 305 304 307 308 308 307 307 306 305 305 305 305 305 306 304 302 301 299 299 301 302 303 304 302 298
309 308 306 305 307 313 314 311 309 308 310 313 312 315 313 312 310 315 317 316 313 309 306 310 309 307 309 309 311 310 302 307 307 306 307 307 308 307 307 306 305 305 306 305 304 304 302 302 302 303 303 303 303 303
309 309 310 308 307 308 311 310 308 309 310 310 310 311 311 311 308 313 317 316 317 314 312 314 311 311 313 312 311 308 308 308 303 298 297 297 298 302 305 305 305 305 305 304 304 303 304 304 303 305 305 304 304 303

GFSWCAN_sfc_thetae_096.txt.gz
Theta_e
313 313 313 314 313 312 313 314 315 316 317 316 313 314 316 316 316 310 308 313 307 301 304 309 307 302 302 300 295 298 296 299 294 291 292 287 287 289 289 292 290 289 285 285 287 284 283 304 303 298 300 302 310 309
313 313 313 313 313 313 313 314 315 315 316 317 313 315 316 316 315 314 309 315 317 307 306 311 310 308 307 305 301 298 299 297 295 294 293 293 289 291 288 283 295 290 293 291 293 292 300 302 302 304 304 304 304 306
312 312 313 313 313 313 313 313 314 315 316 316 313 313 315 315 315 313 306 311 311 306 306 305 304 306 310 306 307 300 301 302 299 299 295 294 291 292 286 287 291 296 297 294 295 299 300 302 303 305 305 303 304 307
312 312 313 313 313 313 313 313 313 314 316 314 313 314 315 315 314 313 305 310 311 308 302 304 311 307 308 310 309 308 305 304 303 299 293 293 292 297 291 293 291 296 296 293 293 298 301 304 302 303 303 304 303 304
312 312 312 312 312 313 313 312 313 314 315 311 312 313 313 314 312 309 307 310 312 308 301 305 307 307 307 308 308 308 306 303 300 297 296 294 296 296 296 296 292 297 294 291 289 297 297 300 302 304 302 302 302 303
311 311 311 311 312 312 312 312 313 314 310 311 311 312 312 312 311 311 309 313 309 312 304 299 307 304 307 308 308 306 305 303 301 298 297 298 298 296 290 284 297 300 301 300 297 301 301 302 304 303 302 302 304 302
311 311 311 311 312 312 311 312 313 311 310 310 311 311 311 310 306 307 308 312 308 310 306 300 299 307 309 307 306 305 306 303 302 298 296 295 294 295 291 285 295 298 300 301 303 302 299 301 299 303 303 304 306 303
310 311 311 311 312 311 311 313 311 309 310 311 310 311 310 310 309 308 310 309 309 307 308 300 302 303 308 303 304 304 302 301 301 297 296 292 292 293 287 291 294 298 300 300 302 302 300 302 303 304 306 304 302 301
310 310 311 310 310 311 312 311 311 311 310 310 310 310 307 307 307 311 319 315 310 310 303 303 300 298 306 307 304 304 303 295 299 294 293 292 287 285 288 291 295 298 297 298 300 300 301 301 303 303 304 303 301 301
311 310 310 310 311 312 311 310 310 309 309 309 305 307 307 312 319 317 312 308 306 307 306 301 304 302 308 302 300 299 298 294 290 294 296 289 287 292 294 295 298 301 300 300 296 294 296 296 300 303 304 304 304 304
310 311 311 311 310 309 309 309 309 309 308 305 309 309 313 317 311 307 302 301 302 300 303 303 303 302 305 299 297 299 294 294 286 291 291 288 289 297 299 300 301 300 300 300 300 300 300 300 300 303 303 305 306 305
308 308 309 309 308 309 309 309 309 304 306 303 303 306 311 308 307 300 299 302 300 299 302 300 301 302 302 302 297 298 294 294 287 297 292 284 293 299 301 302 302 300 301 302 303 302 303 303 302 303 301 301 303 305
308 308 307 308 308 309 309 308 308 308 306 307 306 305 304 304 295 297 295 298 298 302 303 301 299 300 301 300 296 296 293 291 299 292 289 291 297 301 300 302 302 303 304 304 304 305 305 305 305 303 301 302 303 302
309 308 308 310 310 310 309 308 308 306 306 305 303 291 299 297 300 301 301 304 307 305 304 302 301 300 300 296 296 294 296 296 290 286 289 294 297 300 301 302 302 302 303 303 304 305 304 305 305 305 305 304 306 304
309 308 309 309 310 310 309 308 308 304 306 305 305 291 299 305 307 307 307 310 306 303 304 301 300 299 297 296 297 296 295 292 290 288 293 298 299 299 299 302 301 301 302 304 303 306 306 306 305 305 305 305 307 307
309 310 308 310 310 308 308 306 305 306 308 305 303 299 304 303 305 307 309 308 307 300 301 300 298 296 295 296 294 293 291 288 290 294 298 299 299 300 299 300 302 302 301 302 305 304 302 302 300 301 302 304 303 306
309 312 309 309 309 308 308 305 308 307 306 304 300 302 302 305 302 305 306 305 310 306 299 299 296 294 295 291 291 294 292 295 299 300 301 301 301 300 300 301 301 302 301 300 300 301 301 302 301 299 297 296 299 301
308 307 310 308 307 308 308 304 307 307 302 301 297 299 302 306 306 305 308 311 309 306 305 301 298 292 290 291 291 294 295 300 302 304 303 302 301 300 302 300 301 301 300 300 299 298 298 298 296 294 295 295 295 295
307 307 309 310 307 302 305 308 307 301 302 302 303 303 304 307 310 312 311 309 309 311 310 301 297 292 292 296 295 296 299 302 302 301 301 302 301 301 301 300 300 300 300 299 298 297 296 296 295 295 296 296 295 297
308 309 310 310 308 303 305 305 310 304 301 303 304 305 305 307 310 308 308 308 308 308 304 299 298 300 302 301 302 301 303 303 304 301 300 302 301 300 299 298 300 300 298 299 300 298 297 296 296 297 297 296 296 296
309 309 309 307 303 304 303 303 305 306 305 302 305 306 305 309 311 308 307 310 307 306 302 306 305 305 305 308 309 306 302 300 302 301 302 299 302 301 301 302 299 296 296 297 296 297 297 296 296 297 297 296 297 298
308 312 308 306 307 309 305 307 304 305 302 303 303 304 302 301 304 305 309 309 306 307 308 308 307 308 308 308 308 304 304 303 302 300 300 301 301 300 299 302 300 296 295 296 298 296 295 296 297 297 296 296 297 297
308 308 307 310 307 300 298 308 303 305 300 300 304 300 299 302 305 312 304 307 307 309 311 311 312 313 312 311 309 307 305 305 302 298 298 298 299 299 297 296 298 296 295 296 298 297 296 296 298 297 296 295 296 296
309 305 306 305 303 297 305 303 306 303 303 301 301 301 304 306 311 308 302 305 307 309 309 310 310 308 308 307 306 306 306 304 301 302 302 301 298 298 297 297 297 297 297 299 299 297 297 297 297 297 298 297 297 295
299 297 298 291 303 302 300 301 302 301 300 303 302 301 302 308 304 304 303 303 307 309 310 309 309 309 306 304 304 305 307 304 302 302 303 303 301 296 297 296 295 295 297 300 297 297 297 297 298 298 298 297 296 296
293 299 295 301 301 300 301 301 303 301 303 302 305 306 305 301 300 299 305 306 308 310 311 311 312 310 309 308 305 306 310 308 304 302 300 300 301 299 296 295 295 295 296 301 298 298 298 299 300 299 297 294 294 296
293 298 303 305 303 302 302 304 307 306 304 303 306 304 302 299 299 305 309 309 308 310 313 315 315 313 308 306 309 311 309 306 303 303 300 298 298 300 299 297 296 296 298 300 300 300 299 298 298 298 296 296 295 297
301 302 298 301 303 303 300 300 301 300 307 306 305 301 300 301 300 308 311 314 316 315 312 307 303 306 305 305 307 305 304 302 299 299 299 297 297 297 297 297 297 297 299 299 299 299 298 298 298 298 297 297 296 297
300 303 303 300 302 303 303 301 301 302 308 305 304 304 306 310 314 312 311 314 316 310 302 302 303 303 304 304 304 306 304 300 296 294 293 292 292 294 295 296 296 297 297 297 296 297 298 296 297 298 299 297 297 297
300 304 300 301 300 300 303 305 304 306 309 310 311 311 312 313 314 314 314 313 311 305 306 304 300 299 299 300 300 300 299 299 300 298 295 294 295 297 297 296 296 296 295 295 294 294 295 295 294 294 295 297 297 296
304 303 301 301 300 303 306 307 308 308 310 309 310 308 308 310 316 318 316 314 305 304 302 301 299 299 297 296 297 296 295 297 299 299 299 298 299 299 297 296 296 297 297 296 295 293 292 293 295 296 296 297 298 297
304 303 303 301 302 306 308 305 304 303 308 307 307 309 309 309 307 310 315 315 307 302 301 302 300 299 300 300 301 299 298 299 298 301 303 302 301 299 299 297 297 297 299 298 297 296 295 295 295 296 298 299 299 299
305 305 305 303 302 304 307 307 305 307 307 305 309 310 310 307 300 306 314 314 309 304 303 303 303 302 302 302 301 301 302 304 302 299 299 298 299 298 298 298 298 299 299 298 297 297 297 297 297 298 299 299 300 300

GFSWCAN_sfc_thetae_099.txt.gz
Theta_e
312 313 313 314 314 314 314 312 313 315 315 317 317 314 315 316 316 309 309 310 304 299 302 306 305 300 300 298 294 296 296 296 292 291 290 285 285 288 287 290 287 288 284 283 284 282 282 302 302 294 297 304 310 311
312 312 313 313 313 314 314 313 312 314 315 316 317 314 315 316 316 313 306 311 312 304 304 308 309 306 305 305 299 296 297 295 294 292 291 290 287 288 285 281 293 288 291 289 290 289 297 300 298 300 303 305 306 308
312 312 313 313 313 313 313 314 313 313 314 316 316 313 314 315 315 311 304 307 308 305 303 303 302 306 307 305 306 300 299 299 296 297 293 292 290 290 284 286 289 293 295 293 293 297 298 299 301 302 305 305 307 308
312 313 313 313 313 313 313 313 313 313 315 316 313 312 314 314 313 312 302 306 308 306 299 302 310 304 306 308 308 305 303 301 299 296 292 292 291 294 288 290 288 294 294 292 292 296 298 300 301 301 303 307 308 309
312 312 312 312 312 312 313 313 313 313 314 315 311 312 313 313 311 307 305 308 309 307 301 301 305 306 304 307 307 306 303 300 298 296 295 293 293 294 293 293 290 295 293 290 290 296 295 297 300 302 301 303 304 304
312 312 312 312 312 312 312 313 312 313 313 310 311 312 312 311 310 310 307 311 307 309 302 298 304 303 306 307 306 305 303 300 298 297 294 294 295 293 288 283 294 297 299 298 296 298 299 301 303 303 300 302 304 304
311 311 311 311 312 312 312 311 312 313 310 310 310 311 311 310 306 308 307 310 307 308 304 298 297 304 307 304 304 303 303 301 300 295 293 293 292 292 288 286 294 297 298 299 301 299 298 300 299 303 303 303 305 303
311 311 311 311 312 311 311 312 313 310 310 310 310 310 310 310 309 308 309 309 308 306 306 298 297 300 305 301 299 302 300 299 298 294 293 290 289 293 286 291 293 295 297 299 300 300 298 300 301 302 302 301 300 301
311 310 310 310 310 311 312 312 311 311 309 310 310 310 310 306 305 310 317 313 309 309 302 300 296 294 304 302 301 301 299 294 296 292 291 291 288 282 288 290 292 296 297 297 297 298 299 300 300 302 304 302 298 298
311 311 310 310 312 312 311 310 309 309 309 309 307 308 304 309 318 316 310 306 305 305 303 299 301 299 304 301 297 297 295 292 288 292 293 288 286 290 292 292 295 298 299 299 294 293 294 295 299 299 302 304 302 304
309 310 311 311 310 309 309 309 309 308 309 306 310 310 310 315 309 305 300 300 300 298 300 301 300 300 303 297 296 297 292 291 284 290 289 287 287 293 298 295 298 299 299 299 299 298 298 299 299 300 303 305 306 306
308 308 308 308 309 309 308 308 308 304 303 301 301 304 306 306 302 297 296 299 298 297 300 298 300 300 299 299 297 296 292 292 285 294 290 283 291 296 298 300 300 299 299 300 301 301 301 301 300 300 303 305 305 306
309 308 307 309 309 309 308 308 308 307 306 304 304 302 301 301 292 295 294 295 296 300 301 300 297 299 298 298 294 294 292 289 295 290 287 290 293 298 299 300 300 300 301 302 302 303 303 303 303 301 300 301 301 301
308 308 308 309 310 310 310 308 307 305 304 304 301 289 296 295 298 298 299 299 303 302 301 299 299 298 297 295 294 292 294 295 290 284 288 292 296 298 299 300 300 300 301 301 302 303 303 303 304 305 304 303 301 300
309 309 309 309 309 309 309 308 307 303 305 303 303 292 297 302 304 305 305 304 306 302 301 300 300 297 295 294 294 294 292 290 290 288 291 295 297 298 299 299 299 300 300 301 303 303 305 305 304 302 304 304 303 303
309 310 308 309 309 308 307 305 303 304 306 304 303 298 301 301 301 302 303 304 304 298 299 299 295 295 294 295 293 293 291 287 289 291 295 296 297 298 298 299 301 301 300 303 304 303 305 303 301 302 301 300 301 301
310 308 308 308 308 308 308 305 305 304 304 303 299 300 301 301 302 302 304 304 305 299 295 297 294 294 294 292 291 293 291 293 294 296 297 297 298 298 298 298 300 300 299 299 299 299 299 300 299 298 297 294 295 296
306 306 310 309 308 306 306 302 304 306 301 301 296 297 299 302 302 302 304 307 308 305 301 298 297 292 290 289 290 292 293 296 298 299 299 299 299 298 300 298 299 300 299 298 298 298 299 297 296 294 294 294 294 294
305 306 308 309 307 301 302 306 304 299 301 300 300 299 300 301 305 306 306 307 308 309 307 300 296 292 291 292 294 295 296 299 300 300 299 299 299 299 299 298 299 298 298 298 296 295 296 296 294 294 294 294 294 294
308 309 310 309 308 302 302 304 308 301 300 301 301 300 301 302 305 305 306 305 305 304 302 300 298 298 296 297 297 298 301 303 302 300 298 299 299 298 299 297 297 297 297 297 296 295 294 294 294 295 296 295 294 294
306 307 309 305 301 301 300 301 302 304 304 301 302 303 302 305 305 303 304 306 303 302 301 303 301 303 302 303 304 301 303 304 301 303 304 300 300 299 298 297 297 297 297 298 297 295 297 296 295 296 296 295 295 296
304 310 304 304 304 305 300 304 301 303 300 300 300 300 299 298 301 304 307 304 304 305 306 305 306 308 309 308 309 308 304 303 304 303 301 302 299 298 297 298 296 296 295 297 298 297 296 295 295 296 296 296 295 295
306 306 305 306 305 299 298 307 302 302 298 298 301 298 297 298 301 306 302 304 304 306 306 308 309 310 309 311 310 305 302 301 300 302 303 300 301 301 299 299 299 297 294 294 295 295 295 295 296 296 295 294 294 294
307 303 304 303 301 295 304 302 303 301 300 298 298 299 300 302 305 303 301 304 307 307 307 308 309 305 304 304 303 303 302 301 300 297 296 297 297 297 298 298 299 300 298 298 296 295 294 296 296 295 296 295 295 294
294 294 296 289 300 302 300 299 299 299 298 301 300 299 299 303 299 298 300 304 306 308 310 310 309 306 304 303 302 302 303 301 300 299 301 302 298 295 293 293 296 294 299 298 295 296 297 297 296 296 297 297 296 294
288 296 294 300 300 299 299 298 302 301 301 299 301 302 301 298 298 298 302 307 307 308 309 309 309 308 308 307 305 304 306 307 305 303 303 301 299 297 297 293 292 293 296 299 298 297 298 299 298 298 297 297 294 296
288 295 300 303 300 300 298 303 306 304 300 299 301 302 300 297 299 302 306 308 307 308 311 311 312 312 310 308 308 309 310 309 309 307 304 297 297 297 298 295 294 295 297 299 299 300 299 299 299 299 297 293 293 295
298 299 297 299 299 303 298 299 298 297 304 303 304 300 299 300 300 306 308 312 313 313 312 308 302 304 305 304 304 303 302 302 298 295 295 295 293 294 296 297 295 295 296 298 299 299 299 299 298 298 296 295 294 295
297 299 299 297 299 300 300 299 298 301 304 304 300 300 302 306 310 310 309 310 311 304 301 299 300 301 300 300 299 301 299 298 295 293 291 291 291 293 293 295 295 295 295 295 294 296 297 297 297 297 298 297 296 295
296 300 297 298 298 298 301 302 302 305 307 306 306 306 306 307 310 311 310 309 310 304 302 301 300 302 300 300 297 296 296 296 297 295 292 292 293 295 294 294 295 294 294 295 294 293 293 293 293 295 296 296 295 295
299 298 297 298 297 300 302 303 307 307 307 306 307 305 305 306 309 312 311 310 308 303 300 300 299 298 295 295 295 294 295 296 294 296 296 295 295 296 296 295 295 295 294 293 293 292 291 292 292 292 294 295 296 295
300 298 298 297 299 302 304 302 304 305 305 304 303 305 306 306 304 307 310 313 308 307 300 299 297 296 297 297 298 297 295 296 297 298 299 298 298 298 299 295 295 296 295 295 294 292 292 294 293 294 295 296 297 298
301 304 304 301 300 301 304 305 305 305 304 303 304 306 306 303 302 305 308 310 309 305 299 300 299 299 299 298 298 296 295 297 297 296 296 296 296 297 297 295 295 297 297 297 296 295 294 293 293 294 296 298 298 299

GFSWCAN_sfc_thetae_102.txt.gz
Theta_e
312 312 313 313 313 314 314 314 314 312 314 315 316 316 314 315 315 309 307 309 303 298 301 305 304 299 299 296 294 295 295 295 292 290 289 284 283 286 287 288 287 288 284 284 283 283 282 300 301 295 297 305 314 312
312 313 313 313 313 313 313 314 314 313 313 315 316 316 314 315 315 312 304 309 309 303 302 307 308 304 304 304 298 295 296 294 294 291 290 289 286 287 283 281 291 287 290 289 290 288 296 299 299 302 301 305 308 309
312 312 313 313 313 313 313 314 314 314 313 314 315 315 314 314 314 311 302 304 306 303 301 301 302 306 306 304 305 299 297 297 294 295 293 290 289 289 283 285 288 292 294 292 293 296 298 300 302 303 306 306 309 310
312 312 313 313 313 313 313 313 313 313 313 314 316 312 313 313 312 311 303 305 307 305 297 300 310 302 305 306 306 304 301 299 297 295 292 290 291 292 287 289 288 293 293 292 292 296 298 301 301 302 306 308 308 310
311 312 312 312 312 312 313 313 313 313 313 314 313 311 312 313 311 307 304 307 308 306 299 299 303 303 304 305 305 304 301 298 296 296 293 291 292 292 291 291 289 295 292 290 291 295 295 297 300 303 303 306 308 308
312 312 312 311 311 312 312 313 313 312 313 313 310 311 311 311 310 309 306 311 307 307 301 296 303 303 306 306 305 304 301 298 297 296 292 292 294 292 287 282 292 296 298 296 296 299 299 301 302 304 302 304 306 306
312 312 311 311 312 312 312 312 312 312 313 310 310 310 310 310 305 307 306 309 307 306 303 296 296 303 306 303 303 301 301 299 298 293 292 292 291 291 287 284 292 296 298 299 301 300 298 301 299 302 303 304 307 305
311 311 310 311 311 311 311 311 312 312 310 310 310 310 310 310 309 309 308 308 307 306 304 296 296 298 303 299 298 300 298 297 296 292 291 290 288 292 284 290 292 295 296 298 299 301 299 300 302 302 304 302 302 301
311 311 310 310 311 311 312 312 310 310 309 309 309 310 310 308 308 309 316 312 309 306 300 298 295 293 303 299 299 299 297 293 294 291 290 290 287 279 288 289 292 294 296 295 298 299 299 300 300 301 303 300 298 299
309 311 311 312 312 311 311 310 309 309 309 309 310 310 306 311 317 315 309 304 303 303 302 299 299 297 301 298 298 296 294 290 288 290 292 287 286 290 291 291 293 296 298 298 296 294 295 296 298 301 301 302 303 302
308 309 310 310 309 309 309 309 309 308 309 307 309 308 310 313 308 303 299 298 298 296 298 300 299 298 301 297 295 295 291 290 283 288 289 286 287 292 297 294 294 296 298 299 299 299 299 299 298 300 304 306 305 305
309 307 308 308 309 308 308 308 307 304 301 303 304 303 304 304 299 296 295 297 297 296 298 297 299 299 298 298 297 294 290 290 285 292 289 282 291 295 298 297 299 299 300 300 300 300 301 302 300 301 302 304 306 307
309 308 308 308 309 310 309 308 307 307 305 304 305 302 300 298 289 293 292 293 294 299 299 298 296 297 296 297 294 293 291 289 294 289 286 290 293 296 298 299 300 299 300 301 302 303 304 304 303 302 301 305 306 305
309 309 308 308 309 310 309 309 308 305 305 303 300 289 296 293 296 296 297 297 301 301 299 298 297 296 295 294 293 291 292 294 289 284 287 292 294 297 298 300 299 299 299 300 301 303 303 304 303 304 303 302 302 301
309 309 309 309 309 309 308 309 307 303 304 302 302 292 296 300 301 303 303 302 304 302 300 299 298 296 293 293 293 293 291 289 290 289 291 294 295 297 298 299 299 299 299 300 301 301 303 304 304 305 306 305 305 304
309 309 307 308 309 308 307 305 302 303 304 302 301 298 299 299 299 301 301 301 302 299 298 298 295 293 293 293 293 292 291 288 291 292 294 295 297 297 298 299 300 300 300 301 303 304 305 304 303 303 304 303 302 303
310 307 308 309 309 308 307 304 304 302 301 302 299 299 300 300 300 300 302 303 300 298 296 295 293 293 294 292 291 294 291 294 295 295 296 297 298 298 299 299 300 301 300 300 302 303 302 301 300 300 300 299 297 298
308 309 309 309 307 306 305 302 304 304 300 301 297 296 298 300 300 301 302 304 305 301 298 297 295 292 290 289 289 292 293 294 297 298 298 298 301 299 300 299 300 300 300 299 299 299 300 299 299 299 298 296 296 297
305 306 308 308 307 300 301 304 302 296 299 300 299 298 298 299 300 302 304 305 306 306 305 300 298 291 292 293 294 294 294 298 299 301 302 301 301 300 300 300 300 299 298 298 297 298 299 299 298 296 296 296 296 297
308 309 310 309 308 301 301 301 305 299 297 300 299 299 298 299 302 304 304 304 304 303 300 299 297 297 296 297 297 298 298 301 302 301 300 300 300 299 299 299 298 298 297 297 297 295 295 295 295 295 297 297 297 297
305 306 308 304 301 300 300 299 300 302 302 301 300 301 301 302 304 303 302 303 301 301 300 302 301 302 301 300 300 301 303 305 305 306 302 300 300 301 299 298 298 297 297 296 296 296 296 296 296 297 297 297 297 298
302 310 303 304 303 303 298 301 299 301 299 298 298 299 297 297 297 301 303 302 301 303 303 304 304 307 303 304 308 308 307 308 308 303 301 302 299 298 298 298 297 297 297 298 298 298 297 297 297 298 298 297 297 297
306 305 302 304 304 300 297 304 301 301 297 297 299 297 296 296 299 303 300 301 303 304 305 306 307 308 309 309 308 306 304 304 303 304 303 304 303 302 300 299 299 298 296 296 297 297 297 295 296 298 298 297 297 297
306 302 300 298 298 293 301 300 302 300 300 298 296 296 298 300 303 301 299 301 303 305 306 307 307 306 306 306 305 306 306 303 302 301 300 300 299 300 301 301 300 301 299 297 296 296 297 297 296 297 297 297 297 297
294 292 294 288 298 301 298 299 299 299 298 298 298 298 298 300 297 297 297 300 304 306 308 309 308 307 306 304 303 303 301 299 298 298 298 300 298 296 296 299 300 300 298 297 295 296 296 297 297 298 298 298 297 297
291 294 293 297 298 298 299 298 299 300 298 297 299 300 300 297 296 296 299 304 305 308 309 310 310 309 307 308 306 303 303 303 305 303 304 303 300 298 298 297 296 295 297 300 299 298 297 298 298 298 298 298 294 298
289 292 297 301 300 300 298 300 305 301 300 300 301 299 298 295 297 302 304 306 306 308 309 310 312 311 312 308 309 309 307 309 309 310 310 306 302 300 299 299 297 298 298 300 300 300 299 299 299 299 299 299 298 298
296 296 294 298 298 300 298 298 298 298 302 302 303 300 299 299 299 304 307 310 310 310 310 311 309 307 306 309 309 307 306 300 298 297 296 296 295 296 298 298 298 294 299 301 300 301 301 300 300 300 300 299 297 297
296 299 298 295 297 298 299 298 298 301 304 303 300 298 300 305 309 309 308 308 309 304 301 301 301 301 300 299 300 301 300 299 297 294 294 293 294 296 296 297 297 297 297 298 295 298 301 300 300 301 301 300 299 299
294 299 296 297 297 297 300 302 301 303 305 304 304 306 305 306 309 310 309 306 305 303 303 302 302 301 299 299 297 297 297 296 298 297 294 294 295 297 297 297 297 296 296 297 296 295 293 297 296 298 298 298 298 298
298 297 296 296 296 298 302 303 305 307 307 306 306 305 304 305 307 310 310 308 303 303 302 299 299 299 299 297 297 297 297 298 296 298 298 297 297 297 298 298 297 296 297 296 296 296 295 295 296 297 298 298 298 297
297 297 296 295 297 301 302 301 303 306 305 303 303 305 305 304 302 306 309 310 310 307 300 300 298 297 297 296 298 298 295 299 299 298 299 297 298 299 298 298 297 296 296 296 295 295 296 296 296 296 296 297 298 299
301 300 299 300 301 302 305 305 306 304 303 303 303 305 305 302 300 304 307 309 309 308 303 301 301 300 300 301 299 298 296 298 297 295 295 295 295 296 298 297 298 298 298 297 296 295 295 296 296 297 297 298 299 300

GFSWCAN_sfc_thetae_105.txt.gz
Theta_e
312 312 313 313 314 314 314 314 314 315 314 313 315 316 316 314 315 314 316 317 313 309 310 310 308 307 306 305 303 303 303 304 304 300 300 299 299 300 297 297 296 296 294 295 293 292 291 306 307 302 307 311 316 323
311 312 313 313 314 313 313 314 314 314 314 313 314 316 316 314 314 313 313 314 315 311 311 314 315 312 310 311 307 304 305 303 306 303 302 300 299 299 295 294 300 296 299 299 298 298 306 308 307 310 310 310 315 321
312 312 313 313 313 313 313 314 314 314 314 313 314 315 314 314 313 312 311 312 314 311 311 310 309 313 313 311 312 309 307 305 304 305 305 302 298 301 297 298 299 301 302 302 301 303 305 308 311 313 313 313 315 319
311 312 313 313 313 313 313 313 313 314 314 313 314 316 313 313 313 312 312 312 315 311 305 307 314 311 313 314 312 311 309 307 306 307 305 303 302 301 300 300 301 303 303 301 302 305 306 307 309 310 313 315 316 317
311 312 313 312 312 312 313 313 313 314 314 313 315 312 312 312 311 312 313 314 315 313 306 307 310 311 313 314 312 312 311 310 309 307 305 303 304 303 302 303 302 305 303 303 302 305 307 306 308 309 310 312 315 315
311 312 312 312 312 312 312 312 313 313 313 313 313 311 311 311 310 317 313 316 313 315 311 303 311 310 313 314 313 312 311 309 309 307 304 303 302 303 301 300 302 305 306 306 305 308 307 309 308 309 308 312 314 316
310 312 311 311 312 312 312 312 313 312 313 312 310 310 310 310 311 314 312 314 311 316 312 305 305 310 312 312 312 311 311 308 309 305 305 304 302 303 299 298 301 307 308 308 309 308 306 307 307 309 309 309 311 314
310 311 311 311 311 311 311 311 312 312 311 310 310 309 310 310 311 313 317 310 313 315 314 304 305 307 312 309 309 309 309 309 305 304 303 303 300 298 291 303 302 306 305 305 307 308 307 308 309 309 310 308 310 311
309 311 311 311 311 312 312 313 312 310 310 309 309 310 313 313 315 316 315 315 319 314 310 308 303 302 312 309 310 309 308 305 304 303 302 301 295 288 301 302 302 305 304 304 306 307 306 306 307 308 308 307 308 309
309 309 311 311 311 311 310 310 309 309 309 309 311 311 312 315 317 317 316 313 312 313 313 310 308 306 310 309 307 307 305 302 299 301 302 299 299 303 302 302 306 305 306 307 305 303 305 305 306 307 308 308 308 308
309 308 309 309 309 309 309 308 308 308 310 314 312 311 314 313 315 312 308 305 306 305 309 310 309 307 311 306 305 305 302 301 297 299 299 298 298 303 306 304 304 307 308 308 308 308 307 307 306 306 307 308 309 308
309 309 308 307 308 308 308 308 307 309 307 306 306 308 311 311 307 304 303 305 304 303 307 307 307 309 307 309 306 304 301 300 294 301 299 295 302 307 306 305 304 307 308 308 308 307 307 307 307 308 310 309 310 311
309 309 308 308 309 310 310 309 308 307 307 309 312 308 307 305 295 298 296 301 302 306 307 306 304 308 305 307 304 303 298 297 302 298 297 300 307 306 308 307 306 309 307 308 307 309 309 308 309 309 309 311 311 310
309 309 309 308 309 309 309 309 308 308 310 310 306 290 300 299 301 303 304 305 309 309 307 308 305 306 306 303 303 298 299 301 295 293 295 304 309 309 308 308 308 306 307 307 308 309 309 310 310 311 310 310 310 310
309 309 309 309 309 308 308 309 307 308 310 306 307 294 301 306 308 310 309 310 312 310 308 306 306 307 303 301 302 299 296 294 297 297 302 307 309 308 308 308 308 306 306 307 309 309 309 310 310 309 310 310 310 309
309 310 308 308 309 309 307 306 307 309 309 306 306 304 306 305 307 308 309 309 311 309 308 309 304 302 301 302 298 297 296 295 300 304 308 307 308 308 309 309 309 308 308 308 309 310 310 309 310 309 308 309 310 311
309 311 309 309 309 308 308 310 309 305 304 304 303 308 307 306 307 309 310 310 311 308 305 305 301 300 302 299 298 302 299 304 307 307 306 307 310 309 310 310 310 309 308 309 309 309 308 309 310 309 308 310 309 308
308 311 309 308 309 308 311 308 309 307 302 305 302 303 305 307 307 308 309 310 308 307 306 305 305 300 299 297 299 305 306 308 307 307 309 308 310 310 310 311 311 311 310 310 310 309 310 309 308 308 309 308 306 305
308 309 309 309 309 306 305 308 307 301 304 307 307 307 305 307 308 309 311 312 314 313 307 304 304 301 302 304 304 307 306 304 307 309 308 308 309 310 310 311 310 309 309 309 309 309 309 310 309 309 307 305 305 305
308 308 309 310 309 305 303 305 310 304 302 306 306 304 305 306 309 311 310 311 313 313 308 306 306 308 308 311 309 310 309 308 308 307 306 306 307 308 310 310 308 309 309 308 308 302 307 307 308 307 306 305 305 304
307 309 308 308 307 307 305 305 306 308 308 307 309 308 308 309 309 310 310 313 311 310 308 311 312 315 316 312 310 308 309 310 311 313 309 310 310 308 308 309 309 307 306 306 306 305 301 306 307 305 305 305 306 307
307 309 309 308 307 306 304 307 304 307 305 306 305 306 305 304 305 309 311 309 309 312 313 314 315 315 315 314 314 313 314 314 313 310 306 306 307 307 307 307 307 306 305 306 307 307 307 307 306 306 305 305 303 305
307 307 308 307 303 301 300 310 306 308 303 303 305 303 303 304 306 311 308 310 312 315 316 316 317 317 316 318 316 315 313 312 312 312 309 308 311 311 309 308 307 307 306 307 309 308 308 302 302 306 306 304 305 304
306 306 303 302 300 295 306 304 307 306 305 304 303 301 303 308 311 309 307 311 314 317 316 317 316 316 315 315 315 314 312 312 311 310 309 307 309 309 309 307 307 309 309 309 307 307 306 306 302 305 305 304 304 304
296 297 297 288 302 302 301 301 303 303 301 303 302 304 306 309 306 305 305 310 314 315 317 318 318 317 315 314 313 311 310 310 309 307 307 310 309 307 307 308 309 309 310 307 306 305 306 306 306 305 304 304 303 304
291 297 293 299 301 301 301 299 301 302 303 302 304 308 308 306 301 301 307 313 315 314 314 314 316 314 313 314 313 309 308 308 308 307 306 306 307 307 307 307 307 307 308 310 309 307 306 306 305 305 304 303 296 303
289 295 301 305 305 304 302 303 305 304 302 302 305 304 304 299 300 308 313 316 315 317 318 317 317 316 316 315 316 317 314 312 313 314 312 310 309 312 312 311 309 310 306 308 310 309 306 305 305 304 304 305 305 305
299 301 297 302 303 305 301 302 302 302 304 307 308 303 301 302 304 313 316 318 319 317 314 314 312 313 311 313 315 313 311 309 307 307 307 307 307 309 308 309 308 295 306 308 308 308 307 307 306 305 304 304 305 306
300 304 303 299 301 302 303 303 304 307 309 310 307 305 306 311 316 317 318 316 316 312 307 307 306 305 305 309 311 311 309 310 310 308 306 305 305 305 307 307 307 306 306 306 296 301 307 306 307 306 306 306 306 307
299 304 300 300 299 299 305 308 309 309 312 312 312 314 314 314 318 319 317 312 312 307 307 308 309 307 305 306 307 307 308 309 310 308 305 304 304 306 306 306 306 306 306 305 305 304 294 302 299 305 304 305 305 305
303 302 299 299 299 304 307 309 310 314 314 313 314 312 312 314 316 319 316 314 311 309 305 306 306 307 308 308 309 310 310 310 308 306 307 307 306 306 306 306 306 306 306 305 304 304 303 303 304 304 304 304 304 302
301 300 299 298 300 305 306 304 306 310 310 310 310 313 313 312 309 314 317 317 315 310 303 306 308 306 306 306 307 308 296 306 308 307 307 307 306 306 307 306 305 305 304 304 304 304 304 303 303 303 303 303 304 304
303 302 302 302 303 304 307 308 308 308 309 309 310 312 311 308 305 312 315 315 315 315 313 310 309 309 308 307 307 307 300 306 302 295 295 296 296 300 304 304 304 305 304 303 303 302 302 302 302 302 302 302 303 303

GFSWCAN_sfc_thetae_108.txt.gz
Theta_e
312 312 312 313 314 314 314 314 314 314 315 315 314 315 316 316 315 315 324 327 321 315 314 314 312 311 312 312 307 310 308 308 307 302 301 303 301 306 301 304 301 301 298 298 300 295 294 311 311 307 312 317 318 323
312 312 312 313 313 314 314 314 314 314 314 315 314 314 315 315 314 313 320 325 325 318 316 320 318 315 315 315 314 312 309 307 310 308 307 308 303 304 301 298 306 300 304 303 302 303 310 313 312 317 319 318 318 324
311 312 312 313 313 314 314 314 314 314 314 315 314 314 316 314 314 312 320 324 322 318 314 314 313 318 320 318 319 310 313 312 313 315 312 310 301 307 300 302 302 306 309 306 305 309 310 311 315 317 319 320 323 325
311 312 313 313 313 313 313 313 313 314 314 315 314 314 316 313 313 311 320 323 322 318 310 311 319 316 320 320 319 318 317 316 315 315 310 308 305 309 307 307 305 309 309 304 305 310 311 312 314 316 318 321 322 322
310 311 312 313 313 312 312 313 313 313 314 314 314 315 313 312 312 315 322 324 325 318 310 310 316 317 319 320 318 318 317 316 314 310 308 307 311 308 311 309 304 310 306 304 306 312 314 312 314 315 316 318 321 321
310 310 311 312 312 312 313 313 313 313 314 314 314 314 311 312 311 321 314 323 325 325 315 306 316 315 318 319 318 317 317 316 316 312 312 312 310 310 305 306 308 311 312 312 311 315 313 314 314 314 314 317 320 321
310 310 312 312 312 312 312 313 313 313 313 313 313 311 311 310 316 318 314 318 315 325 316 308 308 315 318 317 318 318 319 317 315 314 313 312 309 308 308 304 306 311 314 314 314 314 312 312 313 314 315 315 315 320
310 310 311 311 312 312 312 311 312 312 313 311 310 310 310 310 311 316 322 314 318 321 320 308 309 310 317 312 311 320 315 316 315 314 312 310 309 309 299 308 309 312 313 312 313 314 313 315 314 315 315 314 315 317
310 310 311 312 313 313 312 313 313 311 311 310 309 310 316 317 318 320 315 316 327 320 312 311 306 305 316 316 317 314 316 309 314 309 309 307 304 291 305 308 308 311 309 307 309 309 309 308 310 311 312 312 313 316
310 309 310 310 309 309 309 309 309 309 309 309 312 315 312 320 315 317 320 314 315 316 317 311 316 309 313 313 311 312 314 310 303 307 310 304 304 310 310 309 311 311 310 310 306 306 307 306 308 309 310 312 314 314
310 309 308 309 309 309 309 309 309 308 308 314 314 315 320 314 320 316 309 306 307 307 311 312 313 310 319 309 309 314 309 309 301 304 303 304 302 306 312 310 312 313 313 312 312 312 311 310 310 309 310 313 313 314
309 309 308 308 308 309 310 310 308 312 314 309 314 316 320 317 312 306 305 308 306 302 311 310 312 316 314 319 311 310 306 306 297 307 302 300 305 312 312 310 311 313 313 311 312 310 310 311 312 312 314 313 313 314
309 309 309 308 309 310 310 310 308 308 308 310 312 309 308 307 298 299 298 302 304 310 312 312 309 313 313 314 311 307 300 300 308 302 301 303 311 313 314 312 311 313 312 311 311 311 312 312 313 314 314 315 315 315
308 309 309 309 309 309 309 309 309 309 308 311 306 294 302 301 303 304 305 307 313 314 312 312 310 310 312 308 309 300 305 305 298 297 298 305 312 315 314 314 312 311 311 310 311 311 311 312 312 313 313 315 315 314
308 309 310 309 309 309 308 309 308 310 311 308 308 299 303 309 314 315 315 315 316 317 314 312 311 310 307 304 306 304 300 297 300 299 304 309 316 317 315 314 313 311 310 311 311 310 311 312 312 312 314 314 315 315
309 309 309 309 309 309 309 308 309 309 309 308 309 307 312 309 310 313 313 313 318 315 315 313 307 304 303 305 302 300 298 297 303 307 311 316 318 317 316 316 315 313 312 312 312 311 311 312 311 312 315 315 314 314
308 311 309 309 309 309 308 313 312 306 303 305 306 311 311 312 313 314 315 316 319 314 308 309 303 302 310 303 301 306 303 307 312 314 316 317 318 318 318 317 315 314 313 313 313 312 312 314 314 313 312 313 313 312
307 311 309 309 310 310 315 312 308 305 301 305 304 306 309 311 314 313 314 317 315 314 312 308 313 304 302 300 303 308 311 312 315 315 316 317 319 319 317 317 317 315 314 315 315 315 314 313 312 311 312 313 311 310
308 309 309 309 310 310 309 310 311 303 304 307 309 310 310 310 313 315 316 317 319 320 316 312 307 305 306 309 309 311 313 313 312 316 315 317 317 315 316 317 318 317 316 317 316 314 314 315 312 310 309 309 307 308
308 309 309 310 310 310 306 308 315 306 303 308 309 307 308 308 314 313 312 314 315 314 310 308 308 310 311 314 316 316 317 319 314 311 308 311 314 314 316 315 314 315 315 316 315 308 312 311 310 309 309 308 309 308
308 311 309 312 312 311 311 309 309 311 311 308 313 312 309 312 310 312 313 317 312 311 310 314 314 317 321 321 322 317 319 316 314 314 314 311 315 315 315 315 314 312 310 310 309 307 304 307 309 310 310 310 310 310
313 309 314 312 311 310 309 313 309 313 310 311 312 312 309 307 308 312 318 313 313 314 316 316 317 318 319 323 323 323 321 319 320 317 309 310 315 315 314 313 311 309 309 309 308 308 308 309 310 311 310 310 307 308
307 310 312 311 305 302 302 315 308 308 303 306 309 305 306 307 311 315 309 311 313 317 320 320 323 325 323 325 325 324 324 321 318 318 316 314 317 317 315 313 312 310 309 309 310 310 310 305 308 310 311 309 307 306
306 308 305 304 303 298 310 307 311 309 308 306 304 302 304 310 316 313 306 308 315 323 321 323 322 320 322 323 321 322 321 317 316 315 317 313 312 313 315 314 313 312 312 312 311 311 311 311 306 310 309 307 306 305
297 298 301 292 306 304 302 302 304 305 302 305 303 304 308 314 307 306 307 312 318 320 322 323 323 323 320 321 321 319 319 317 314 314 316 314 313 313 314 314 314 313 314 311 310 310 311 311 310 309 308 306 305 305
292 301 295 300 303 301 302 299 302 303 304 303 304 311 312 309 304 303 312 318 320 319 319 319 319 319 320 321 316 313 313 315 315 311 312 313 313 312 310 310 310 311 315 314 312 311 311 311 310 308 307 305 298 304
293 299 304 309 308 307 305 307 308 305 301 302 307 307 307 301 302 310 318 321 322 322 323 322 322 320 323 321 320 321 322 315 313 313 313 313 312 314 313 310 309 313 316 315 314 314 312 311 309 308 307 307 306 306
302 303 298 303 304 307 303 304 303 302 305 311 310 303 302 303 304 317 321 322 321 320 318 317 317 317 316 315 316 315 313 314 313 313 313 314 315 315 314 314 315 297 315 314 313 314 313 311 309 308 307 307 307 308
301 305 304 300 303 305 305 304 305 309 312 312 305 306 306 315 320 321 320 318 319 318 314 313 312 314 312 314 313 315 314 312 311 311 311 309 310 311 314 313 311 311 312 310 296 303 311 309 309 309 309 308 308 309
300 305 302 301 300 301 306 310 311 314 316 317 315 317 318 317 321 323 319 316 315 314 314 314 311 311 314 315 314 314 316 318 316 311 307 306 307 309 310 310 310 310 311 310 309 308 296 305 303 309 308 308 308 308
307 304 301 301 302 306 308 313 315 316 317 318 319 316 314 317 318 321 319 318 317 315 313 312 311 313 313 313 315 314 310 314 316 314 312 313 310 310 311 311 311 310 310 310 309 308 307 307 307 307 307 307 307 305
304 303 302 299 302 306 309 309 309 309 312 313 314 317 315 315 311 316 320 321 318 312 304 310 311 308 310 310 312 313 295 312 313 314 314 311 311 312 311 311 311 310 308 307 307 307 307 306 306 306 306 306 306 306
305 305 305 305 305 305 307 305 305 308 310 310 314 315 314 313 308 314 320 320 318 316 314 313 313 312 313 312 312 311 304 311 301 293 295 297 298 303 310 312 311 310 307 307 306 306 305 304 304 304 304 304 305 306

GFSWCAN_sfc_thetae_114.txt.gz
Theta_e
313 313 313 313 313 313 314 315 315 315 315 315 315 316 317 315 317 314 318 329 323 318 318 316 315 313 311 309 306 312 311 309 308 303 303 303 303 304 303 304 303 297 296 300 302 299 295 312 311 303 315 317 318 319
313 312 312 312 313 314 314 315 315 315 315 315 315 316 317 315 317 315 315 328 327 321 319 321 320 321 317 315 312 313 310 314 311 307 308 307 305 304 303 298 310 300 305 303 302 304 314 316 314 317 318 318 320 321
312 312 312 312 312 313 314 315 315 315 315 315 315 315 316 316 316 314 314 321 324 318 319 317 315 318 320 318 319 310 315 316 314 315 311 309 305 308 301 303 305 307 311 304 306 311 312 314 316 318 318 317 319 323
311 311 312 312 312 313 314 314 314 314 314 315 315 315 316 316 317 314 315 322 323 320 310 311 321 318 322 321 318 318 317 319 316 315 308 306 305 312 306 307 308 310 312 306 306 312 315 314 316 316 317 319 320 324
310 311 311 311 312 313 313 313 314 314 314 314 315 315 316 315 316 313 315 320 325 319 315 312 319 321 320 320 317 319 319 316 313 310 309 306 311 311 311 308 305 310 308 304 305 316 316 315 317 316 315 316 318 320
310 310 311 311 312 313 313 313 313 314 314 314 314 315 315 316 313 313 313 320 326 325 318 308 318 317 319 320 317 318 319 317 315 312 310 313 317 312 303 304 312 312 314 316 314 318 315 319 317 317 315 317 318 319
310 310 311 311 312 313 313 313 313 313 313 314 314 314 315 313 310 312 313 319 312 326 318 312 311 317 319 319 318 317 319 317 316 314 312 310 312 309 304 306 313 314 314 315 316 316 313 313 312 316 316 317 317 320
310 311 311 311 312 313 313 313 313 312 313 313 314 313 311 311 310 311 321 314 316 319 318 308 309 313 319 313 312 318 314 316 315 312 315 311 313 312 308 311 314 314 314 314 314 315 314 317 317 316 316 317 316 316
310 311 311 311 311 310 310 311 311 312 312 311 311 311 312 311 311 315 321 320 325 321 310 308 306 305 318 313 315 316 317 308 317 311 310 312 310 296 307 309 311 313 312 312 313 313 312 311 313 313 314 314 313 314
310 310 311 310 310 310 310 310 310 310 310 310 310 310 309 313 319 320 316 313 313 316 318 312 312 310 315 312 312 313 315 309 306 309 313 308 307 315 314 313 317 314 313 312 308 308 309 309 309 310 310 312 313 315
310 310 311 310 309 309 310 311 311 309 307 309 311 315 322 316 319 314 307 305 307 303 308 312 314 312 318 309 309 314 310 309 303 306 306 303 303 313 318 315 316 316 314 312 312 313 313 313 312 311 311 312 313 314
309 310 310 310 309 309 310 310 310 308 314 309 308 315 321 313 310 305 305 306 305 302 309 307 310 314 316 319 313 313 306 307 300 311 305 300 308 318 315 313 314 315 314 313 314 312 312 311 312 312 313 313 314 315
308 309 310 310 310 309 310 310 309 309 310 316 313 309 310 308 298 300 298 302 302 308 310 310 308 316 317 316 312 309 303 303 311 304 301 305 316 316 317 314 313 314 314 313 314 313 312 312 314 314 314 316 315 316
308 309 309 310 310 310 310 309 309 309 313 310 305 292 301 300 303 304 305 306 309 311 311 311 310 312 313 309 310 304 307 307 301 299 301 309 318 318 317 315 314 313 315 314 314 313 312 313 313 315 316 316 316 317
309 309 310 310 310 310 310 309 309 311 310 305 305 295 300 307 309 311 311 310 313 313 313 311 312 311 309 308 308 306 302 299 302 302 308 315 321 322 321 318 316 315 315 315 314 313 312 313 314 313 316 316 318 318
309 309 312 309 310 309 309 309 307 310 306 304 305 304 308 306 307 309 310 310 315 314 315 313 309 307 306 307 303 302 300 299 304 310 315 322 325 326 326 322 320 319 318 316 315 314 313 313 313 313 313 314 315 315
308 309 309 309 309 309 309 310 310 304 303 303 304 310 309 308 307 311 313 313 316 311 308 309 305 303 310 304 302 307 304 308 312 315 319 327 328 329 325 322 320 319 320 317 317 316 316 315 315 314 313 316 314 315
310 309 309 310 309 310 312 311 307 306 302 304 303 307 310 312 308 311 314 318 313 315 314 309 312 306 303 302 304 310 313 317 320 321 321 328 331 331 323 323 323 322 321 320 319 317 317 315 315 313 315 315 314 314
310 311 310 309 309 307 306 306 308 302 304 306 310 311 310 312 317 319 318 319 318 321 317 313 308 306 307 311 313 314 315 316 316 320 323 328 327 325 326 324 322 321 321 320 319 314 314 317 313 312 313 313 311 312
308 309 309 309 309 307 305 307 312 305 303 307 310 308 309 309 314 316 313 316 316 317 312 310 310 312 314 316 317 319 319 321 318 315 318 321 323 324 324 320 317 320 318 319 316 310 314 314 314 314 313 313 311 310
308 310 310 309 308 309 308 309 308 308 308 306 310 309 308 310 309 310 311 317 312 310 309 313 315 316 318 323 325 318 324 319 319 319 319 317 318 321 320 319 319 318 316 313 313 313 308 313 315 315 313 314 314 311
311 311 314 310 308 310 308 311 308 310 310 308 309 310 307 306 307 308 313 311 310 312 315 315 318 319 320 324 324 322 329 328 327 322 311 313 317 318 318 317 317 315 315 313 314 313 314 313 316 315 311 310 307 311
309 312 312 311 305 302 301 312 307 308 303 306 308 305 306 307 310 313 307 311 314 317 319 320 331 330 326 327 326 327 328 327 321 319 318 321 319 320 319 320 317 316 310 314 315 312 313 308 309 310 311 311 311 309
306 309 306 305 305 299 308 305 308 306 307 305 304 303 305 306 311 309 306 310 313 317 318 328 320 318 319 326 318 318 322 325 322 322 326 322 319 316 318 315 314 315 315 317 314 313 313 311 307 310 311 310 310 309
297 298 302 294 307 303 301 302 304 304 301 305 304 304 306 310 305 305 305 308 310 312 318 322 322 319 319 319 321 319 322 322 318 315 321 321 319 318 315 313 316 316 316 313 312 313 311 312 312 311 310 308 309 309
293 302 296 303 303 302 301 300 302 303 305 303 304 309 311 308 303 302 308 315 319 320 321 320 320 321 322 323 325 317 321 324 322 320 320 319 317 316 315 314 312 314 317 316 314 313 311 312 311 311 309 308 303 307
293 301 307 311 308 306 304 308 309 305 301 302 306 306 307 301 302 311 321 321 320 322 323 323 322 320 320 322 323 322 322 320 318 315 315 315 315 315 316 313 312 315 316 316 315 314 311 312 311 310 308 308 309 308
304 306 301 304 305 307 304 305 304 303 307 311 309 304 302 304 305 316 318 313 315 323 321 321 321 321 321 320 320 319 317 318 320 318 318 317 318 316 317 317 316 305 317 315 314 315 314 315 313 312 309 308 308 309
305 307 307 303 304 304 304 304 306 309 312 312 307 305 306 312 316 318 320 321 322 321 316 316 317 319 318 319 318 318 318 317 314 311 311 312 313 313 317 317 316 316 317 316 300 308 313 315 315 313 311 309 309 311
304 308 304 303 301 301 305 310 311 312 313 312 311 313 316 318 320 322 321 320 318 316 316 316 317 317 315 315 314 315 317 317 316 314 312 311 311 314 314 314 314 314 313 313 313 310 300 310 307 313 310 308 308 309
308 307 304 304 303 306 309 312 312 314 313 312 315 313 315 316 318 320 319 318 317 317 315 314 313 315 315 315 314 313 312 314 315 314 313 313 313 313 313 314 314 313 312 311 311 310 310 309 309 309 309 309 309 307
306 305 304 301 304 309 311 310 311 310 308 307 306 315 317 316 312 316 320 320 316 312 309 311 311 310 313 313 314 313 300 315 313 313 314 314 314 315 314 315 314 313 312 311 310 309 309 308 307 308 307 309 309 309
307 307 306 306 306 306 308 309 307 307 309 309 312 311 310 313 310 315 321 321 317 315 314 314 314 314 316 315 315 314 310 313 303 294 295 293 292 300 311 313 314 313 311 310 310 309 307 307 307 307 307 308 308 308

GFSWCAN_sfc_thetae_117.txt.gz
Theta_e
315 314 313 313 313 313 313 314 315 315 316 316 316 316 316 317 316 314 312 316 318 316 318 321 318 314 311 308 304 310 308 306 303 299 299 300 300 298 300 303 300 294 294 295 295 292 292 312 312 302 307 313 316 322
314 313 313 312 313 313 313 314 315 315 315 315 316 316 316 317 316 316 308 321 324 320 318 323 320 318 315 313 308 308 309 311 310 304 304 304 300 300 297 293 304 296 299 298 299 297 310 312 310 310 312 312 313 320
313 313 312 312 312 313 313 313 315 315 315 315 315 316 316 316 316 315 311 313 317 317 315 316 315 319 316 316 314 306 310 315 313 312 306 305 304 304 298 301 303 306 307 299 302 306 310 312 314 314 315 314 317 323
313 312 312 312 312 312 313 314 314 314 314 315 315 315 315 316 316 316 310 314 314 317 310 310 321 315 319 317 316 315 312 314 313 312 306 302 300 308 302 304 302 307 306 302 301 307 310 313 312 312 315 316 318 323
312 311 311 311 312 312 313 314 314 314 315 315 315 315 315 316 316 315 313 313 316 314 313 314 318 318 317 317 316 318 316 313 311 307 305 302 310 308 307 304 300 307 305 300 301 311 310 311 313 315 313 313 316 322
311 310 311 311 312 312 313 314 314 314 314 314 314 314 315 315 315 309 311 317 318 321 316 309 317 317 317 317 316 316 316 314 313 309 308 311 313 308 300 299 309 310 312 313 311 314 316 316 316 317 312 314 316 322
311 310 311 311 312 312 313 314 314 313 314 314 314 315 315 315 311 307 311 317 311 312 317 310 308 316 319 317 315 315 316 314 314 311 310 308 308 306 300 297 310 312 312 313 313 313 310 313 309 314 314 318 315 322
310 310 311 311 311 312 311 311 312 313 313 313 314 314 314 311 309 306 311 312 312 318 317 308 307 310 316 311 309 316 313 315 314 309 312 308 310 309 299 307 309 312 313 312 311 312 309 312 314 314 314 313 313 319
310 310 311 311 311 311 311 311 311 311 311 312 312 311 310 307 309 314 322 317 320 320 311 308 305 303 315 312 314 314 315 307 315 309 309 309 301 291 303 307 307 310 307 309 311 311 310 309 313 312 310 311 309 316
310 310 311 311 311 310 310 311 312 310 310 310 308 307 307 313 320 322 317 315 315 315 318 310 313 309 313 311 311 311 313 307 304 308 311 305 305 310 313 311 312 314 311 310 306 305 305 304 306 306 307 308 308 312
310 310 310 311 310 309 310 311 311 309 309 310 309 313 322 318 320 316 309 307 307 303 308 311 312 310 314 308 310 314 307 307 300 305 304 302 300 308 314 312 314 315 312 310 309 310 310 309 309 309 308 309 309 310
309 309 310 310 311 310 310 310 310 309 309 306 306 310 317 316 311 306 304 306 304 300 308 302 307 312 313 317 312 312 307 307 299 310 304 299 306 313 313 313 313 314 312 312 312 311 311 314 310 309 309 310 310 310
308 309 309 310 310 310 310 310 310 309 309 313 311 307 307 306 297 299 297 301 301 306 308 306 304 313 314 314 312 310 304 302 310 302 300 303 312 315 314 312 312 314 313 313 313 313 312 311 313 311 310 314 315 315
308 309 309 309 311 311 310 310 309 309 311 307 304 293 300 298 302 303 303 305 308 310 307 309 306 313 314 311 310 305 307 307 300 297 299 308 311 313 313 313 312 311 312 312 313 312 311 312 311 313 315 314 314 312
309 309 309 310 311 311 310 309 309 311 309 304 303 294 299 304 306 308 310 310 312 311 312 310 308 312 309 308 308 307 303 300 301 300 305 312 313 314 314 314 313 312 312 313 313 311 311 312 311 311 315 315 314 312
310 308 308 310 310 310 309 309 309 311 307 304 304 301 306 305 304 306 308 310 313 314 315 313 309 306 306 306 304 302 300 299 303 311 313 315 315 316 317 317 316 315 315 314 313 313 312 311 311 311 313 313 312 312
308 308 309 309 309 309 309 310 307 303 303 301 301 306 305 305 306 308 311 312 317 315 308 309 304 303 310 304 302 305 301 307 316 314 316 319 320 322 322 322 320 319 317 315 314 314 312 313 313 311 310 311 312 312
307 311 309 310 309 309 310 309 305 303 299 302 300 304 308 310 308 310 313 315 314 312 309 307 311 306 304 302 303 307 312 318 320 320 321 324 326 326 324 323 322 320 318 316 316 314 314 311 311 310 313 311 311 311
309 310 309 309 309 306 304 304 306 300 303 306 307 307 308 309 311 315 315 315 318 318 313 310 307 305 306 313 312 315 316 319 319 321 324 326 327 326 324 323 322 320 318 316 316 313 313 312 311 311 311 311 308 308
308 308 309 309 309 305 303 304 311 303 301 307 308 305 307 308 314 315 312 314 315 313 309 308 307 314 314 319 321 319 321 320 320 317 320 322 325 325 324 322 319 319 319 317 316 310 313 312 312 312 310 310 309 308
308 310 309 309 307 306 304 305 306 307 308 307 311 309 307 310 311 311 311 314 310 306 304 312 314 318 322 326 325 324 319 318 315 315 316 316 321 322 321 322 321 318 316 315 312 311 308 311 311 312 310 310 311 311
310 312 309 308 304 307 306 310 307 310 307 308 309 311 307 306 307 309 312 309 309 312 315 319 323 322 319 321 319 320 317 311 310 310 309 313 317 319 320 320 318 316 316 314 314 312 311 311 313 313 312 311 310 309
309 310 309 307 302 300 298 311 305 306 303 307 309 306 307 309 310 315 308 310 312 321 320 321 325 330 326 326 326 324 321 315 313 315 320 321 320 321 316 317 318 314 310 310 312 313 311 307 312 310 311 309 307 306
307 306 304 303 303 297 307 306 307 306 308 304 303 301 305 309 314 311 306 308 314 320 321 326 325 323 325 326 324 323 324 323 322 322 321 317 315 313 314 314 314 314 313 313 312 312 312 311 307 306 309 308 306 305
297 297 300 292 305 302 300 302 303 303 301 304 303 303 307 313 306 305 306 310 314 315 320 325 322 321 319 320 320 323 325 324 317 316 320 319 316 315 314 315 315 314 315 313 312 311 311 311 310 307 309 308 307 306
290 300 295 302 301 301 302 300 302 302 303 303 304 309 308 308 303 303 309 311 309 312 319 320 320 319 317 321 320 320 320 323 321 319 318 319 317 315 313 312 313 315 316 315 313 311 311 311 311 309 308 307 303 308
293 298 304 310 306 306 305 306 307 305 302 302 305 305 304 299 300 310 312 311 311 312 318 322 322 319 318 319 320 321 320 318 318 317 318 318 318 317 314 314 313 316 316 316 314 312 313 312 311 310 310 310 309 308
301 305 301 305 305 307 303 304 304 304 305 311 310 304 302 303 305 315 315 317 318 322 320 321 321 321 320 319 318 317 316 317 318 318 318 318 319 318 319 318 318 306 316 315 314 315 313 312 310 311 310 309 309 310
303 307 305 303 304 305 304 304 306 309 311 310 308 304 304 310 315 319 314 315 321 322 318 316 317 317 317 318 318 317 317 316 313 312 312 310 312 313 317 316 313 315 314 312 304 310 314 313 311 311 311 309 310 311
304 308 304 304 302 300 306 309 313 312 313 312 310 308 307 310 312 323 319 316 315 316 318 317 317 316 314 314 314 315 318 317 316 315 312 310 311 314 315 316 313 313 313 315 312 312 301 306 306 311 310 308 307 307
307 306 304 303 303 306 311 312 314 312 310 311 313 310 309 312 315 318 318 323 320 319 317 315 315 315 315 313 313 311 310 312 314 313 312 312 312 313 313 314 314 313 312 311 310 310 310 311 311 310 308 307 307 305
305 304 303 301 304 311 314 311 310 309 309 309 309 313 315 314 313 319 324 323 319 314 309 311 310 311 313 313 313 311 304 310 309 309 311 311 311 315 316 314 313 312 312 310 310 309 309 308 307 308 309 309 309 308
306 306 306 305 305 305 308 309 309 307 308 306 309 312 312 312 310 318 325 324 317 313 312 313 313 315 319 317 314 311 307 308 300 294 295 294 294 300 310 311 312 311 312 310 309 309 308 310 308 309 309 309 310 309

GFSWCAN_sfc_thetae_120.txt.gz
Theta_e
316 315 314 314 313 313 313 313 313 314 315 316 316 316 316 316 317 311 307 310 307 309 310 316 317 309 305 302 300 303 301 302 298 293 292 294 294 295 295 296 294 290 289 290 291 288 287 309 309 300 303 308 312 319
315 314 313 313 312 312 313 313 313 314 315 315 316 316 316 316 316 315 303 310 312 309 310 316 316 317 312 308 303 300 301 302 303 296 296 297 295 295 291 288 298 293 295 294 294 293 303 308 307 308 309 309 314 317
314 313 313 312 312 312 312 313 313 315 315 315 315 316 316 316 316 315 306 308 308 310 309 309 310 313 311 308 308 300 303 306 304 303 300 298 295 297 293 294 297 300 300 298 297 300 304 309 311 311 311 313 318 319
313 312 312 312 311 312 313 313 313 315 314 314 315 315 315 316 316 315 306 307 304 306 305 306 316 311 311 310 309 307 305 305 305 302 297 293 293 299 295 298 297 301 301 297 298 303 306 310 312 311 312 320 322 322
312 312 312 311 311 312 312 313 314 315 315 314 315 315 315 315 315 312 308 309 309 306 305 307 312 311 308 309 310 312 307 304 303 299 296 295 299 300 298 297 294 302 299 296 296 303 304 306 309 312 311 315 321 321
312 311 311 310 311 312 312 313 314 314 315 314 315 315 315 315 314 305 302 308 311 307 306 302 311 311 312 308 309 307 307 304 303 301 299 303 305 300 294 293 303 304 307 308 307 310 310 311 313 312 310 317 321 320
312 312 310 310 311 311 312 312 312 313 314 313 314 314 314 314 308 301 303 309 307 304 309 305 302 310 313 307 307 306 306 304 304 301 300 302 300 298 293 292 304 306 306 309 310 309 307 310 307 310 313 314 321 321
312 311 310 310 311 311 311 311 311 311 313 313 313 313 313 312 308 302 304 308 307 307 311 302 301 306 308 303 302 305 303 305 304 301 302 300 302 299 291 298 304 306 308 306 307 307 307 308 309 309 310 314 317 316
312 310 310 310 311 311 311 311 311 311 311 311 311 311 306 302 300 304 318 314 312 311 304 304 299 300 313 303 304 305 304 299 304 300 300 303 296 289 298 300 302 304 304 306 306 306 306 307 308 307 306 307 308 314
311 310 310 310 310 310 310 310 312 311 311 309 305 301 299 305 317 317 308 307 307 308 308 304 307 303 309 303 305 303 303 298 297 301 302 299 296 300 302 304 304 304 305 307 303 301 301 300 302 302 303 304 305 315
311 310 310 310 310 310 309 310 311 310 309 303 303 305 311 318 310 306 302 300 300 298 302 305 305 305 308 302 301 305 301 299 293 297 298 294 294 300 306 305 305 307 305 305 304 305 303 303 303 304 304 305 308 314
310 309 309 309 310 310 309 309 310 308 305 302 302 307 309 308 304 300 298 299 298 296 299 302 304 307 308 310 305 304 299 299 293 300 297 292 297 303 307 306 306 306 306 306 306 305 305 306 305 305 304 306 305 308
310 309 309 309 309 310 310 309 310 309 309 309 309 307 305 301 291 295 293 295 296 300 299 298 301 307 307 309 306 306 298 295 300 296 295 296 301 307 305 307 306 306 307 307 307 307 306 306 307 306 307 310 311 313
309 308 308 309 309 310 310 310 309 308 308 305 303 292 298 297 297 298 298 299 303 301 300 298 298 305 305 304 307 300 299 299 294 291 293 298 304 306 306 306 305 306 306 306 307 306 306 307 306 309 310 310 309 310
308 308 308 309 310 310 310 309 309 309 307 303 303 293 297 302 303 303 304 304 306 307 302 301 300 305 302 301 301 300 296 295 295 293 297 301 304 306 305 305 304 305 305 305 306 305 306 307 306 306 309 308 308 307
309 308 306 310 310 310 309 308 305 309 306 303 303 300 300 299 300 302 306 306 311 310 307 304 299 299 300 299 297 296 296 293 296 298 302 305 305 304 304 305 305 305 305 306 306 305 306 305 305 305 308 308 306 306
308 303 309 310 310 309 309 307 306 303 303 300 296 300 300 301 301 304 307 308 313 308 302 305 301 300 304 300 296 298 296 298 300 306 307 306 307 306 307 307 308 307 306 306 306 305 305 305 305 306 305 306 306 305
303 309 309 309 309 309 308 307 305 302 298 300 295 298 303 307 305 307 309 311 310 308 308 305 304 300 298 298 296 299 304 309 308 308 310 311 310 311 312 310 311 312 309 308 308 307 305 304 305 306 307 306 305 305
308 308 310 310 309 306 303 304 305 298 300 300 301 304 305 306 308 310 311 311 313 313 308 305 302 301 301 301 303 305 308 310 310 312 314 314 315 314 314 314 314 312 310 309 308 308 308 307 307 306 308 306 306 306
308 308 309 309 309 304 302 303 308 301 297 300 302 301 302 302 306 309 311 311 310 309 305 303 303 307 309 309 308 308 310 313 313 311 311 314 316 317 316 315 314 312 310 308 308 305 305 304 306 308 308 308 305 306
307 308 308 308 306 305 302 303 304 301 302 302 304 304 302 304 306 308 308 311 307 307 304 306 309 311 313 314 315 311 309 310 311 311 311 310 313 315 318 317 314 311 310 309 308 306 306 309 309 310 309 308 308 308
308 311 307 307 304 305 303 305 302 305 303 303 303 304 303 301 302 306 309 307 307 307 307 308 309 310 312 314 313 310 309 308 308 307 304 307 310 311 314 316 313 309 308 310 310 309 310 312 311 311 309 309 307 308
306 309 307 305 301 298 296 305 302 302 299 303 303 301 300 302 303 309 303 305 307 310 311 311 313 315 313 316 315 312 311 307 306 305 307 312 312 310 311 311 312 309 308 309 313 312 312 310 311 313 312 311 310 307
308 305 302 301 300 294 303 301 304 301 302 301 300 299 300 302 305 303 300 302 307 311 311 311 312 314 315 316 313 313 314 311 312 313 313 311 308 309 309 309 310 311 312 311 310 311 310 310 307 311 311 311 309 308
297 296 297 290 301 300 299 300 300 300 298 301 301 300 303 306 300 300 301 305 307 310 314 315 313 314 313 312 313 313 314 314 312 309 312 311 309 308 308 308 309 311 310 308 307 308 310 311 311 311 311 309 308 306
290 296 292 299 298 298 300 298 299 299 299 299 300 303 304 301 299 299 301 303 304 305 307 311 310 309 311 312 311 311 312 316 315 311 310 311 310 309 307 309 308 308 310 309 308 307 307 309 310 309 308 306 301 303
290 294 299 303 302 304 303 304 306 302 299 300 301 301 299 297 298 303 306 307 307 309 311 312 312 313 311 311 313 314 312 314 314 311 311 311 315 315 312 309 307 308 311 311 311 312 311 311 311 311 309 308 308 308
297 299 298 301 302 304 301 302 302 301 302 305 304 301 300 301 302 307 308 310 312 315 315 315 316 316 314 313 311 310 310 311 311 311 310 309 310 310 311 311 311 304 312 313 310 309 309 308 307 307 308 308 309 310
298 302 304 299 300 300 299 301 302 305 306 305 302 300 301 305 309 309 308 311 316 316 312 312 309 312 311 310 310 309 309 308 306 303 304 303 303 306 309 311 308 307 308 308 302 306 309 308 308 308 307 306 307 310
299 305 303 301 299 297 300 306 307 307 307 308 309 305 304 306 309 316 315 314 312 312 310 308 308 308 307 307 306 306 310 309 308 307 304 305 307 306 306 307 307 307 307 308 307 305 300 305 301 305 306 305 305 305
303 301 300 299 299 302 306 310 309 308 310 310 310 307 305 310 314 313 313 312 315 314 311 309 308 311 309 306 304 303 300 302 302 303 303 304 305 305 304 304 304 305 307 307 306 305 303 305 305 305 304 303 302 301
302 300 299 299 300 307 310 308 308 306 305 308 307 308 309 309 305 309 316 312 309 306 304 306 306 304 304 304 303 303 299 300 299 301 302 303 303 304 303 304 303 303 303 303 304 303 305 307 306 305 304 304 303 303
302 303 302 301 302 303 307 307 306 306 306 304 306 308 307 306 304 309 314 313 309 306 304 306 307 307 306 304 303 301 299 299 296 294 295 294 295 298 301 302 304 304 304 303 301 301 301 301 301 304 306 305 304 304

GFSWCAN_sfc_thetae_123.txt.gz
Theta_e
315 315 316 315 314 313 313 313 313 313 313 315 316 316 317 316 316 313 306 309 305 303 307 313 313 309 306 300 298 301 301 301 295 291 290 292 292 294 292 294 292 289 289 288 289 286 286 307 307 298 301 305 309 315
315 315 315 314 313 312 312 313 313 313 314 315 315 316 316 316 316 315 304 308 310 303 305 314 317 318 314 311 304 299 301 300 300 295 294 295 293 294 291 287 296 291 294 292 293 292 300 305 304 306 307 311 311 312
315 314 314 313 313 312 312 312 313 313 314 315 315 315 316 316 316 315 308 304 304 305 308 306 307 309 311 312 307 302 302 305 301 300 298 296 294 294 290 292 296 299 298 296 295 297 302 307 309 308 310 314 316 315
314 314 313 312 312 312 312 312 313 313 314 315 315 315 316 315 316 315 308 304 303 303 301 305 315 313 314 307 308 307 306 303 302 299 294 292 291 296 293 296 296 299 298 297 296 301 304 308 309 309 315 318 318 318
313 313 312 312 311 311 311 312 312 314 314 315 315 315 315 315 314 314 310 307 308 302 302 303 310 310 308 308 310 307 305 303 299 296 294 293 294 298 295 295 292 300 297 296 296 302 302 304 308 311 317 318 318 318
313 312 312 312 310 311 311 312 312 313 313 315 314 314 315 314 314 308 298 305 310 306 303 300 309 309 310 306 308 306 305 303 301 299 297 300 303 297 293 291 299 302 303 300 303 305 307 309 310 310 312 318 320 318
312 312 312 311 310 311 311 312 312 312 312 313 313 314 313 313 310 300 298 303 305 305 304 302 302 306 311 304 305 305 304 302 301 299 298 300 298 296 292 291 301 304 307 308 309 309 306 309 307 308 315 320 319 319
312 312 311 310 310 311 311 311 311 311 312 311 312 313 312 312 308 302 305 310 306 301 308 300 300 302 307 300 301 303 301 302 301 298 299 298 300 295 289 295 297 302 305 305 308 307 308 307 307 308 312 318 316 315
312 311 311 310 310 311 311 311 311 312 312 311 310 311 305 301 297 301 315 313 307 306 301 301 297 297 307 301 301 303 301 297 301 297 297 300 292 290 297 298 301 304 304 305 304 306 307 306 306 306 312 316 313 312
311 311 310 309 310 310 311 310 311 311 310 310 304 300 297 302 312 316 307 305 304 305 306 302 303 299 304 300 300 302 300 297 295 299 300 297 295 300 301 301 305 304 305 305 301 299 299 301 305 305 304 307 311 312
311 311 310 309 309 310 310 310 310 310 309 302 300 302 310 313 307 304 299 298 298 296 301 304 303 300 306 301 299 302 299 300 293 296 298 293 293 299 304 303 303 303 304 305 305 305 303 302 301 301 301 303 304 312
310 310 309 309 309 309 310 309 310 306 305 303 302 305 306 306 303 299 297 298 296 294 297 299 302 304 305 308 303 302 301 300 292 298 295 291 296 299 303 305 304 302 305 304 305 304 303 304 304 303 303 304 305 311
310 310 309 308 309 309 309 310 309 309 308 308 307 306 303 300 291 296 292 294 293 298 298 298 301 304 304 306 304 302 300 298 299 294 293 295 297 302 304 304 303 304 304 304 304 304 305 305 305 304 304 305 306 308
309 309 308 308 308 309 310 310 309 308 307 304 302 291 298 295 296 296 296 297 300 300 299 296 299 301 303 301 302 298 301 298 293 289 292 296 299 302 304 305 304 303 304 304 304 304 304 305 304 307 308 308 309 309
309 308 308 308 309 310 310 309 309 308 307 302 302 293 297 299 300 301 301 301 304 306 301 297 298 302 299 300 301 300 297 295 294 292 295 299 299 303 304 303 303 303 303 303 304 303 304 304 304 306 308 307 308 309
308 308 306 308 310 310 309 307 305 308 306 303 302 299 301 297 298 300 303 302 307 308 304 301 296 297 298 298 296 296 295 293 295 296 299 299 301 303 304 304 303 304 303 302 303 302 303 303 303 304 306 305 305 307
308 303 309 309 310 309 308 304 305 303 302 300 299 302 298 298 298 299 302 305 309 308 301 303 298 297 299 296 295 298 296 297 298 299 302 304 303 303 304 304 303 303 302 302 303 302 303 304 303 305 304 304 304 304
304 307 310 309 309 308 306 306 304 302 298 299 293 297 298 300 299 302 305 307 307 307 306 303 303 298 298 297 296 298 299 299 303 303 304 305 304 304 306 305 305 305 304 303 303 304 302 301 303 306 306 306 304 302
308 308 310 309 309 306 303 303 304 297 300 300 297 297 303 301 304 309 310 310 311 312 309 304 302 299 300 301 302 303 302 306 306 306 307 307 306 306 306 305 306 307 307 306 304 305 305 305 306 306 307 305 305 304
308 309 309 309 309 304 301 302 306 299 297 300 300 302 303 302 305 307 308 308 309 308 305 303 303 305 305 305 306 307 307 308 310 308 308 309 311 310 309 309 309 309 309 307 306 303 303 302 302 304 307 307 307 305
306 306 308 308 306 305 302 302 302 303 300 297 302 303 301 301 302 306 307 310 307 305 303 306 308 308 311 309 309 309 308 310 310 310 309 310 311 313 313 314 313 310 309 307 306 304 304 307 309 306 307 308 309 309
306 309 306 306 303 304 303 302 301 305 302 304 301 301 300 300 301 305 309 305 306 307 308 306 305 306 309 313 313 313 311 310 308 307 305 307 308 309 310 311 311 311 308 308 307 308 308 311 309 310 310 309 308 308
306 308 306 303 300 297 296 305 302 303 298 302 305 299 299 300 301 308 301 305 307 309 309 307 308 310 310 313 314 314 312 310 307 304 305 306 308 308 308 308 308 306 305 306 308 309 309 305 307 311 311 309 310 308
307 304 301 300 298 295 303 301 302 301 301 301 300 298 298 299 304 301 299 300 304 308 308 307 308 310 312 313 312 313 314 311 308 309 309 308 306 305 307 310 308 308 308 310 312 309 308 307 306 312 311 310 310 309
296 295 297 290 301 299 298 299 299 299 298 302 299 297 299 301 298 299 300 302 305 305 308 310 309 309 308 310 312 314 313 312 311 309 309 308 306 305 305 306 306 306 307 306 306 306 306 307 310 311 311 310 309 309
291 296 292 298 298 296 299 299 300 300 299 299 300 301 301 301 298 297 300 302 304 306 307 310 311 310 310 309 308 307 310 312 311 310 309 309 309 307 305 305 305 305 307 307 307 306 306 306 307 309 309 307 300 307
290 293 298 301 301 303 302 304 304 302 299 297 298 298 296 294 296 299 304 304 304 305 308 309 313 311 309 309 309 308 311 312 312 310 311 310 309 309 309 306 304 306 308 309 308 308 306 306 306 307 307 305 304 304
297 297 295 299 301 304 300 301 301 300 301 302 301 298 298 299 298 304 307 308 308 311 312 314 313 313 311 309 307 308 308 308 308 307 306 306 307 307 307 307 308 301 309 310 309 309 307 306 306 306 306 306 306 307
295 298 299 297 299 300 300 301 302 304 305 305 302 301 300 302 306 306 306 309 316 314 312 312 310 311 308 306 306 307 308 307 306 302 300 300 302 304 305 307 307 307 308 308 299 304 308 307 306 306 305 305 305 305
296 301 299 300 299 297 300 306 305 305 304 305 306 304 303 303 307 312 313 313 312 309 309 307 308 307 305 305 304 304 305 305 305 305 303 303 304 305 304 306 307 307 306 306 306 305 300 303 300 304 304 303 302 302
299 300 299 298 297 301 305 306 306 308 310 309 307 304 303 306 309 311 310 312 312 310 309 307 307 306 305 304 304 301 299 299 299 300 301 302 303 304 304 305 306 305 305 305 305 305 304 303 303 303 303 303 303 301
298 298 297 295 298 306 307 307 307 305 306 306 304 308 307 305 304 306 311 309 309 308 306 307 306 302 303 303 302 300 297 298 298 298 299 300 300 301 302 301 301 302 304 305 304 304 304 303 303 303 303 303 302 301
298 298 298 300 301 302 307 307 307 305 305 303 306 306 305 303 305 307 308 305 303 302 302 303 303 302 301 301 300 298 296 298 295 294 293 294 294 296 299 300 301 302 301 300 300 301 302 302 303 303 304 304 303 302

GFSWCAN_sfc_thetae_126.txt.gz
Theta_e
316 316 316 316 315 314 313 313 313 313 313 313 315 316 316 317 316 313 304 307 303 300 304 310 312 307 307 300 298 299 300 300 295 291 289 290 291 294 291 293 291 288 289 288 288 286 286 306 306 298 300 305 310 316
315 315 315 315 314 313 313 312 312 313 313 313 315 316 316 316 316 314 304 307 308 301 303 310 313 315 315 312 305 298 299 299 299 295 293 294 292 293 291 288 294 289 293 291 292 292 299 304 305 306 307 311 313 315
314 314 315 314 313 313 312 312 312 313 312 313 315 316 315 316 316 314 308 306 302 299 304 304 308 310 315 317 311 301 301 303 300 299 297 295 293 292 289 290 294 296 297 295 294 296 301 306 308 309 310 313 315 318
313 314 314 313 313 312 311 311 312 312 313 314 315 316 315 316 315 315 309 304 302 299 297 302 313 311 316 306 308 308 306 302 300 298 293 292 291 295 292 295 295 298 297 296 295 299 303 308 309 310 314 317 315 316
312 313 313 313 312 312 311 311 312 312 313 313 313 316 315 315 314 314 312 311 306 300 298 301 308 311 310 305 306 305 303 301 297 296 294 293 292 296 293 294 292 299 297 296 295 301 303 304 310 312 316 316 317 317
311 313 313 312 312 311 310 311 312 312 312 312 313 314 314 314 313 309 299 306 309 306 299 297 306 309 309 307 304 304 304 301 299 298 295 296 300 297 292 291 297 300 300 301 301 303 305 308 310 313 317 317 319 317
311 312 312 312 312 311 311 311 311 311 311 312 312 313 313 313 311 303 298 301 309 305 300 299 302 306 309 303 303 303 303 300 300 297 297 299 296 296 292 291 299 302 304 306 305 308 305 308 307 311 316 319 319 318
311 311 312 312 311 310 311 311 311 311 312 312 311 311 312 312 310 305 308 310 306 300 304 299 300 301 305 299 299 300 300 300 299 297 297 297 297 294 289 296 297 302 306 306 308 308 307 308 308 308 316 318 316 315
310 311 311 311 310 310 310 311 311 311 311 311 310 310 306 304 299 300 314 313 306 303 300 299 296 295 304 299 299 301 299 296 299 296 296 298 291 289 297 298 298 303 305 307 306 307 307 308 307 307 315 316 314 313
310 311 311 311 310 310 310 310 310 311 311 310 305 300 295 300 309 313 307 302 299 303 304 300 302 298 301 298 298 300 298 295 294 297 299 296 294 299 301 301 302 304 305 304 302 301 303 304 305 305 311 315 315 314
309 309 311 310 309 309 310 310 310 310 308 303 301 302 307 312 307 305 301 299 299 296 300 303 302 300 304 298 298 299 296 296 293 296 297 292 292 298 303 303 302 303 305 305 305 306 306 306 305 304 304 310 312 312
308 309 310 309 309 309 309 310 309 306 304 303 303 305 305 306 304 300 297 298 296 294 297 299 301 302 304 307 303 301 296 297 292 297 295 291 295 299 300 303 304 303 304 305 306 306 305 304 306 305 303 303 304 307
308 308 310 309 308 309 309 309 309 309 308 307 305 305 302 300 292 295 292 294 292 296 297 298 300 303 304 305 303 301 296 295 299 294 293 295 298 299 301 304 304 303 305 305 305 306 306 305 305 304 304 305 305 307
308 309 309 308 308 308 309 310 310 308 305 303 301 290 297 294 295 296 295 295 299 300 301 297 300 300 301 299 301 298 299 298 292 289 292 296 299 301 302 304 303 303 303 304 304 304 305 305 305 305 306 306 306 307
309 309 308 308 308 309 309 309 309 306 306 301 302 292 296 300 299 300 300 300 302 305 301 296 300 301 298 298 298 298 296 294 294 292 295 298 298 300 303 304 302 303 302 302 303 303 304 304 304 305 307 307 308 309
309 308 306 308 309 310 309 308 305 307 306 303 301 297 301 296 296 298 301 301 305 305 303 299 296 297 296 297 297 296 295 293 295 297 299 298 299 300 304 304 304 303 303 302 303 303 303 303 304 305 307 307 308 310
308 304 308 309 310 309 308 305 304 302 302 301 298 300 297 296 298 299 302 304 309 304 300 301 296 295 297 294 294 298 296 298 301 300 300 299 301 302 303 304 304 303 303 302 303 302 303 304 303 305 305 306 306 308
305 307 309 309 309 308 305 305 303 301 298 299 293 296 297 298 297 299 302 304 304 303 303 302 304 298 296 295 295 299 299 301 302 300 300 302 305 305 305 305 305 303 303 303 303 303 302 302 302 304 306 307 305 306
308 308 309 309 309 305 302 302 304 297 299 298 297 296 297 298 300 301 304 306 306 306 306 302 301 297 299 300 302 305 305 305 304 305 306 306 306 305 305 305 305 304 303 303 303 303 303 304 305 306 307 306 307 307
309 309 310 310 309 303 301 301 306 298 294 299 301 298 297 297 299 302 304 306 307 306 303 299 300 301 304 307 308 309 307 307 305 306 306 308 307 305 305 305 305 305 306 307 306 302 304 303 303 305 307 307 307 306
306 306 309 308 306 305 302 301 301 301 301 297 302 302 302 300 301 304 304 308 305 304 303 306 306 308 311 311 309 310 308 306 306 306 307 309 310 312 311 312 311 310 310 309 309 307 303 305 307 306 306 307 308 308
305 309 306 306 302 304 302 301 298 303 302 303 301 302 299 298 299 301 307 304 304 306 308 308 309 310 309 308 310 311 311 310 308 307 304 306 309 309 310 310 311 311 311 310 310 310 308 308 309 309 309 310 309 310
306 307 305 303 298 297 295 305 299 302 298 301 304 301 297 298 300 307 301 304 306 310 310 308 308 309 310 311 313 312 312 312 311 309 307 306 308 308 308 308 309 309 308 309 310 309 309 303 305 310 310 310 311 310
306 303 301 299 297 294 302 300 302 301 302 300 300 299 298 298 302 300 299 301 306 310 307 307 309 309 310 311 311 313 313 313 310 310 310 310 308 307 308 308 308 308 309 310 309 309 309 308 304 311 311 311 310 309
296 294 296 289 300 297 297 298 300 300 297 301 299 298 299 300 296 298 300 304 306 308 309 309 311 311 309 310 310 311 314 314 312 311 311 310 306 306 306 306 306 307 308 308 307 307 308 309 311 312 311 311 310 310
288 297 292 297 298 295 297 298 299 299 298 299 300 301 300 298 296 297 299 301 305 307 308 309 307 306 307 310 309 309 310 312 311 310 310 308 308 307 306 306 306 307 309 309 308 308 308 308 309 310 310 308 301 309
290 293 295 299 300 301 301 303 304 299 299 296 297 297 297 295 295 298 303 304 305 308 310 311 311 311 310 309 310 310 312 312 312 311 311 310 310 310 309 307 306 307 309 310 309 308 308 308 308 308 307 307 306 306
297 295 293 298 300 303 299 301 300 300 299 300 300 296 297 298 297 303 305 307 307 310 311 313 312 311 309 308 309 309 307 308 308 308 307 308 309 310 310 309 309 300 310 311 310 309 308 308 307 307 308 308 309 309
295 297 298 297 299 301 301 301 302 304 304 301 299 298 300 303 305 306 306 308 312 312 312 312 308 307 305 305 306 307 307 306 306 304 303 302 303 304 306 309 309 308 310 310 301 305 310 309 309 309 308 308 308 309
294 298 298 299 299 298 301 304 305 306 307 306 306 304 303 303 306 310 312 312 310 309 308 309 307 305 304 305 305 306 306 306 306 306 304 304 306 308 307 308 309 309 309 310 309 309 298 304 301 307 306 306 306 306
298 298 298 299 297 299 304 307 308 310 310 307 304 303 304 305 309 313 312 312 312 309 306 307 306 306 305 304 305 304 302 301 301 302 303 304 306 306 308 307 308 309 309 309 308 308 307 306 307 306 306 306 306 304
297 298 297 295 298 305 308 307 307 306 307 306 305 308 307 307 305 306 312 311 310 310 309 308 306 306 306 307 306 303 297 301 300 300 301 302 304 305 305 304 305 307 308 308 307 307 307 307 306 306 305 305 306 306
299 297 297 299 302 303 307 307 306 305 305 304 305 305 304 305 305 307 308 306 309 310 310 309 307 305 305 304 302 300 297 299 297 293 293 292 293 297 301 303 304 305 305 304 303 304 305 306 305 305 305 305 306 305